GFSCGP_700_rhum_000.txt.gz
RH
14 32 32 24 15 16 24 38 29 27 27 24 30 18 18 19 12 10 7 9 12 14 19 23 25 25 32 36 38 42 47 52 59 67 72 69 62 55 51 47 37 40 44 47
30 32 17 21 23 23 32 36 31 32 39 41 29 15 16 17 16 14 13 13 17 19 20 22 26 29 29 33 34 40 46 50 55 62 69 70 62 53 46 42 41 46 52 53
21 22 20 25 31 28 37 35 35 40 33 34 24 20 24 22 24 20 24 26 24 23 24 25 25 27 28 30 32 37 42 49 53 59 68 69 61 52 43 44 50 57 61 60
20 19 22 24 29 30 38 32 39 45 39 27 28 22 24 22 28 24 30 33 33 30 30 30 36 37 39 42 41 37 41 51 58 64 61 52 54 48 50 62 68 66 63 58
35 20 21 26 29 34 41 42 41 41 47 44 39 36 26 26 29 32 31 35 36 38 40 40 42 46 48 47 43 44 50 53 52 52 50 53 54 62 75 69 61 58 55 52
16 16 23 27 38 43 44 41 44 38 48 44 40 37 26 28 33 37 39 40 43 44 44 45 47 50 54 52 52 57 61 61 59 62 59 60 76 85 74 61 57 58 58 60
23 21 25 34 48 52 56 49 47 44 42 36 44 43 31 34 33 34 40 45 48 48 50 52 53 57 62 64 66 70 70 67 65 67 64 66 86 81 78 75 63 66 73 63
47 37 35 48 48 59 55 53 53 78 46 40 41 42 27 26 30 35 39 44 48 54 59 53 56 64 71 71 73 77 77 69 67 75 72 92 91 93 76 92 80 85 60 67
61 50 47 48 58 57 64 60 61 59 60 61 42 40 35 32 30 33 41 45 57 54 56 58 60 67 73 72 72 72 77 79 82 86 97 97 96 96 96 92 84 69 64 78
74 72 55 54 56 65 65 66 66 65 84 71 36 37 35 39 42 44 46 58 58 65 66 64 64 64 66 67 68 71 80 88 92 97 97 96 96 96 95 94 89 93 80 67
72 82 69 54 64 72 73 73 64 63 65 67 66 45 41 39 42 39 46 52 62 80 78 62 64 70 76 75 73 70 73 85 93 97 97 96 96 95 94 96 93 78 70 52
76 78 88 71 67 53 53 73 69 68 64 73 85 72 50 37 36 38 53 68 75 79 64 74 85 82 74 72 80 83 82 88 95 97 96 96 95 94 95 92 85 63 52 38
90 99 87 60 57 54 59 68 77 82 88 90 93 65 41 47 52 56 64 71 80 76 76 87 98 78 71 68 74 82 98 96 96 96 95 95 95 95 97 88 67 60 43 34
74 87 97 73 62 71 80 81 83 90 97 90 84 61 35 33 45 62 69 77 78 82 88 85 71 74 69 71 79 95 99 96 95 95 96 95 95 97 81 74 73 51 37 25
78 79 91 89 92 94 96 91 69 94 84 98 41 70 47 42 61 73 79 70 79 76 91 79 78 74 76 79 84 100 97 94 94 96 96 96 94 82 80 82 64 36 30 17
96 93 95 88 87 100 99 68 52 90 88 86 82 70 43 69 75 79 85 86 92 92 87 86 88 86 82 90 97 98 100 97 97 99 96 94 90 89 90 78 39 30 17 14
94 95 100 97 98 96 96 46 49 50 70 66 78 58 74 72 80 84 81 98 89 86 93 95 89 84 84 96 100 99 96 98 98 95 92 100 97 93 89 66 29 19 12 15
68 77 96 99 99 95 56 47 52 62 60 56 70 76 78 83 84 94 79 81 91 100 98 92 91 88 94 98 97 96 97 96 94 93 98 96 96 88 88 36 23 13 14 25
67 73 89 96 94 73 69 56 57 64 66 65 78 85 84 93 92 72 84 99 97 98 94 93 91 96 99 97 97 97 96 94 93 97 96 99 97 92 34 26 14 14 31 34
75 80 92 97 98 82 61 66 67 66 79 94 93 94 97 98 98 88 100 87 98 96 90 86 87 98 98 97 97 96 95 94 100 98 92 95 75 30 28 16 14 37 38 34
86 90 95 88 99 95 69 70 66 89 82 90 98 96 90 95 99 98 86 98 99 84 81 83 98 91 94 99 96 94 94 97 97 92 93 55 30 31 18 18 37 43 37 45
92 98 98 98 97 90 66 69 81 90 92 85 83 90 88 85 98 87 98 98 89 83 80 83 90 95 98 94 87 86 91 93 96 99 50 31 30 22 24 42 45 41 47 57
99 90 86 89 79 75 80 85 94 88 93 94 97 90 94 97 92 99 97 82 78 84 92 95 96 98 92 84 85 85 88 96 76 38 34 30 24 28 48 47 42 45 55 75
98 98 90 86 86 96 98 90 84 80 95 95 97 98 98 88 99 96 73 76 79 89 100 96 95 90 86 85 81 77 70 46 40 37 33 28 33 48 50 45 42 44 75 82
98 96 99 98 87 68 91 95 94 93 86 93 95 98 98 98 85 73 72 78 81 98 98 96 94 93 91 79 68 58 45 42 38 31 28 37 49 49 46 41 35 59 86 90
97 100 99 74 65 84 76 98 100 92 92 89 91 88 84 81 77 77 85 83 83 97 96 95 95 90 76 69 55 46 42 34 28 28 38 48 50 49 43 38 31 76 96 92

GFSCGP_700_rhum_006.txt.gz
RH
23 33 28 29 30 28 25 26 25 26 26 28 29 29 26 21 20 20 21 23 25 29 30 30 36 36 24 23 24 29 32 32 34 38 39 40 43 48 52 54 61 59 65 65
25 33 31 16 28 28 22 24 29 30 31 32 30 28 25 22 22 21 27 32 32 28 28 34 38 29 28 29 30 33 41 43 44 46 46 47 49 51 55 57 62 64 62 55
23 38 20 22 28 30 25 35 36 37 37 27 28 20 22 22 26 24 29 30 36 32 34 34 33 34 35 35 38 40 41 45 49 48 50 55 57 58 59 62 67 60 64 61
30 30 14 30 29 31 30 34 29 43 41 35 32 24 19 22 24 29 34 38 39 43 42 36 38 37 41 37 35 36 42 45 50 54 51 51 59 62 64 64 65 68 80 81
40 35 18 29 34 28 37 34 42 40 38 38 30 25 20 22 22 25 30 33 37 34 33 33 36 37 40 42 47 46 47 50 55 57 57 57 55 59 68 68 66 66 73 73
26 23 15 21 16 40 41 44 36 35 38 44 32 31 26 22 24 25 29 34 38 35 41 46 43 54 56 59 59 56 55 57 61 66 69 68 66 64 69 72 69 61 57 59
33 33 37 34 36 40 46 47 47 52 52 51 32 34 30 27 26 29 30 32 34 46 56 63 64 73 75 66 66 72 70 69 66 70 67 76 75 73 75 76 71 69 78 85
42 37 39 46 44 48 52 52 53 68 54 51 43 34 26 26 27 29 32 35 46 56 62 61 72 87 85 81 77 79 86 89 84 91 92 88 83 87 86 82 80 88 93 96
58 44 48 49 48 45 51 52 58 57 56 63 53 39 34 30 30 34 45 49 50 52 64 75 83 88 88 88 84 86 78 63 59 61 73 88 94 94 91 88 95 97 96 96
66 67 57 57 60 56 57 61 60 64 89 64 41 45 41 36 38 40 48 51 54 62 69 79 82 89 88 80 73 74 76 63 61 65 69 72 82 87 93 97 97 96 95 96
71 79 66 66 56 57 54 55 58 59 59 70 76 52 46 46 47 54 56 64 64 73 82 84 90 92 88 81 74 74 75 63 52 51 68 66 75 88 97 98 96 96 96 96
84 79 88 69 59 58 55 59 59 60 74 67 73 71 55 53 51 55 56 59 64 68 85 85 84 88 80 74 71 78 69 64 50 58 60 67 83 94 97 96 96 95 95 96
67 80 78 56 56 63 64 61 60 61 62 73 94 74 62 60 60 58 60 66 72 76 79 82 82 87 88 74 72 66 63 59 58 63 74 85 93 98 98 97 98 97 96 95
67 76 83 80 75 74 74 70 64 63 67 68 68 66 62 58 58 62 68 81 77 81 87 93 81 77 79 76 69 72 64 61 60 75 90 89 92 94 96 97 94 97 96 94
77 84 88 86 84 87 88 82 68 66 64 64 64 62 57 55 56 63 67 74 91 90 83 62 78 86 77 69 67 64 55 66 81 98 93 98 93 91 99 94 96 96 94 95
91 95 93 88 88 93 84 74 59 64 67 66 64 61 54 57 61 68 90 94 87 76 69 75 92 84 68 78 68 49 72 98 98 92 93 98 100 100 96 98 96 94 86 65
97 98 97 94 87 90 87 58 63 70 62 61 60 57 60 62 76 90 80 81 70 88 96 90 83 78 77 59 53 58 96 99 98 96 98 97 97 96 96 95 94 92 91 36
90 89 91 98 94 94 60 61 51 66 69 70 64 59 68 76 75 74 74 90 85 89 88 83 75 76 67 57 55 67 96 99 97 97 97 96 94 94 95 98 99 92 34 23
86 93 95 99 96 82 87 56 65 63 71 67 90 84 92 86 81 71 95 90 97 94 79 77 65 64 60 62 62 90 97 98 100 98 95 96 89 95 99 97 57 29 24 20
67 72 80 85 98 90 69 62 73 83 85 77 89 89 99 90 98 91 96 90 90 89 73 62 57 59 65 65 73 89 92 91 98 94 86 81 92 96 66 35 26 22 22 36
87 89 83 83 100 88 68 73 92 93 96 95 98 99 92 94 97 90 90 85 95 75 53 56 59 69 69 74 89 96 98 97 98 85 96 91 64 42 29 22 21 26 37 39
84 93 98 98 98 90 75 81 94 96 95 99 90 92 92 96 99 97 97 89 81 53 50 58 72 77 78 96 98 98 97 89 97 100 87 54 35 20 20 21 27 37 40 37
97 82 87 91 83 66 72 80 95 93 96 94 98 98 100 92 93 90 63 59 53 50 57 68 82 80 96 100 98 97 95 96 84 62 37 25 16 20 21 28 36 38 38 35
98 81 90 97 62 70 76 81 88 80 100 96 98 94 94 96 76 64 49 57 53 59 65 80 83 100 99 97 96 96 90 72 46 32 18 16 18 19 23 35 41 38 36 33
98 100 97 93 67 86 84 85 89 95 95 98 100 85 80 80 58 46 45 50 54 68 81 83 96 99 97 96 92 73 58 39 26 18 17 18 20 24 29 44 46 42 33 26
98 92 100 79 85 94 70 64 95 97 98 99 92 92 65 48 42 43 47 59 70 78 84 97 100 97 94 86 75 55 35 24 20 19 18 21 25 29 39 54 52 52 31 20

GFSCGP_700_rhum_009.txt.gz
RH
21 35 27 12 25 27 22 23 26 27 22 25 21 26 24 27 22 21 21 22 23 26 28 24 28 38 40 38 30 31 33 34 38 41 43 46 47 46 48 49 54 57 58 61
25 30 34 19 27 26 16 30 32 26 22 32 30 20 20 27 24 22 14 13 16 18 20 24 27 30 34 33 36 38 40 43 43 44 46 50 52 51 52 56 60 62 64 66
26 34 30 13 29 28 16 34 32 28 32 26 28 20 20 24 24 21 18 20 20 19 20 22 28 30 31 34 38 39 44 46 50 53 53 54 56 57 57 61 66 68 70 72
30 33 25 21 31 32 19 21 26 32 42 41 38 36 24 23 22 23 26 30 31 30 26 29 33 37 38 41 46 48 45 49 52 51 55 59 56 61 67 66 68 71 70 70
37 22 20 16 20 26 34 40 28 35 37 40 34 34 24 24 24 26 31 35 35 38 33 38 43 42 47 53 53 51 55 52 54 54 54 58 67 67 68 69 73 75 74 74
33 32 29 33 28 41 44 44 26 35 37 46 40 34 31 27 28 29 34 34 35 37 40 48 50 54 60 63 60 62 65 62 56 53 54 53 64 72 80 75 82 83 86 91
38 33 36 38 38 33 38 43 51 51 62 65 36 30 22 34 30 29 30 32 35 44 48 54 59 68 76 78 75 73 72 68 64 64 81 88 96 96 90 96 99 98 94 95
48 45 45 48 48 42 53 53 60 74 83 65 42 42 33 35 32 47 48 51 48 53 58 65 73 80 82 80 78 80 74 75 64 54 60 69 75 84 98 100 100 100 100 98
54 49 46 55 52 56 52 60 59 59 56 66 54 42 29 39 40 39 56 56 59 64 66 82 78 81 84 83 83 78 79 71 58 56 61 58 54 52 64 78 97 100 98 97
68 65 58 57 56 58 59 58 60 59 93 84 56 48 44 40 40 39 57 59 63 68 71 74 77 82 84 75 70 83 66 61 61 62 60 56 53 55 72 88 100 99 97 97
77 77 49 45 56 62 60 53 61 69 72 90 98 68 52 44 51 58 57 58 75 72 72 78 81 90 88 87 85 61 61 63 55 59 53 53 42 53 77 93 97 97 99 98
72 65 77 48 55 61 58 68 63 71 85 76 79 79 52 51 58 55 62 75 67 69 76 78 78 79 83 87 64 66 68 60 56 51 50 39 46 66 84 97 99 97 96 94
67 72 68 46 58 60 64 58 52 73 71 74 81 71 60 61 60 63 62 64 70 70 71 75 80 80 75 67 71 81 66 59 59 49 40 42 58 83 87 93 94 95 88 88
76 73 69 68 67 86 84 83 59 78 91 85 82 76 64 64 64 62 59 60 63 64 68 76 78 64 68 70 66 62 62 56 45 46 47 64 78 89 89 84 85 87 92 97
83 81 83 82 91 85 85 86 64 78 72 84 69 75 66 68 65 65 67 65 56 64 71 76 75 74 75 66 60 57 46 41 49 78 100 95 94 91 88 89 93 99 95 95
86 93 91 83 70 82 90 54 51 64 70 63 66 69 67 71 65 63 67 65 71 79 80 92 88 82 70 59 46 41 49 56 72 100 99 98 96 98 100 98 96 95 95 94
63 89 94 96 88 97 88 45 62 67 66 66 71 79 85 79 88 92 88 90 85 82 95 80 75 68 52 45 42 50 55 65 71 100 98 97 98 98 97 94 87 91 84 52
64 63 93 97 96 97 57 55 50 62 70 64 61 70 79 85 85 82 91 78 85 85 75 75 61 52 43 44 54 52 59 67 86 99 97 98 98 92 82 81 80 60 30 19
75 87 95 92 100 82 71 59 68 72 72 78 86 92 94 80 81 69 74 86 98 89 71 55 44 40 49 52 55 61 71 77 89 87 85 82 80 81 78 70 44 22 18 20
60 65 76 81 98 88 58 69 75 86 76 84 98 90 94 97 97 93 99 99 90 72 50 42 46 50 49 69 72 76 86 88 85 86 95 100 92 99 72 35 17 19 20 22
72 74 75 70 99 81 52 92 82 79 85 95 100 98 94 99 98 98 96 73 68 53 39 44 46 49 57 70 76 94 95 97 96 96 97 98 100 61 26 17 20 21 21 32
77 79 91 93 98 86 73 58 72 88 89 100 86 94 96 94 98 98 87 73 47 34 33 36 38 51 66 75 92 99 97 97 97 96 86 74 39 18 17 19 19 22 30 39
93 80 75 79 72 64 61 70 71 87 86 74 89 96 100 100 97 96 83 44 38 39 35 33 38 61 74 94 100 98 97 95 89 74 46 27 17 18 19 19 21 26 45 46
96 91 90 91 74 63 70 65 68 76 83 79 87 98 96 96 94 77 45 37 32 34 35 51 66 78 88 99 98 96 94 88 63 37 22 20 19 20 23 26 34 48 57 54
99 99 86 98 84 83 82 83 95 96 91 96 90 93 89 94 84 54 49 32 35 48 63 84 86 98 99 94 93 91 69 50 28 22 24 24 27 32 33 42 44 65 66 58
97 88 100 95 89 98 90 100 100 99 98 95 94 89 96 90 66 36 30 39 49 72 89 95 100 98 97 96 95 90 61 33 28 28 30 31 39 40 49 46 50 75 68 52

GFSCGP_700_rhum_012.txt.gz
RH
24 31 31 18 23 27 24 22 27 29 28 21 24 25 23 24 26 25 22 18 22 22 23 25 25 21 26 30 33 36 41 42 44 45 47 49 52 51 52 58 61 62 60 60
24 26 32 24 30 30 28 18 30 19 22 31 29 20 20 20 25 24 22 15 20 23 22 20 23 27 29 31 32 38 42 42 46 48 51 50 50 48 47 54 64 67 70 70
24 32 32 15 20 26 29 21 22 30 31 35 36 24 24 25 26 25 23 20 20 20 23 25 29 34 39 39 39 45 50 49 52 54 49 44 44 45 46 52 59 72 76 78
21 29 26 15 27 28 21 30 29 30 37 40 41 42 26 24 24 25 26 25 28 32 35 38 39 41 46 49 52 54 58 55 56 55 49 46 45 46 48 49 59 70 80 86
32 26 32 31 31 41 34 30 28 29 39 42 36 38 31 29 29 27 28 30 34 38 41 42 49 54 59 61 65 66 66 67 65 65 58 52 45 47 52 55 58 65 82 90
43 37 32 36 39 39 43 37 30 32 39 48 44 41 34 36 33 33 37 40 40 42 49 53 55 63 69 67 63 65 69 71 75 82 69 52 48 48 48 53 59 66 80 82
40 37 39 44 43 38 44 41 51 50 65 62 38 37 42 38 43 43 45 51 50 50 62 65 67 70 72 75 71 70 85 95 96 94 76 55 54 53 56 58 65 84 98 97
47 47 49 51 48 57 56 56 61 76 84 64 40 42 43 38 42 47 58 61 61 61 65 70 70 72 73 76 86 95 98 96 93 70 63 61 52 49 61 59 62 66 78 100
48 46 50 50 51 59 59 56 60 61 62 72 53 43 35 39 36 45 47 62 58 63 70 73 72 73 79 86 89 96 93 89 87 64 65 66 54 52 52 46 44 51 70 96
56 57 48 49 51 60 60 59 61 70 82 88 65 56 49 46 42 44 56 59 55 64 68 70 69 72 75 85 91 90 91 78 61 62 63 54 54 50 43 42 51 73 98 99
64 63 41 46 61 63 57 67 69 70 74 95 97 73 53 49 64 64 60 58 60 66 68 66 67 76 81 84 83 78 69 65 63 57 51 50 48 38 40 54 73 90 99 99
62 60 61 53 60 60 61 63 74 90 82 85 88 77 55 70 58 71 70 74 72 68 64 62 69 74 78 71 68 69 70 67 58 45 32 27 30 42 54 87 97 98 98 97
68 70 59 49 64 58 56 59 64 83 90 86 91 66 51 66 74 77 78 74 69 68 69 71 69 59 68 67 69 61 59 50 36 28 25 29 38 54 82 95 98 97 96 95
70 64 66 66 67 80 68 41 62 76 88 85 84 80 61 78 83 82 76 70 71 73 74 75 72 64 74 67 60 53 40 28 26 27 34 40 54 92 88 93 94 94 92 88
67 84 78 77 87 82 70 71 63 71 64 96 64 74 72 74 82 85 83 85 86 79 82 86 85 68 66 56 47 34 28 28 33 43 50 73 86 97 98 97 98 98 100 98
64 80 89 39 60 76 58 50 55 66 65 63 69 72 73 77 81 94 91 88 87 81 64 68 77 69 56 41 29 28 30 34 42 48 61 78 99 97 98 97 99 98 96 93
56 59 89 89 84 75 73 53 54 60 56 74 84 81 75 84 97 97 93 90 78 74 83 85 72 52 34 27 25 26 28 37 48 62 77 99 98 97 96 96 94 81 46 33
51 67 87 97 82 98 47 53 58 64 64 67 67 68 74 92 97 81 76 98 90 85 88 78 62 33 30 29 32 38 42 58 67 72 84 88 85 80 70 65 71 57 35 17
72 82 90 92 98 77 66 58 61 73 76 66 85 85 88 83 66 68 89 98 100 98 95 66 40 28 23 29 35 44 76 78 81 91 88 85 85 94 96 99 80 35 15 15
57 61 75 74 98 92 57 63 71 90 71 70 74 88 87 93 92 93 86 99 99 95 69 41 60 32 23 30 40 66 83 99 94 95 95 98 100 98 77 56 26 16 16 15
67 73 77 77 84 78 54 66 81 82 80 86 87 89 80 94 100 98 98 97 93 78 78 63 32 25 33 46 66 86 97 100 99 95 97 95 80 58 32 20 17 17 18 20
76 84 86 84 95 84 66 80 93 91 97 96 76 70 84 98 100 98 96 88 85 61 31 26 24 30 46 65 85 100 97 99 94 91 83 66 43 24 20 19 20 24 28 29
93 80 80 81 76 74 79 90 88 96 96 84 81 92 86 96 97 89 93 65 38 28 23 20 25 47 65 76 89 95 95 90 91 84 62 37 23 23 22 25 29 35 38 38
97 85 98 97 69 80 84 79 88 90 90 89 99 99 99 95 90 77 60 41 37 22 16 21 53 74 86 95 100 98 100 97 93 65 30 23 24 29 34 38 44 51 46 50
98 100 98 85 84 82 79 98 91 98 90 88 100 97 93 86 78 63 38 21 19 30 41 63 90 97 98 97 96 96 97 82 52 30 27 26 34 47 50 50 57 59 61 72
96 85 100 96 97 98 91 100 99 96 100 98 97 98 96 85 48 26 24 26 31 44 60 81 99 98 97 96 96 95 85 56 36 32 30 28 33 39 46 57 68 70 83 77

GFSCGP_700_rhum_015.txt.gz
RH
24 29 35 29 26 22 24 27 18 28 23 20 29 23 20 21 21 23 24 22 18 20 24 27 29 26 30 38 43 44 43 51 55 49 50 49 44 41 40 40 45 48 48 53
24 26 30 35 22 25 29 29 21 16 27 33 34 25 21 23 26 26 23 22 15 18 25 28 24 29 35 37 39 41 42 52 63 61 57 57 56 50 49 41 45 51 56 59
24 29 30 24 24 27 26 23 26 33 33 41 33 26 27 26 26 24 26 23 24 24 28 33 34 41 47 51 51 48 55 66 70 72 68 66 65 58 52 44 42 47 55 59
23 27 33 24 33 34 28 31 31 33 38 41 36 36 31 28 28 28 28 28 33 37 38 40 45 54 57 61 61 63 66 67 68 67 72 72 75 67 61 55 50 45 52 60
35 30 32 34 39 39 35 29 33 32 40 41 39 37 38 36 34 33 32 36 42 44 45 47 54 60 62 63 66 66 68 72 76 74 75 74 82 71 64 53 51 46 46 59
41 38 34 38 44 40 38 32 32 36 44 47 47 44 42 39 40 38 42 47 49 50 52 57 62 63 66 70 71 76 79 79 72 74 80 79 77 71 54 57 57 50 46 52
39 37 40 45 46 46 51 32 40 48 65 63 44 43 48 53 56 55 56 53 57 62 63 65 66 72 73 74 78 82 85 88 88 84 86 87 78 62 67 64 55 50 50 49
41 45 49 50 51 58 58 51 55 62 85 69 43 47 50 46 45 61 61 62 62 60 63 69 73 75 75 78 83 86 89 91 92 84 78 71 64 61 56 52 51 52 50 47
45 40 46 57 53 58 60 60 60 62 65 76 55 48 50 50 47 57 58 58 57 62 66 73 75 76 79 83 83 81 82 85 80 68 63 64 63 55 43 37 38 41 42 44
56 52 45 43 49 62 62 62 63 64 83 83 64 51 44 48 55 52 55 61 61 65 74 77 76 72 72 76 79 82 78 71 65 64 55 51 44 32 26 26 29 38 54 73
52 54 42 50 56 58 61 63 72 71 77 94 98 68 53 51 63 68 62 58 60 68 74 73 71 71 76 79 75 67 62 61 58 50 44 35 24 20 19 25 36 64 84 90
57 50 47 50 60 60 69 75 70 71 79 80 83 73 56 64 62 65 62 62 64 69 75 77 80 86 92 92 93 82 70 58 45 29 16 14 15 15 19 32 53 92 97 96
58 61 56 62 66 60 54 51 58 77 84 83 86 68 55 63 70 70 73 76 78 86 91 91 97 94 87 79 74 66 53 32 17 17 16 14 18 23 40 54 77 96 99 96
55 56 62 60 55 52 46 52 58 81 99 92 83 83 73 76 73 77 86 87 89 90 93 96 94 78 79 78 64 51 29 19 22 24 18 16 26 43 63 95 99 95 97 97
63 52 48 59 81 72 55 60 46 64 62 100 70 69 57 71 79 84 85 90 98 95 79 68 77 85 82 68 53 24 32 34 34 26 19 27 47 94 99 96 97 100 98 99
63 62 51 44 52 58 47 44 52 44 49 58 61 57 67 69 90 99 100 100 94 74 69 72 96 100 90 74 62 59 40 30 24 21 36 64 76 100 99 98 98 98 96 93
54 56 83 76 64 70 53 47 48 60 58 61 71 68 69 82 77 63 58 70 72 70 85 88 100 99 91 79 51 37 27 22 29 52 77 88 90 87 89 90 84 81 84 70
44 57 76 93 85 95 44 52 54 57 51 60 68 65 73 67 68 65 79 82 80 100 100 100 99 85 50 37 30 24 25 40 62 84 97 100 98 93 94 98 99 86 62 40
59 72 81 90 87 78 64 54 57 58 63 64 70 60 75 89 81 70 91 96 98 98 93 90 60 44 34 23 22 23 40 62 91 100 97 97 94 96 97 92 67 39 25 19
57 58 68 79 99 96 58 64 69 73 86 77 76 94 100 96 93 92 93 94 98 91 61 51 43 37 22 18 27 46 65 82 100 99 98 96 92 93 87 50 26 20 18 18
62 68 73 78 95 81 57 63 68 81 76 95 98 98 98 100 100 100 99 99 88 76 48 35 20 12 13 24 46 70 95 100 97 95 90 89 86 68 39 24 22 21 22 26
75 80 86 84 91 84 62 68 77 88 98 98 98 89 87 88 87 98 96 90 58 38 17 10 8 10 32 51 63 80 87 91 90 100 98 89 67 37 27 25 24 30 36 38
93 76 82 85 79 81 85 95 97 98 95 87 92 89 98 100 93 95 88 38 18 11 9 11 14 25 51 70 98 99 97 98 97 98 95 84 45 30 29 24 26 34 44 48
97 88 98 96 82 73 93 92 98 96 74 99 100 90 77 100 97 78 38 17 12 12 15 30 36 50 69 96 100 100 98 98 95 91 64 38 32 30 26 26 28 36 49 68
93 100 98 98 85 88 89 76 98 83 98 97 79 98 98 93 69 47 26 13 13 18 31 54 59 70 81 94 95 91 86 81 70 62 44 37 36 31 27 27 38 59 84 83
85 88 99 97 93 99 95 98 98 98 85 93 98 98 95 73 44 20 16 14 16 22 37 71 79 77 78 78 80 76 63 67 53 41 39 34 31 24 27 43 64 99 96 93

GFSCGP_700_rhum_021.txt.gz
RH
24 23 26 30 22 15 18 21 23 21 21 20 29 29 25 24 25 26 25 24 23 18 27 32 34 33 31 32 35 42 48 52 51 60 66 66 65 70 70 68 69 75 75 74
24 24 29 28 18 22 28 26 25 26 27 24 35 30 28 28 27 26 25 25 20 20 28 32 32 32 35 46 57 63 62 63 68 64 62 66 71 74 80 83 81 81 76 73
21 28 28 23 24 30 31 28 29 30 28 31 36 33 29 28 28 30 29 28 31 34 38 39 42 45 48 54 59 64 68 70 70 74 77 80 84 85 87 87 88 81 73 70
26 29 33 30 30 33 29 30 32 34 38 39 36 34 36 32 33 34 33 37 42 45 46 47 48 50 60 63 66 70 74 76 77 77 79 82 85 88 83 86 85 70 61 52
28 29 34 34 36 37 35 35 36 34 40 41 44 39 48 38 36 36 37 40 44 49 52 54 56 63 65 65 67 70 74 76 78 80 83 85 89 90 92 90 71 61 56 49
38 39 37 36 43 42 39 38 41 47 50 50 49 46 54 48 42 43 47 48 51 55 58 59 62 63 64 67 66 68 72 76 80 84 89 88 92 91 71 79 75 61 46 30
38 38 39 43 43 43 44 35 39 47 54 52 48 47 63 57 52 56 60 62 60 58 56 58 62 67 70 72 69 69 72 88 98 92 94 96 89 90 79 61 44 31 28 29
37 42 43 46 46 47 54 46 46 50 60 60 53 58 68 58 60 66 61 59 61 59 60 64 66 73 74 76 73 77 88 89 94 92 85 90 92 68 49 32 33 39 35 32
42 41 49 42 44 52 58 54 55 60 70 72 54 62 65 60 59 64 64 63 59 58 60 61 68 79 83 84 91 91 89 87 75 75 86 82 62 40 35 46 46 41 28 22
43 45 50 46 58 62 61 61 61 58 73 67 56 60 52 58 69 70 61 58 54 54 63 73 84 88 90 91 91 94 82 77 85 87 86 77 67 59 53 38 31 26 20 17
34 34 40 35 52 63 67 67 67 67 76 83 89 58 48 58 58 62 62 58 61 72 82 87 88 91 94 96 90 74 71 72 80 86 81 73 55 40 34 29 23 17 17 30
32 26 31 31 54 67 69 71 68 54 66 72 83 61 41 45 55 67 62 58 61 60 61 61 60 56 56 56 63 67 59 68 88 75 51 36 31 28 21 14 13 23 50 75
37 34 30 33 64 69 69 68 61 68 84 82 81 52 46 48 58 69 60 64 59 72 71 58 58 59 57 57 51 64 83 82 54 33 24 20 15 12 13 24 43 64 81 99
34 34 34 33 32 38 42 42 59 82 96 80 68 60 37 50 62 62 70 71 76 76 69 66 63 61 62 61 68 70 53 35 24 18 12 9 8 14 38 64 70 73 80 90
38 39 43 41 36 37 37 41 49 60 57 94 45 58 45 62 66 65 71 74 74 75 74 71 67 60 72 79 57 33 29 25 16 10 8 8 16 49 71 75 85 91 91 92
42 50 47 42 41 42 41 36 47 53 51 58 62 54 56 57 63 70 80 85 90 90 79 76 69 67 83 58 41 31 17 10 6 7 10 24 62 82 100 98 95 97 97 94
44 48 53 51 52 51 46 42 42 44 50 54 55 53 60 63 71 82 79 81 83 85 76 69 79 75 58 42 24 13 7 6 8 16 31 65 68 76 88 92 89 81 76 63
40 51 63 66 61 80 42 52 55 60 51 55 59 64 64 67 73 67 76 86 82 85 84 98 86 63 38 27 15 7 7 11 23 36 61 90 92 88 88 90 89 89 77 46
44 51 66 85 98 74 59 56 59 67 67 62 66 66 65 67 77 86 96 98 99 99 97 85 46 22 14 11 8 8 13 30 40 59 80 90 92 98 100 100 92 71 41 32
51 56 68 98 99 92 56 59 65 68 76 74 80 91 94 96 96 91 99 98 98 87 64 38 20 17 14 10 9 10 22 47 53 67 96 97 99 100 94 67 38 33 33 30
60 65 70 86 99 83 65 69 72 88 91 97 98 99 100 98 96 100 98 98 93 79 52 35 18 17 16 11 10 14 38 58 61 68 89 93 81 55 41 34 33 31 29 26
70 74 79 93 93 80 74 83 95 97 98 98 99 99 97 93 99 98 94 93 81 68 36 26 22 19 18 14 13 24 52 66 71 75 74 55 38 33 32 33 32 25 20 28
80 74 87 96 86 79 83 97 97 100 95 93 94 90 99 97 99 97 90 95 61 46 59 31 19 20 20 19 25 51 81 81 80 78 53 32 32 34 35 31 20 26 43 50
76 88 98 100 70 85 85 88 76 83 100 100 98 90 92 94 96 87 96 85 84 82 47 30 20 21 23 25 42 97 99 93 86 58 32 32 34 32 27 21 36 49 65 72
75 99 95 88 75 90 78 78 98 89 99 95 94 83 100 98 77 87 77 61 55 40 31 25 25 25 25 30 62 100 100 96 80 35 32 28 27 24 22 40 53 72 78 74
81 84 94 93 82 99 88 99 100 98 95 81 87 99 87 84 83 80 63 58 37 29 28 27 28 27 28 36 84 100 100 97 52 32 26 21 21 21 40 48 68 82 83 88

GFSCGP_700_rhum_024.txt.gz
RH
22 25 27 24 18 13 13 23 27 28 19 25 40 34 28 29 28 26 25 24 23 23 30 32 32 34 35 35 38 44 44 46 54 54 59 68 63 63 65 65 65 62 69 74
22 26 24 23 16 19 28 31 30 30 25 28 40 34 29 27 26 25 24 23 22 27 31 33 34 34 34 36 43 51 56 60 62 62 70 68 73 77 79 82 84 86 86 90
27 25 23 21 22 34 34 37 42 40 37 28 39 37 36 28 28 29 28 28 30 30 32 35 36 38 41 46 51 56 60 65 68 70 73 75 77 78 80 85 89 90 90 90
25 27 30 30 32 33 36 32 33 37 42 26 33 26 40 40 37 34 33 34 36 38 40 42 44 48 51 56 61 64 66 67 68 71 72 73 75 79 82 83 85 90 93 80
26 28 31 44 36 36 48 32 34 33 46 42 38 30 44 43 51 53 37 41 44 46 52 56 58 59 62 65 64 64 65 66 68 70 72 74 79 95 96 93 75 72 70 62
30 36 37 36 38 37 35 35 36 46 53 41 47 41 39 45 60 65 45 46 48 55 58 57 56 60 63 65 68 70 69 68 70 73 76 88 85 77 67 62 65 66 60 53
40 39 37 39 48 41 53 49 36 45 45 37 51 43 54 66 53 54 53 56 59 59 58 58 58 61 63 68 71 73 77 77 78 83 86 76 71 67 69 71 72 62 54 52
43 44 47 43 40 45 54 53 50 48 38 36 49 36 54 62 53 54 61 61 60 60 56 49 48 54 58 65 75 80 79 79 87 87 77 61 60 72 72 69 61 50 37 35
52 47 44 41 40 45 62 62 51 65 58 61 41 56 66 56 57 61 64 64 61 57 52 46 64 78 81 81 81 77 66 54 52 53 56 59 67 67 54 33 24 23 24 23
31 56 48 42 42 54 58 56 63 61 77 48 28 41 37 50 70 65 70 67 61 57 52 54 62 59 58 58 56 51 49 51 49 45 51 65 66 46 31 27 24 21 14 10
25 27 49 35 53 63 67 69 65 65 67 60 55 31 44 60 64 63 62 62 64 59 62 60 60 64 59 55 53 51 51 48 48 58 59 45 32 27 23 17 11 9 12 32
24 19 42 44 34 54 63 71 68 63 60 71 65 46 46 50 48 51 60 59 60 67 78 70 68 72 70 65 56 55 56 58 52 35 31 27 22 16 11 8 13 34 60 68
26 34 40 44 62 58 73 72 60 61 61 66 73 47 51 53 58 75 62 57 64 71 72 75 77 80 79 68 61 62 59 43 35 25 20 14 10 7 8 14 40 61 68 77
26 28 37 34 35 44 51 56 67 73 84 64 58 54 53 56 61 75 70 56 72 80 88 88 85 82 79 75 70 61 50 38 30 21 11 6 6 9 19 45 58 69 100 100
33 32 36 37 35 40 68 52 65 70 73 75 64 56 57 63 71 66 57 67 74 82 94 95 90 96 86 82 73 58 49 25 9 6 6 7 13 29 63 82 99 98 98 100
37 44 37 36 35 36 45 46 70 76 76 77 75 75 72 67 59 59 64 72 82 92 89 84 96 95 91 70 57 28 9 7 6 7 9 20 37 62 76 85 82 83 85 84
42 44 48 50 43 46 60 45 48 54 65 81 74 67 76 77 91 85 81 83 93 91 90 100 99 88 57 40 21 11 8 8 8 11 25 46 60 78 88 90 94 95 94 82
43 48 60 62 58 82 62 52 58 56 55 69 73 77 71 71 89 85 96 100 87 81 99 100 94 89 56 22 13 12 10 9 9 19 47 59 68 90 96 95 97 80 44 30
45 48 60 79 94 71 55 59 63 71 66 68 67 67 67 91 100 100 97 81 67 91 100 95 75 60 39 27 19 15 13 12 15 38 58 66 74 91 84 59 33 29 30 30
47 54 65 79 92 77 62 71 66 68 76 78 82 82 86 93 92 96 92 88 99 97 91 85 38 35 35 28 21 18 18 17 25 52 67 71 73 69 45 29 28 28 26 17
54 62 68 96 99 87 78 71 76 92 92 92 97 98 99 89 97 97 94 99 98 91 92 59 65 69 46 28 21 23 24 24 36 72 82 82 72 41 31 30 24 18 15 20
63 71 72 79 94 97 71 80 98 98 96 99 95 99 100 98 97 89 96 91 88 88 74 66 52 38 29 25 24 26 30 36 54 86 90 86 48 33 30 25 17 17 28 35
87 74 82 82 76 83 92 91 97 92 92 96 99 98 98 90 77 89 86 82 73 62 58 49 39 34 27 26 30 31 34 42 65 93 90 72 36 31 25 19 19 31 43 60
94 89 90 88 72 100 99 92 84 98 100 94 100 99 84 68 99 84 67 81 72 54 50 44 36 30 29 32 33 35 38 48 88 98 94 48 34 26 20 21 35 50 61 62
94 100 100 98 88 94 100 97 89 88 95 97 98 73 59 89 96 90 78 63 53 41 33 28 30 31 30 32 38 44 52 66 99 98 83 37 24 19 20 35 50 61 65 68
94 99 100 97 100 99 95 76 90 93 98 92 51 54 93 97 91 86 73 48 34 25 23 24 25 26 28 34 48 53 74 98 99 98 58 28 18 21 36 46 50 56 66 77

GFSCGP_700_rhum_027.txt.gz
RH
27 24 20 22 23 21 17 16 18 21 27 24 27 26 31 34 32 34 34 37 40 48 56 57 40 32 34 35 40 38 40 42 45 54 58 60 56 69 70 72 75 76 78 79
20 23 30 26 25 22 23 24 23 27 30 20 30 27 32 36 40 40 40 43 47 30 27 31 33 34 38 35 35 40 46 51 54 60 60 60 62 70 72 73 76 77 79 85
22 30 21 25 29 27 28 28 33 32 32 32 30 28 33 37 40 43 45 50 52 55 41 33 35 36 37 44 50 53 55 58 59 63 64 65 66 70 70 72 77 83 95 91
28 20 32 32 34 34 30 38 40 38 34 25 31 22 32 36 42 50 60 66 65 61 39 40 42 45 49 54 54 56 60 62 63 65 64 64 65 68 70 75 83 78 70 65
32 33 36 36 42 31 39 27 42 41 36 28 28 22 32 35 42 53 66 72 43 42 44 48 53 54 54 53 55 60 64 64 65 65 66 67 69 73 80 88 73 62 50 58
34 28 44 46 44 34 33 47 41 43 36 33 25 28 33 34 41 57 71 68 44 46 48 53 56 55 52 50 54 60 68 74 74 73 74 69 75 82 79 60 49 54 61 56
38 42 48 34 43 48 43 39 35 38 38 36 38 33 40 53 58 62 73 74 49 53 57 58 57 54 49 41 50 61 72 74 80 75 73 70 59 46 45 48 56 60 51 40
34 44 47 41 44 46 47 44 46 45 37 29 39 26 42 58 63 58 67 63 55 60 58 59 56 45 39 48 54 45 44 46 46 45 45 45 41 41 47 59 62 51 32 23
39 41 47 36 43 43 50 50 51 49 58 49 26 41 54 54 65 70 74 74 79 66 62 65 60 48 45 46 53 53 56 59 52 46 45 43 44 45 43 34 24 22 21 19
37 47 49 43 28 55 44 48 52 52 69 43 21 25 27 60 66 71 72 76 83 73 84 92 68 58 57 60 61 64 69 67 55 51 50 47 45 34 27 27 18 13 9 8
41 42 46 39 47 39 44 50 55 49 49 50 43 29 44 47 50 55 67 76 82 91 95 96 96 95 97 100 91 77 74 65 62 58 50 43 30 26 23 12 6 8 10 15
18 44 43 34 41 28 55 52 50 51 45 52 61 50 49 47 58 63 65 80 93 92 92 91 98 100 99 100 86 79 74 70 62 52 42 35 26 11 6 6 6 10 27 47
23 56 40 34 56 66 56 52 56 58 68 54 57 49 50 56 68 75 82 82 86 89 92 96 97 98 100 99 87 85 78 66 56 47 28 10 8 7 6 7 12 32 60 80
25 56 45 39 37 40 43 45 43 47 59 62 54 46 43 47 60 63 63 75 86 90 93 98 100 100 95 93 94 85 64 53 32 13 10 11 11 8 11 20 39 79 94 97
34 65 54 52 44 42 42 47 49 50 50 55 55 53 52 58 67 71 75 90 90 93 96 96 96 83 100 100 89 69 53 32 19 17 14 11 9 9 16 47 74 84 81 84
36 74 37 35 52 42 43 48 50 49 55 57 57 58 65 70 68 73 84 89 97 98 100 92 84 96 100 96 86 67 49 26 18 16 13 11 11 20 42 55 79 92 97 100
52 40 45 47 37 35 52 53 50 54 58 61 65 66 64 67 82 88 88 89 95 97 98 85 90 100 95 88 74 49 31 26 24 21 18 14 15 33 57 76 83 92 91 36
40 45 52 51 53 80 47 51 55 57 60 62 62 66 76 84 98 91 84 85 91 94 86 81 99 93 90 62 48 58 48 35 25 44 47 26 27 45 66 95 100 92 28 27
44 51 50 67 75 58 60 65 66 71 70 73 80 91 92 95 99 99 97 95 86 75 66 83 89 78 61 66 59 42 34 28 46 71 99 38 46 80 82 100 62 27 25 18
41 47 60 80 98 74 54 65 85 73 75 97 100 100 97 98 92 89 92 83 66 57 83 82 72 89 99 100 98 68 66 92 100 100 97 83 100 100 100 64 29 23 24 38
47 56 64 99 99 79 70 80 66 85 94 93 91 93 98 91 95 93 84 56 64 75 95 93 90 92 94 97 99 100 100 99 99 100 96 89 100 100 89 33 23 36 69 29
68 74 70 85 99 92 81 80 96 97 83 90 100 97 97 96 92 68 52 88 82 94 89 91 90 71 78 89 92 93 99 97 99 93 97 98 100 99 68 26 41 81 45 45
73 79 89 94 83 82 87 98 92 93 93 91 95 96 90 95 60 54 83 97 92 84 78 57 39 43 60 86 91 91 98 91 99 100 85 100 99 98 45 21 39 39 43 46
68 81 87 97 85 90 98 99 91 93 100 80 90 99 89 53 51 74 83 83 79 61 36 54 72 81 91 94 92 88 97 79 96 86 77 100 98 94 27 16 30 41 45 51
53 83 93 92 98 93 93 90 98 96 78 90 88 87 50 44 74 85 81 69 50 43 48 36 76 95 95 94 93 90 98 90 91 63 91 98 98 57 16 29 35 39 49 54
41 81 95 94 96 87 98 98 94 79 89 92 79 50 56 55 68 72 60 44 55 42 28 89 94 94 98 100 98 62 70 80 76 96 99 98 91 21 27 33 34 42 47 55

GFSCGP_700_rhum_030.txt.gz
RH
26 25 24 22 21 18 16 14 14 17 23 22 19 22 26 30 30 32 33 34 35 37 42 54 69 72 65 52 63 42 40 47 50 47 49 48 54 66 66 60 64 72 74 81
20 22 27 24 16 18 18 20 20 23 25 18 26 24 29 34 37 38 41 45 45 45 46 53 60 66 72 53 47 39 37 47 52 54 59 60 61 63 62 61 65 80 75 74
28 30 17 11 24 23 22 24 32 30 29 28 26 26 30 36 40 43 47 52 55 49 37 37 40 40 37 38 42 48 52 52 54 61 62 63 63 63 63 65 69 77 82 88
28 29 26 27 29 29 26 38 36 32 31 26 26 24 30 35 41 48 56 57 57 61 54 33 35 38 42 49 54 52 52 53 56 62 63 62 64 67 69 74 80 82 80 70
30 30 31 32 39 25 36 37 26 37 35 32 25 30 26 34 40 56 66 72 71 73 59 46 44 46 50 53 51 44 45 52 55 57 64 67 66 70 74 69 64 52 38 35
33 29 39 43 29 33 26 42 39 39 36 39 30 24 31 34 38 54 68 76 78 64 51 50 52 58 54 53 48 38 36 48 60 56 42 38 37 37 35 36 37 37 37 40
35 38 45 28 40 43 39 38 40 50 48 48 35 31 39 40 45 54 70 73 73 70 61 65 63 63 66 61 47 38 40 40 41 43 52 55 54 48 44 44 43 40 38 35
32 43 43 43 38 41 43 39 44 55 64 50 36 28 50 48 43 49 58 72 61 82 77 84 86 86 74 66 47 46 48 53 54 54 58 60 54 50 47 45 40 37 35 36
34 42 31 30 34 37 44 50 44 41 48 59 31 40 54 60 64 64 71 74 81 87 84 86 97 98 68 48 49 49 50 58 60 58 61 60 58 51 44 41 38 36 23 10
39 45 44 38 40 53 40 40 43 52 69 51 27 29 53 58 63 67 65 72 79 83 86 92 95 91 73 66 70 76 68 69 68 72 69 65 53 48 44 37 23 11 10 9
34 44 45 40 43 36 41 42 46 42 41 53 57 37 39 44 54 56 64 67 71 80 73 80 78 70 82 80 90 96 97 82 81 80 72 58 50 40 21 12 12 11 9 10
18 46 44 33 30 30 47 49 48 50 52 57 56 55 42 47 52 59 65 72 80 90 94 85 96 99 87 97 92 99 98 84 89 74 58 50 31 15 19 18 15 9 9 10
20 52 44 43 54 52 40 41 42 49 56 64 67 47 44 48 60 71 78 84 80 96 96 95 97 88 87 91 95 92 80 94 82 66 60 36 19 26 30 22 14 10 13 26
22 53 45 42 36 37 35 35 37 40 43 53 57 55 51 50 67 78 75 73 74 75 88 90 92 91 88 97 84 77 94 92 77 67 43 31 30 38 31 21 13 13 25 54
23 47 53 50 42 41 37 35 36 38 44 46 48 48 52 67 68 68 75 78 83 82 79 72 80 89 99 82 71 100 94 68 60 52 44 39 36 32 26 23 18 27 49 63
32 56 36 22 46 47 33 38 50 44 47 45 51 55 59 63 66 74 74 65 71 73 70 74 78 78 64 68 94 76 59 55 59 45 47 62 94 62 45 32 47 62 88 88
61 37 38 36 35 31 53 56 51 50 53 57 61 60 62 80 83 78 73 72 78 70 76 75 69 58 78 84 97 64 67 82 77 63 77 99 92 86 77 49 82 92 95 80
42 36 38 38 41 72 45 45 56 57 57 61 62 64 93 100 98 79 74 87 90 90 94 60 50 64 82 94 72 76 98 95 82 75 80 88 88 80 74 70 100 100 93 36
58 37 39 47 80 55 56 62 67 65 62 73 80 89 86 78 77 86 94 86 88 77 50 46 55 76 72 88 96 84 84 95 98 89 98 99 98 86 80 78 100 97 74 26
38 41 50 70 96 75 52 62 73 63 70 93 84 91 90 75 94 84 73 80 76 51 43 58 92 96 96 97 89 91 99 100 100 91 97 67 94 97 92 78 96 98 53 30
41 47 58 100 94 87 66 77 68 76 91 88 87 85 81 82 76 75 82 63 39 70 94 90 87 82 79 66 56 69 75 89 84 83 97 80 61 97 81 74 98 95 30 27
55 65 66 88 96 88 82 87 93 91 90 86 96 100 95 71 76 80 58 37 64 76 73 72 65 52 57 56 73 87 96 89 81 79 63 96 85 93 69 95 98 66 26 32
63 62 72 82 61 77 97 98 98 86 90 98 94 100 87 81 79 54 38 48 64 59 48 34 40 38 36 64 100 98 93 93 77 64 66 79 83 68 86 96 95 25 29 35
59 59 68 76 66 81 93 84 84 84 97 97 97 84 80 72 54 44 43 51 49 34 27 69 34 32 68 93 88 82 90 76 77 74 83 96 82 89 98 96 37 29 35 40
54 63 53 59 71 88 93 92 90 96 99 93 82 84 69 48 37 37 34 23 17 19 29 23 29 69 65 79 62 64 80 70 77 80 72 82 77 86 96 50 32 32 38 46
27 37 61 84 92 81 92 87 75 99 89 90 85 72 53 39 40 28 19 16 17 18 21 25 28 29 30 50 61 70 71 84 88 84 76 87 82 99 58 28 32 34 38 48

GFSCGP_700_rhum_033.txt.gz
RH
23 27 27 22 21 17 16 16 17 24 23 21 18 25 26 30 30 30 32 29 28 31 37 52 58 63 69 65 59 69 77 75 64 54 54 55 57 67 83 96 98 100 88 68
29 26 28 24 18 12 18 20 26 25 27 20 25 26 26 30 31 34 32 32 34 34 35 39 58 63 66 58 60 68 56 44 50 53 53 56 62 65 72 72 71 67 67 70
23 29 19 20 22 14 27 24 29 29 29 29 19 28 29 33 35 38 40 36 33 34 37 46 56 57 62 55 41 38 44 52 50 46 45 56 62 63 65 68 74 80 82 86
28 26 21 19 28 23 32 31 28 27 25 32 29 29 31 33 38 45 50 48 44 39 38 42 42 38 35 36 42 50 52 48 40 34 42 55 62 68 69 64 58 57 54 46
29 28 33 32 35 33 37 34 25 23 24 36 24 31 32 37 43 48 49 52 51 49 43 42 38 41 44 49 55 55 49 42 38 33 35 38 38 38 40 46 50 49 46 41
31 32 32 38 30 32 35 38 39 39 40 45 45 40 37 38 43 50 52 55 57 65 64 50 45 45 46 50 52 47 50 44 46 50 53 54 52 52 53 55 54 52 49 44
37 39 34 27 41 43 40 38 46 49 65 59 42 48 54 43 40 45 49 60 60 55 66 78 74 75 64 44 41 41 41 42 48 51 56 55 58 64 66 62 59 56 47 40
39 44 44 26 37 39 40 43 50 60 81 61 24 51 63 56 58 65 70 70 66 68 74 79 62 51 50 60 61 51 56 54 50 48 48 52 62 72 69 67 56 47 42 30
43 47 37 25 15 36 35 52 46 34 52 59 42 57 58 56 57 64 75 66 73 84 81 80 79 73 61 50 50 58 55 58 58 59 68 73 68 75 68 55 48 43 25 20
50 46 44 39 45 38 46 35 40 49 67 62 45 52 54 62 60 65 70 77 91 95 88 90 92 81 74 71 75 78 77 82 85 82 84 84 77 65 58 53 43 20 22 30
45 46 36 42 37 29 43 45 46 44 44 64 82 47 45 54 67 66 74 78 77 79 78 80 82 89 90 88 86 77 86 94 94 74 86 89 72 64 60 49 29 24 32 27
24 41 36 38 38 34 36 45 48 52 51 55 57 53 48 49 48 59 72 74 78 87 84 90 92 86 96 93 92 98 100 99 92 78 92 88 64 57 50 44 42 40 31 26
22 33 43 44 51 42 36 38 38 40 47 50 61 48 40 53 67 64 79 76 74 69 66 76 80 90 97 97 100 100 97 84 65 84 86 60 47 42 38 31 28 41 44 28
22 26 37 43 42 40 37 36 35 36 40 45 50 49 47 58 68 76 77 76 77 82 81 87 93 84 70 88 93 73 59 53 80 68 51 45 42 40 36 35 50 79 40 30
21 28 38 42 36 29 35 32 30 33 37 44 46 47 58 68 69 72 71 77 80 81 77 73 69 58 65 68 65 46 41 52 45 45 52 60 63 57 50 46 82 75 53 33
18 23 29 19 25 37 27 39 49 49 49 50 54 55 59 63 68 69 71 77 76 63 56 61 65 67 65 51 40 35 44 52 76 81 98 100 98 96 97 85 86 94 74 38
20 23 20 21 27 27 57 56 52 48 50 52 57 62 62 67 66 68 74 72 68 64 52 60 66 59 42 34 42 75 100 96 88 74 92 98 94 83 94 91 98 97 72 66
25 25 24 28 31 54 48 47 51 52 57 58 64 64 66 76 78 80 75 74 74 61 56 60 40 33 53 87 95 92 92 94 93 98 90 90 92 90 100 97 93 94 61 72
24 28 33 36 43 32 45 62 59 57 61 53 57 67 71 83 85 77 74 68 57 64 52 34 29 59 57 70 78 86 83 73 54 45 54 64 70 96 93 97 96 97 81 98
26 33 41 47 50 77 62 66 65 71 64 57 68 76 78 81 84 85 82 64 64 55 33 23 27 30 49 50 47 38 20 27 54 70 81 78 68 79 94 97 95 60 66 91
43 38 42 63 69 43 42 52 50 73 62 65 71 77 85 87 86 85 73 72 54 29 27 23 21 23 20 16 15 24 23 47 77 85 82 80 78 78 93 96 71 88 99 88
43 43 48 69 95 73 58 68 72 75 80 81 86 81 93 93 91 75 67 49 31 25 21 17 18 14 14 18 19 29 65 77 67 73 75 72 65 74 97 80 86 100 96 65
62 41 53 55 41 51 64 75 78 81 83 86 94 89 100 98 80 71 55 35 26 21 15 13 13 13 14 14 24 44 60 57 61 66 68 74 64 73 80 79 93 98 60 28
54 59 68 77 76 79 73 79 80 85 92 98 88 94 95 83 69 54 36 26 21 15 12 12 12 12 12 20 28 42 54 58 67 64 72 73 73 58 77 84 90 60 27 29
25 28 34 51 62 61 57 67 85 86 99 96 83 92 84 71 56 36 27 21 14 12 12 12 12 14 18 24 33 47 54 56 62 65 71 83 82 76 78 79 28 25 29 32
22 29 47 48 41 49 64 90 90 93 98 97 95 84 76 60 40 30 22 15 12 11 13 13 16 17 20 33 43 50 56 56 58 67 84 80 77 78 52 22 27 28 30 32

GFSCGP_700_rhum_036.txt.gz
RH
21 26 28 26 24 18 19 21 22 25 23 21 19 25 29 29 28 28 27 27 26 32 46 60 69 69 72 74 77 78 79 79 82 82 63 62 69 70 74 82 84 92 98 100
33 31 24 22 20 16 25 22 24 24 28 20 26 28 29 29 29 29 29 29 30 31 36 53 66 64 59 65 64 64 67 68 59 56 55 54 58 64 70 93 95 96 94 87
30 26 24 24 21 18 26 30 28 30 29 25 27 33 36 36 34 34 34 33 34 38 42 54 54 53 55 58 62 60 50 53 54 50 45 39 37 50 68 75 76 73 65 60
27 26 20 24 26 27 31 32 34 32 28 20 26 34 44 41 39 40 35 33 30 34 42 47 48 51 51 45 39 42 48 52 53 52 43 38 41 46 49 50 52 56 59 60
27 24 28 31 33 34 23 26 24 25 34 35 34 38 42 48 42 40 40 39 34 37 39 41 42 40 37 38 41 46 51 46 33 31 33 37 41 46 43 41 39 43 51 57
29 32 30 37 33 35 37 31 35 39 43 47 51 45 43 49 41 43 44 43 45 51 52 40 42 40 34 30 31 32 33 34 36 40 42 48 57 55 47 51 53 55 60 64
30 38 26 29 39 41 35 39 45 52 66 62 42 50 52 48 45 46 44 56 67 67 57 43 38 34 48 46 37 40 41 44 50 52 56 63 68 69 58 61 70 71 63 54
40 45 42 29 40 43 42 45 49 58 74 52 48 65 61 56 57 63 71 75 88 87 82 68 72 73 75 73 65 67 71 64 62 71 73 76 86 83 67 78 74 63 57 50
46 44 39 22 24 46 42 49 46 41 58 57 58 65 66 66 70 76 77 83 72 92 90 94 90 92 96 98 96 92 84 88 93 91 97 90 93 74 77 84 72 66 61 50
45 46 39 40 33 37 34 35 47 46 63 61 52 60 61 61 64 69 73 80 90 89 89 99 95 96 94 88 92 94 93 96 98 98 94 97 68 80 97 87 67 55 50 47
46 31 36 38 34 28 38 47 46 45 51 67 82 52 48 58 64 70 82 88 98 98 98 99 94 92 91 94 93 98 98 81 86 100 88 70 80 80 61 48 39 37 34 38
46 35 40 36 38 30 30 41 33 31 45 53 57 51 56 53 61 72 78 82 78 93 95 97 100 99 88 85 90 84 65 83 90 59 53 62 49 41 46 48 40 43 43 52
33 38 40 43 48 37 40 47 38 39 42 44 52 45 48 61 54 56 69 71 80 85 86 87 89 90 97 92 76 61 65 67 56 40 30 28 38 46 65 64 62 63 69 66
24 37 38 37 40 37 36 35 35 36 38 42 47 45 47 58 60 65 68 70 76 77 81 86 91 75 55 45 44 52 51 42 28 24 35 51 61 60 51 80 75 85 91 97
22 25 33 38 42 43 37 25 32 31 31 39 46 51 58 59 63 67 70 74 80 82 83 83 76 63 58 44 43 36 26 18 20 27 62 81 85 84 87 84 92 79 98 98
19 22 26 32 25 15 26 27 38 41 49 51 54 57 64 69 70 74 76 81 79 78 76 57 63 60 50 46 32 16 14 20 64 95 94 96 94 76 66 83 95 90 77 98
16 16 22 15 16 33 26 33 48 50 47 49 51 54 58 72 78 77 73 74 77 68 67 68 56 53 48 23 14 15 48 88 96 92 82 64 46 43 62 86 78 73 88 95
20 22 20 22 26 37 42 36 40 44 48 51 58 62 66 73 73 71 73 78 78 78 77 66 56 42 20 14 24 53 71 62 35 14 15 17 31 74 95 90 67 70 98 96
21 27 24 29 32 30 28 37 49 59 52 48 50 53 59 68 73 82 90 91 93 78 66 58 36 18 16 18 24 20 17 13 10 12 18 41 71 71 59 62 60 75 94 64
35 29 35 37 37 52 30 35 46 49 42 39 47 52 62 84 88 81 82 87 85 70 59 35 19 15 13 13 12 11 10 12 14 21 43 71 68 54 61 64 87 93 60 96
31 37 45 45 45 32 26 43 46 59 38 55 75 77 78 80 83 81 90 90 74 61 38 19 15 13 11 11 10 10 14 15 19 26 53 58 60 65 62 73 73 69 89 100
39 36 37 51 60 47 29 42 45 35 40 71 77 85 94 93 86 81 92 77 60 33 20 16 13 11 11 11 12 13 14 18 30 44 58 59 74 73 70 53 63 82 91 98
52 33 34 36 30 32 42 52 57 62 83 87 90 93 98 95 85 83 82 60 34 21 17 13 11 10 12 14 14 14 23 35 42 50 56 64 77 75 80 74 77 82 81 30
29 41 57 52 44 44 60 63 70 80 76 90 99 98 99 93 86 82 61 37 25 18 14 12 11 12 13 15 16 21 29 35 44 49 52 57 66 83 79 81 81 65 24 27
27 33 34 41 42 52 62 67 64 62 88 100 100 100 98 94 82 61 42 29 21 15 12 12 12 13 15 18 22 21 27 36 45 52 61 64 77 79 74 77 41 22 25 26
27 28 32 32 37 41 48 55 63 88 100 98 100 100 97 85 66 52 37 24 17 14 12 12 14 15 16 19 26 26 25 33 48 58 69 77 80 74 76 26 19 24 25 26

GFSCGP_700_rhum_039.txt.gz
RH
19 20 20 22 22 23 23 20 23 20 25 26 25 24 23 23 25 25 26 29 29 29 34 38 59 69 73 72 79 86 84 85 84 83 83 72 56 57 58 64 90 100 99 99
26 28 25 23 21 18 20 21 23 24 23 25 24 25 24 25 27 29 29 29 29 30 29 37 52 60 73 76 69 66 69 70 68 56 54 50 47 51 68 73 73 69 67 71
28 28 26 23 22 18 23 24 25 25 27 28 28 30 31 31 32 32 33 34 36 48 49 52 52 58 58 59 64 64 57 53 55 55 51 47 45 47 51 55 52 50 52 56
29 25 24 23 24 30 29 26 27 30 30 26 35 40 41 38 39 38 36 42 50 59 58 60 59 57 50 46 47 52 56 57 54 44 46 46 48 50 49 49 46 49 52 42
28 26 24 26 26 29 30 34 30 31 32 35 43 36 50 50 46 40 44 50 50 50 45 49 54 51 46 46 39 36 37 36 36 39 41 44 45 44 44 40 47 61 56 49
25 28 31 34 36 34 34 32 36 41 44 48 48 54 49 47 47 48 51 50 51 53 56 59 50 52 50 52 52 48 40 44 52 60 53 59 61 58 64 63 54 55 53 62
36 33 28 26 41 40 37 36 47 53 63 65 52 54 51 54 56 54 51 54 61 68 68 56 66 60 64 55 50 50 54 62 69 67 66 75 78 75 73 75 65 57 69 78
32 43 33 43 42 43 38 41 42 57 73 49 54 63 56 53 54 60 70 71 73 72 72 82 68 75 72 62 62 70 76 82 80 76 77 74 65 68 83 74 62 72 88 82
41 45 34 22 34 42 45 49 36 44 59 56 61 65 64 63 66 66 70 74 80 70 67 76 79 78 77 92 92 93 92 78 73 81 76 64 66 78 67 63 65 56 55 48
42 45 33 38 39 36 33 40 46 41 60 57 56 63 63 69 69 69 73 72 77 80 74 86 85 85 96 99 100 95 93 85 94 80 67 85 80 58 49 47 40 38 53 60
44 36 37 44 33 35 39 34 34 43 52 68 81 53 54 52 62 67 71 74 76 75 91 82 86 100 98 92 98 97 91 86 67 66 68 60 45 33 26 28 36 27 26 63
46 35 41 38 27 25 24 34 30 23 42 57 62 48 51 56 64 62 60 72 76 74 83 96 100 98 97 99 100 83 61 53 56 48 39 26 15 15 20 39 72 66 75 78
43 38 42 42 38 38 38 36 33 38 37 38 49 40 55 58 63 63 66 66 69 75 83 87 93 98 99 98 97 94 54 46 37 25 15 13 14 29 55 81 90 83 66 84
35 31 32 26 32 37 37 41 37 37 37 39 41 40 48 52 55 63 66 70 74 78 84 91 98 98 98 94 63 51 48 36 19 13 12 15 44 88 85 74 48 41 57 76
26 24 34 31 33 30 28 36 37 30 33 38 29 32 38 46 53 69 71 72 77 88 91 91 95 96 77 70 61 51 36 18 13 12 15 46 78 62 33 27 70 79 75 78
22 24 28 30 30 32 34 20 21 26 31 36 44 52 49 54 62 67 71 79 84 86 91 94 83 75 71 62 54 38 19 13 12 11 15 12 11 12 14 18 28 42 54 56
16 20 24 34 28 28 24 12 23 29 34 42 48 43 51 52 60 72 80 84 86 85 85 88 91 91 68 57 40 18 13 11 10 10 9 10 11 15 17 30 39 47 57 67
21 20 23 17 19 42 16 19 22 39 36 35 38 45 52 58 70 77 84 89 87 86 86 86 86 72 54 35 17 13 11 10 9 8 9 12 15 19 33 37 43 50 60 87
32 22 27 22 30 21 25 20 25 31 29 36 39 42 51 60 71 80 92 93 87 80 80 85 72 55 30 17 14 11 10 9 9 9 12 20 28 35 42 43 54 47 84 67
29 29 41 31 33 44 15 16 21 36 46 28 35 44 60 68 73 85 93 92 87 70 88 76 57 31 17 14 12 10 9 9 10 14 25 30 38 45 44 52 66 46 58 68
24 28 36 46 39 30 21 23 32 60 28 30 29 47 68 76 86 92 97 95 84 87 81 58 31 18 15 13 10 10 10 12 14 21 26 33 43 50 46 62 74 83 74 78
29 27 28 45 61 45 22 29 33 26 35 44 40 64 88 90 96 97 98 94 88 82 58 33 20 17 14 11 10 11 15 17 19 21 26 33 44 51 53 67 85 88 89 83
41 26 27 29 25 28 32 41 44 49 48 58 76 94 98 89 96 97 96 91 82 57 36 23 18 15 12 12 13 15 17 21 24 22 25 32 43 55 65 84 78 82 83 55
21 23 34 32 27 32 46 47 47 59 72 84 80 91 83 97 96 98 98 84 60 43 28 20 16 13 12 14 16 18 18 21 28 24 28 40 55 68 83 83 79 85 42 23
29 29 29 32 29 36 35 38 51 70 82 78 82 87 98 95 96 98 88 65 52 33 23 18 14 12 13 15 18 20 21 27 29 26 31 44 60 78 86 80 73 26 22 26
31 32 35 33 34 37 39 44 53 60 62 83 84 98 97 97 97 91 72 63 39 25 20 15 13 13 15 18 22 24 27 33 33 29 38 54 61 73 80 67 26 20 21 25

GFSCGP_700_rhum_042.txt.gz
RH
21 20 19 20 19 19 22 24 22 21 22 26 27 25 23 24 22 24 25 27 33 32 31 35 51 67 76 73 78 85 98 93 98 89 66 60 64 63 57 56 57 57 54 55
23 24 24 24 24 19 19 20 25 25 23 26 25 25 25 24 23 25 26 27 30 32 33 35 39 58 63 74 85 88 82 81 65 57 56 55 52 48 46 46 50 57 56 55
27 27 24 23 23 22 21 24 26 26 28 25 26 28 26 23 25 28 30 34 38 41 48 57 61 63 65 70 69 62 53 54 58 55 46 45 49 54 56 55 53 49 45 40
28 27 27 27 25 23 26 28 29 29 28 28 31 34 34 32 31 33 35 40 54 68 74 72 54 52 50 48 49 48 44 45 46 58 65 66 61 62 63 58 48 41 40 43
28 23 23 25 24 23 27 31 32 31 30 30 35 36 32 33 37 36 44 63 69 66 59 59 66 62 55 54 51 59 60 64 65 62 64 60 57 62 63 58 47 45 48 53
26 27 27 26 31 33 30 30 29 33 43 49 52 55 44 36 39 47 58 61 57 58 63 66 68 70 63 65 58 59 73 65 59 58 58 61 63 71 71 61 58 59 57 56
30 30 30 30 38 38 36 37 46 55 61 66 53 50 48 45 45 52 52 53 55 60 66 65 69 73 79 82 78 77 74 80 75 74 73 70 81 79 68 59 63 60 53 43
34 38 30 33 35 40 40 41 43 58 78 56 51 59 53 49 50 56 57 58 57 66 74 76 74 75 69 80 78 71 72 92 90 96 89 86 74 61 54 54 50 41 32 30
38 43 35 33 44 42 41 48 36 40 58 58 54 57 52 55 50 55 59 60 71 72 63 67 66 67 75 75 80 90 93 97 99 98 75 63 54 50 42 34 24 19 25 29
40 44 34 32 29 42 41 45 46 43 55 48 55 56 50 48 50 65 70 70 66 61 68 71 73 82 85 97 99 90 98 100 99 81 74 51 44 36 22 15 15 15 15 18
44 41 39 38 37 40 40 38 33 38 48 68 79 45 45 55 53 61 70 72 74 75 77 76 74 79 91 95 100 95 99 98 86 65 49 42 28 16 13 13 12 13 22 41
45 41 39 40 36 26 27 36 31 20 39 55 61 39 41 49 58 70 72 73 66 68 80 79 86 92 98 98 100 100 98 88 60 52 41 26 16 13 12 18 33 44 36 27
46 40 41 39 36 32 31 27 27 25 29 33 52 26 31 36 48 62 58 62 70 75 78 87 93 95 98 100 99 98 86 68 53 39 26 15 12 15 22 26 19 12 14 22
41 39 34 31 25 27 33 30 26 28 37 34 27 22 29 38 46 52 60 70 70 74 80 83 85 92 100 98 97 89 78 56 40 23 14 12 10 8 7 7 8 10 17 27
27 36 34 32 27 27 27 29 24 25 29 34 19 25 25 32 40 50 56 64 73 77 82 89 96 98 98 98 98 89 63 45 24 14 12 9 7 7 7 8 10 13 25 31
26 27 25 35 33 32 31 28 28 27 26 25 24 21 25 39 46 46 53 64 77 85 92 95 93 97 93 85 80 68 49 25 15 12 10 8 7 7 9 13 18 30 34 42
20 22 24 30 27 32 34 16 15 14 10 20 27 24 36 38 45 50 60 72 80 89 91 97 97 82 81 80 71 52 26 16 13 10 8 8 8 9 14 21 30 35 37 40
25 20 19 21 18 36 12 12 11 12 16 24 31 30 36 41 50 54 63 78 88 96 97 98 89 74 81 74 52 24 16 14 11 9 8 9 10 14 21 28 34 35 42 48
42 32 21 21 24 18 12 10 10 13 17 25 33 34 38 38 46 49 66 86 98 100 99 97 88 86 78 52 26 18 15 12 10 10 10 12 14 17 22 31 40 40 50 63
48 48 41 29 27 45 13 11 14 20 26 20 30 36 24 30 50 56 81 90 92 94 94 96 93 82 55 30 19 16 14 11 10 11 13 16 18 20 24 38 45 50 62 82
30 28 32 41 44 28 17 16 21 35 22 26 29 32 37 34 56 68 84 89 97 90 98 98 88 60 33 22 18 15 12 10 11 14 16 19 21 21 28 47 50 57 77 80
36 29 26 38 59 41 19 23 26 25 29 33 36 42 48 66 83 87 88 87 96 98 98 95 68 39 25 20 16 13 11 12 14 17 19 23 23 24 33 52 68 77 78 79
40 31 27 26 21 23 27 31 36 44 47 46 48 58 77 86 88 92 91 98 94 98 96 76 46 29 22 17 14 12 12 14 18 20 23 27 28 29 40 55 72 80 77 78
21 20 31 30 21 24 32 38 44 55 60 59 72 84 92 88 88 99 98 97 98 97 85 56 34 24 18 15 13 13 15 18 21 24 28 32 32 34 48 59 71 76 68 24
27 28 30 31 29 32 33 35 38 40 45 50 75 94 91 85 89 98 96 98 96 90 75 36 26 20 16 14 14 15 18 22 25 29 32 36 36 46 57 67 75 59 26 22
32 34 38 39 40 41 40 40 40 42 47 56 71 83 88 92 98 98 97 95 94 85 37 28 21 16 14 14 15 17 21 28 32 31 38 40 43 54 65 72 55 25 20 20

GFSCGP_700_rhum_045.txt.gz
RH
25 23 17 16 19 20 19 20 22 24 24 26 27 27 27 25 24 22 24 27 29 34 39 48 52 63 67 70 78 80 98 96 79 89 71 61 54 52 50 49 48 48 48 52
21 21 19 22 22 21 21 21 24 24 22 24 25 25 23 23 25 22 26 29 35 44 46 42 44 54 66 73 73 87 86 86 70 60 53 48 52 55 60 63 63 63 60 50
16 22 24 24 22 20 20 23 25 25 26 26 25 24 24 24 25 24 26 29 37 38 42 49 60 62 63 67 69 62 56 51 48 52 63 71 74 74 71 66 60 57 48 36
28 27 26 27 25 23 25 28 27 28 28 28 28 28 26 26 25 24 26 31 41 54 63 67 60 54 54 51 50 49 60 61 66 66 70 64 59 59 57 59 52 43 41 39
27 26 27 27 24 21 26 33 33 31 31 30 32 34 30 31 31 32 35 45 61 70 66 60 63 62 60 57 59 64 71 83 81 71 68 70 69 66 61 59 45 42 43 40
27 27 27 26 25 28 27 32 34 33 34 43 35 40 43 33 29 35 42 58 67 65 61 63 63 63 65 68 70 84 90 81 78 77 72 72 73 63 66 56 48 47 40 32
34 32 28 27 31 33 35 31 41 43 52 45 52 54 42 42 43 45 54 58 60 60 63 64 66 72 77 72 75 82 85 80 76 82 80 84 82 72 67 53 48 39 28 20
32 34 29 28 33 34 38 37 38 54 59 53 56 58 47 45 44 49 62 64 61 62 65 71 67 66 65 68 75 82 83 83 86 83 94 91 82 68 54 45 32 20 15 14
32 36 34 30 38 40 43 46 40 39 54 54 43 45 34 39 43 48 55 58 61 64 69 58 64 66 70 78 85 88 90 98 98 96 97 93 71 56 44 31 19 14 11 8
31 38 39 33 36 44 40 43 43 42 57 42 44 46 30 28 38 47 53 62 66 70 58 53 62 73 78 85 92 98 98 99 100 99 94 76 55 46 31 18 13 10 7 7
38 40 41 37 32 32 38 45 35 34 38 43 48 31 21 25 45 43 52 66 69 65 57 61 71 83 85 84 94 97 96 99 100 99 85 59 49 29 15 12 9 7 6 7
45 44 40 39 35 35 39 36 32 27 37 48 53 28 21 22 33 52 69 72 73 72 71 73 79 87 86 92 95 100 98 98 98 89 90 68 24 15 12 9 7 6 6 7
45 44 40 42 40 35 27 22 24 26 22 28 49 18 20 22 27 38 57 71 72 67 80 81 88 89 98 100 99 99 98 96 91 68 42 23 15 12 9 7 6 6 7 9
45 45 39 36 29 28 30 25 28 30 25 23 20 15 18 24 27 39 49 56 55 65 76 82 86 93 99 98 99 98 85 81 66 41 22 15 13 10 8 7 6 7 9 13
36 43 42 38 34 25 24 25 30 30 25 20 11 13 16 22 25 34 46 54 57 68 78 81 89 97 99 99 98 87 81 68 50 28 17 14 11 9 8 7 8 10 12 20
34 30 28 34 34 31 29 29 26 25 23 21 19 11 15 22 31 39 48 52 56 67 79 88 97 98 99 98 96 89 74 61 34 20 16 13 10 8 9 9 10 12 18 26
33 30 28 30 28 37 38 18 18 16 15 15 21 12 21 28 30 32 42 48 65 79 91 99 100 91 94 97 92 81 67 40 22 17 14 11 9 9 10 11 13 16 21 29
24 21 22 22 21 37 14 11 11 11 10 10 11 14 25 35 34 34 35 49 64 83 95 95 98 94 87 92 86 74 44 25 19 15 12 10 10 11 12 15 16 19 24 34
37 30 23 22 23 18 15 13 12 11 10 10 16 24 41 42 35 23 38 60 75 89 97 98 92 86 94 94 80 49 31 22 17 14 11 10 11 14 15 18 19 22 33 48
53 53 50 38 27 42 17 12 12 13 18 15 19 30 42 33 31 30 40 59 78 87 89 99 98 89 96 89 59 40 26 20 16 12 11 11 13 16 19 20 22 24 42 62
37 36 37 41 45 30 20 17 18 27 21 24 25 28 30 30 35 38 56 69 85 93 98 100 98 95 95 69 53 30 21 17 14 11 11 13 18 21 22 24 27 33 49 64
48 38 33 34 50 38 21 24 26 27 27 33 43 43 36 38 50 67 84 87 93 100 100 97 99 97 79 69 34 23 18 14 11 11 12 17 22 24 26 31 32 44 56 68
45 40 36 31 23 22 26 30 33 37 45 52 58 65 69 74 84 95 93 99 100 100 98 95 95 92 82 40 28 18 14 11 10 12 16 21 25 26 33 33 40 53 65 73
36 28 28 26 22 26 31 34 35 44 47 48 57 70 77 84 95 100 100 100 99 97 95 96 94 75 52 29 18 13 10 10 13 17 22 27 28 33 36 38 48 60 67 50
32 28 29 33 34 40 38 41 44 47 47 47 51 58 67 88 100 100 100 100 97 96 95 94 86 53 24 17 11 9 11 14 17 21 30 34 34 37 44 47 56 60 44 24
32 38 41 42 44 48 50 50 50 54 57 56 58 64 84 100 100 100 100 97 96 95 91 64 37 22 14 9 10 13 16 19 23 28 36 38 39 45 52 59 60 47 29 21

GFSCGP_700_rhum_048.txt.gz
RH
29 27 23 21 19 19 23 20 18 21 17 26 25 18 22 24 23 25 30 31 34 40 45 54 63 68 71 74 78 82 90 94 99 81 73 60 56 51 44 44 45 50 56 59
26 26 18 17 18 20 23 24 25 23 19 27 29 29 27 26 26 24 26 30 31 36 44 48 52 56 55 62 67 76 82 79 60 57 49 48 53 60 62 60 59 59 56 45
25 24 20 20 22 23 30 27 28 26 23 25 29 29 23 23 22 25 24 26 30 35 43 43 41 49 57 60 62 67 60 49 46 51 57 56 56 59 67 66 66 65 54 47
26 21 24 24 23 26 28 23 24 26 27 23 26 19 32 23 22 23 25 27 31 35 37 48 54 58 55 51 51 53 58 62 66 74 76 76 81 92 91 82 71 66 53 49
29 26 28 33 26 21 27 25 30 31 30 30 31 25 32 29 28 25 25 26 30 40 50 54 58 55 57 57 55 56 59 69 87 85 82 87 92 98 96 80 72 59 52 48
26 28 28 27 26 24 25 32 34 35 36 29 28 34 17 38 48 35 35 41 48 54 58 57 58 60 64 77 80 79 83 88 86 85 86 90 94 97 85 78 65 56 48 34
36 34 30 29 33 32 34 35 27 32 31 26 51 40 22 36 38 42 43 49 57 62 61 62 65 74 79 66 64 71 84 92 93 94 95 97 89 87 85 75 60 48 31 17
30 36 34 32 41 37 40 34 27 26 29 28 50 37 42 41 41 42 48 66 66 62 64 68 75 64 62 64 70 77 85 89 90 85 85 98 91 93 94 66 49 32 17 12
34 37 31 27 27 32 41 38 42 48 46 47 31 43 40 31 34 39 47 59 64 65 67 72 58 56 66 72 78 84 92 95 91 100 89 96 96 97 80 75 40 19 13 10
28 41 35 31 29 37 41 42 42 41 46 29 20 28 23 28 38 38 48 53 65 69 67 70 53 57 69 79 84 86 96 100 100 98 96 97 98 81 60 34 21 14 10 7
27 30 45 38 37 39 46 46 41 41 37 24 21 15 22 26 23 30 46 58 66 65 70 66 56 62 73 81 89 96 100 91 92 99 99 87 73 52 39 22 15 11 8 6
32 40 48 43 38 31 33 43 44 32 36 52 46 20 14 13 12 21 29 43 55 58 66 69 72 77 78 82 94 94 100 96 100 98 77 65 59 41 23 16 12 9 7 6
37 46 48 47 46 37 41 40 41 31 22 40 56 18 12 13 15 19 32 38 53 66 73 73 75 82 85 93 98 100 100 100 99 92 72 61 41 24 18 14 10 8 7 7
42 46 44 38 33 36 43 34 26 31 37 26 28 17 20 15 19 21 27 36 51 68 74 73 73 83 92 99 100 96 96 98 91 90 72 43 27 21 16 11 9 8 8 9
39 47 45 43 39 36 30 32 29 32 29 36 20 23 19 29 17 23 26 33 43 56 64 66 75 88 95 97 97 98 93 90 95 82 49 32 24 17 12 10 9 10 11 12
47 44 37 41 41 38 34 29 26 23 34 32 30 21 28 20 18 22 27 32 41 50 53 63 82 92 98 98 98 87 90 85 79 55 36 26 18 14 11 9 10 12 13 14
49 40 33 39 27 34 39 20 21 20 17 17 34 25 33 25 21 29 28 29 39 45 58 73 87 96 100 93 95 80 91 90 64 41 29 20 15 12 10 10 11 13 15 16
39 40 33 27 24 65 24 18 15 18 16 16 14 13 17 24 29 38 32 31 28 39 56 79 94 99 96 99 94 96 95 73 49 34 23 17 13 10 9 10 13 16 18 21
31 25 24 24 40 28 21 20 17 15 13 11 12 14 19 28 43 41 30 27 30 42 64 82 95 100 100 100 98 96 84 57 41 26 19 14 10 8 9 12 16 20 22 25
52 44 36 38 38 82 21 17 14 14 34 16 17 18 22 30 39 49 34 34 40 53 66 85 100 100 99 99 96 90 74 46 31 23 15 10 7 9 12 16 22 23 26 28
54 60 56 54 50 36 29 24 22 33 32 24 24 25 32 34 37 34 35 44 61 73 82 98 100 99 98 97 95 94 68 46 24 15 9 7 9 12 16 23 24 26 29 34
48 45 41 40 45 50 22 23 27 32 28 35 38 45 53 54 58 62 69 79 86 94 99 97 98 99 97 96 93 77 39 20 14 8 7 9 12 17 24 26 28 32 37 43
52 44 39 37 37 26 27 30 32 31 33 43 51 59 63 65 70 77 84 95 98 100 100 98 98 96 95 93 74 29 19 12 7 8 10 13 17 26 30 30 34 40 45 53
46 42 40 33 27 27 33 35 36 37 38 38 44 52 54 60 68 78 89 91 100 98 99 98 96 95 85 54 24 16 9 8 9 12 15 19 24 30 34 37 40 46 52 54
46 42 34 31 34 39 39 40 45 48 50 52 52 52 54 58 65 83 95 98 99 98 97 96 94 88 51 32 16 8 9 11 15 21 24 25 28 34 36 44 48 56 58 53
40 34 40 43 40 47 50 53 54 57 59 60 60 61 68 75 86 99 100 100 99 98 95 94 90 65 42 14 9 11 14 19 28 32 31 28 33 42 45 51 54 61 64 58

GFSCGP_700_rhum_051.txt.gz
RH
40 35 31 28 21 21 17 14 16 16 17 18 18 27 32 41 47 58 73 81 83 72 48 52 56 58 61 66 70 74 78 84 92 95 74 50 54 54 57 54 45 48 51 47
34 36 32 24 20 19 21 20 18 18 20 23 23 28 26 22 34 62 66 75 86 61 46 55 59 62 64 67 70 74 79 83 84 58 47 43 46 50 56 57 55 54 59 63
32 33 21 23 22 20 21 22 26 21 25 23 25 29 40 37 54 59 69 74 87 60 48 50 47 42 41 46 60 72 74 62 49 55 68 75 71 64 65 66 78 81 75 70
35 32 24 24 22 24 23 24 23 23 26 22 24 20 36 38 22 21 26 72 87 94 43 40 36 38 49 62 61 52 51 54 61 78 84 82 85 99 99 98 94 88 75 68
30 28 25 24 28 25 39 23 26 22 20 32 25 18 34 49 52 40 29 45 90 48 41 34 44 53 60 54 55 56 55 57 66 80 84 85 88 92 98 95 91 88 81 70
50 32 31 34 28 26 25 30 31 27 24 25 19 21 22 36 36 54 71 82 86 49 40 51 57 56 56 58 60 71 72 68 72 80 85 88 94 99 99 94 92 92 79 64
32 31 34 31 34 35 32 30 29 31 24 26 29 28 18 36 41 42 70 78 86 61 52 60 57 58 60 69 68 61 65 71 77 83 88 90 90 98 100 95 97 88 73 50
26 33 33 35 32 32 32 27 25 28 24 19 34 19 25 35 32 46 70 83 84 58 62 63 60 65 69 62 59 66 71 75 82 91 89 88 99 88 85 98 90 65 46 27
27 29 36 32 37 33 33 30 32 31 38 35 19 25 34 28 32 34 72 87 94 76 62 66 65 71 55 56 65 73 78 82 86 94 95 93 100 98 99 75 63 47 30 21
29 28 37 35 30 28 33 38 32 30 38 29 15 17 22 41 47 33 66 78 76 81 84 94 86 66 60 59 65 76 87 88 96 98 99 99 100 99 72 62 46 32 27 18
28 28 40 40 35 25 40 33 32 34 32 31 19 15 28 29 43 48 59 71 76 84 92 96 96 84 60 63 68 77 87 94 97 100 100 99 100 89 66 52 35 26 18 13
34 32 28 36 36 34 37 31 33 34 29 32 36 23 20 24 42 46 52 67 71 83 92 95 70 71 70 74 84 85 87 96 100 100 99 99 89 79 63 42 27 18 14 10
45 31 28 36 40 40 39 35 33 34 42 36 45 25 26 11 10 37 45 58 70 84 74 48 54 67 76 80 82 88 94 99 100 99 95 92 94 81 41 29 21 16 11 8
35 32 33 33 30 34 42 37 36 36 40 32 20 21 27 34 30 40 43 58 55 28 45 55 60 72 76 73 79 91 97 99 99 98 94 89 77 48 32 25 19 12 9 6
45 46 38 35 43 42 36 35 36 37 33 28 26 21 15 20 32 41 48 57 36 22 36 48 62 68 69 73 85 99 100 93 98 88 82 80 57 37 30 22 14 9 6 7
46 50 52 49 48 48 44 40 36 32 32 26 23 23 22 26 32 36 48 49 27 29 39 49 58 67 65 80 98 99 96 98 91 92 89 69 46 34 26 15 10 6 7 10
64 58 56 47 47 41 38 22 29 30 30 31 30 27 34 39 37 34 50 30 29 29 40 49 55 63 80 92 99 98 97 97 98 97 82 54 40 32 16 10 7 8 9 12
51 58 60 47 29 68 25 26 24 24 26 29 31 32 35 41 46 49 60 54 35 34 31 34 54 70 87 98 99 99 99 100 98 91 72 78 42 17 10 7 7 9 13 16
48 60 41 39 40 31 30 24 23 29 19 26 32 28 34 26 25 30 45 41 32 32 34 43 53 72 89 100 98 100 100 98 93 93 89 43 17 9 6 7 9 13 17 20
39 34 44 30 59 86 38 26 18 18 31 36 18 24 19 20 34 54 58 49 34 36 46 53 60 65 88 94 96 100 96 97 94 78 64 32 8 7 8 9 12 17 22 25
57 49 46 60 59 55 44 31 28 36 46 29 23 43 34 44 55 50 43 42 48 60 67 73 84 93 98 96 99 99 96 95 92 60 23 8 7 9 11 14 16 21 26 25
44 48 50 75 71 58 40 29 40 52 31 23 29 51 40 45 48 56 60 67 75 79 85 89 96 98 92 99 98 96 93 84 65 34 9 8 10 14 17 18 20 27 32 37
64 64 68 53 55 49 24 39 31 25 27 30 31 37 45 54 59 63 66 70 74 84 94 88 88 99 99 99 95 94 89 56 35 13 9 10 17 22 25 25 28 32 39 46
58 48 47 45 46 52 38 29 31 33 36 38 39 42 45 51 52 52 56 60 80 95 91 97 99 97 96 95 94 93 69 22 9 10 12 18 19 25 28 28 37 43 45 48
58 56 49 53 40 52 57 36 40 43 48 51 52 52 54 61 63 64 69 78 90 96 100 98 97 96 95 92 63 24 10 10 10 11 18 20 22 34 33 29 36 53 56 59
56 63 55 64 47 42 52 46 51 56 58 57 54 53 56 60 70 80 94 87 97 99 97 96 95 93 72 28 10 10 10 11 12 15 22 30 37 41 41 37 34 53 60 66

GFSCGP_700_rhum_054.txt.gz
RH
36 43 39 36 30 26 25 23 23 25 22 21 19 27 35 38 46 70 63 68 74 74 57 38 42 47 66 89 62 58 71 76 82 89 94 76 42 39 39 49 71 80 54 47
36 43 40 40 33 27 19 19 16 16 16 17 17 23 26 35 38 52 62 68 77 85 45 44 50 55 56 59 61 67 73 80 90 91 61 45 54 64 66 63 63 66 53 54
45 46 40 37 22 20 23 26 21 21 18 18 23 19 30 34 39 44 56 69 79 79 49 47 54 55 55 56 62 66 65 77 74 54 52 58 74 76 72 71 67 72 84 84
50 46 36 30 24 24 39 41 25 28 31 20 22 33 35 37 45 50 56 64 73 86 84 54 43 38 47 41 47 63 66 54 53 57 62 76 82 81 88 88 99 86 82 75
38 29 30 26 25 31 25 26 27 20 18 25 27 41 36 35 43 55 61 69 74 89 98 76 50 30 32 48 60 53 55 57 64 77 78 79 89 100 95 94 95 95 98 93
30 30 38 34 27 30 30 26 29 25 24 43 34 42 36 39 41 52 65 74 84 95 89 68 53 47 52 57 55 58 67 68 67 66 70 83 85 90 88 92 80 91 97 98
35 26 32 34 28 30 31 28 30 72 66 35 19 33 31 39 40 56 62 64 86 84 88 73 56 54 57 56 59 68 64 57 62 67 74 82 84 87 94 98 100 97 98 68
30 33 31 27 26 34 36 23 47 51 68 35 30 23 32 40 32 46 61 68 75 83 85 82 74 64 57 60 66 63 56 61 63 67 72 82 87 90 99 100 99 98 78 61
34 37 38 33 27 33 31 31 32 28 26 34 26 18 39 35 26 21 63 74 74 93 87 84 84 81 64 64 59 56 63 69 63 68 84 88 97 100 99 99 100 94 66 50
32 54 44 38 29 27 25 29 33 27 40 41 20 17 30 43 20 34 65 71 77 87 74 77 89 84 88 74 59 50 61 77 62 76 84 97 99 100 99 99 85 77 66 42
37 59 40 39 34 23 37 36 28 24 30 46 51 26 33 36 40 17 56 69 80 74 74 81 94 100 96 97 79 56 67 78 83 84 96 98 100 99 96 88 86 67 48 35
30 32 30 35 32 31 32 33 30 32 32 31 34 33 27 31 35 32 46 60 74 73 80 89 97 98 100 79 74 75 88 86 88 100 100 100 98 99 83 79 68 53 41 30
34 36 33 30 33 36 35 27 28 30 33 38 57 33 29 28 16 24 34 49 64 71 81 88 98 99 85 72 76 80 76 84 99 100 100 100 95 88 78 73 56 39 29 20
36 40 33 33 27 36 35 36 30 31 37 39 38 30 26 30 32 35 38 41 55 66 77 88 98 77 60 66 73 74 83 96 100 99 100 98 97 85 82 65 42 30 24 13
30 37 30 28 30 33 39 36 31 31 33 35 35 29 22 20 28 33 36 44 52 66 75 83 72 58 68 70 67 78 86 94 97 100 99 99 95 93 87 52 54 50 13 7
37 50 43 49 46 42 44 39 36 34 32 28 29 27 25 24 27 30 32 41 48 64 72 63 70 79 78 64 67 80 82 100 98 100 99 99 100 93 57 80 54 20 7 6
58 52 60 58 50 45 39 33 25 32 30 30 30 29 29 31 37 37 36 34 49 64 82 81 91 95 82 77 70 79 100 98 100 98 98 100 96 76 92 69 46 11 7 7
69 64 61 60 48 64 30 31 27 27 27 27 28 28 29 30 34 37 33 45 57 50 77 76 68 68 68 63 72 86 100 96 96 100 98 96 95 94 69 49 28 7 9 12
61 68 62 59 47 38 33 30 27 27 21 30 29 30 30 32 32 26 42 47 59 49 36 36 37 41 47 63 83 91 100 100 98 99 96 95 94 91 68 32 8 9 12 16
51 67 63 37 67 82 40 36 30 20 29 38 37 36 26 17 25 54 58 60 59 49 43 46 49 57 68 73 81 97 100 100 99 98 96 94 90 63 22 8 9 10 16 20
58 50 56 61 41 43 48 47 39 37 48 46 34 31 25 53 38 47 60 50 49 57 58 63 67 81 84 88 91 98 99 97 96 96 93 85 43 11 9 10 10 14 20 24
46 53 54 66 86 76 52 48 40 56 58 39 26 31 26 41 37 45 50 54 61 60 64 74 85 94 95 93 95 100 97 95 94 85 37 12 9 8 10 12 17 25 29 28
55 61 64 57 51 54 44 53 41 33 32 29 27 32 36 39 45 50 57 58 55 57 70 89 89 96 98 99 98 96 95 92 47 10 9 9 9 10 11 16 23 34 33 32
63 60 61 62 47 56 59 59 45 29 29 35 37 40 46 51 70 63 55 56 65 73 78 96 100 100 99 96 95 94 87 34 10 10 10 10 11 13 14 17 27 37 40 37
65 65 57 59 54 56 59 56 46 45 42 46 49 52 56 61 66 67 68 80 91 100 100 100 100 97 95 94 71 20 10 10 11 11 12 13 15 16 16 18 30 46 45 44
60 61 62 63 61 57 60 50 50 47 48 53 56 58 59 62 66 77 90 99 99 99 98 98 97 92 55 14 11 11 12 12 12 14 15 17 18 19 20 22 23 42 55 52

GFSCGP_700_rhum_057.txt.gz
RH
43 35 38 41 38 33 33 38 28 28 28 32 29 31 42 52 55 60 59 54 57 44 43 53 59 53 46 40 40 51 66 74 71 74 81 86 78 44 48 56 57 52 64 86
39 41 39 42 40 37 32 30 37 25 24 23 27 27 31 47 51 45 40 59 51 30 28 33 43 54 47 46 50 57 62 68 76 81 84 75 48 56 65 70 65 65 64 60
56 41 41 46 43 43 33 31 25 26 22 15 16 26 34 34 35 41 49 57 68 44 28 31 40 47 51 52 55 60 64 76 72 70 69 53 57 63 64 71 71 72 69 73
45 41 40 41 39 40 31 33 24 28 26 22 23 36 32 35 38 46 53 65 62 67 66 58 44 47 52 56 60 62 67 68 72 57 55 61 69 62 67 70 67 74 71 79
31 36 36 41 36 36 33 24 27 32 30 32 33 33 33 32 36 37 49 54 57 60 68 75 65 49 52 51 53 50 66 62 55 54 57 62 58 64 65 74 87 97 98 95
32 33 32 35 33 33 29 26 27 37 40 46 30 27 36 32 34 43 49 56 64 73 86 90 83 58 42 34 42 57 57 53 57 61 58 63 68 76 84 93 100 100 100 100
32 28 28 36 34 31 31 28 43 55 64 60 39 37 31 30 33 32 39 54 67 74 83 80 74 61 38 42 52 54 56 63 60 55 59 66 74 86 92 92 99 99 97 93
32 37 37 35 38 32 31 39 37 62 78 55 38 47 39 35 38 42 46 50 56 51 62 62 55 39 41 55 57 60 66 66 54 58 64 72 80 88 100 100 99 100 98 98
35 36 40 36 39 33 27 35 36 34 33 39 30 34 46 45 42 34 47 57 58 54 67 62 56 45 57 61 62 69 71 60 52 51 60 74 90 98 93 93 99 100 97 84
27 39 41 36 38 35 34 31 42 31 38 42 32 29 41 46 46 41 61 44 43 58 64 64 62 56 61 66 70 80 72 60 56 59 76 89 88 96 100 100 99 99 78 72
30 30 32 42 37 32 32 30 26 28 29 56 66 36 41 41 32 13 21 20 21 25 41 71 70 83 91 94 89 74 79 82 73 79 92 99 100 100 98 100 99 83 76 71
36 32 45 43 35 36 28 32 38 30 30 32 37 32 30 33 32 21 17 25 29 37 48 60 75 90 92 95 98 100 93 82 87 94 100 100 99 99 99 100 93 84 78 64
31 34 33 45 38 35 32 33 27 26 29 35 49 35 30 31 28 26 30 48 54 59 70 73 81 85 89 91 100 100 100 99 98 99 100 100 99 97 99 97 94 84 58 33
32 41 37 34 30 26 35 35 34 28 29 31 33 34 33 34 32 35 32 39 47 52 60 72 76 85 91 94 100 100 97 88 98 100 100 98 97 99 98 96 87 72 52 73
33 32 38 38 30 31 36 35 39 38 32 34 33 34 33 31 28 30 33 36 37 57 65 71 78 84 85 85 73 81 80 83 97 100 100 97 98 98 93 94 88 74 92 90
28 31 30 34 35 44 46 41 38 36 36 34 33 32 31 31 31 36 38 42 44 47 63 64 72 70 73 75 76 52 57 74 93 99 99 99 100 98 98 98 94 95 95 80
28 30 38 54 46 42 41 31 32 27 30 33 33 30 30 30 31 31 32 35 35 48 52 64 71 75 60 61 50 47 66 74 83 93 96 99 98 98 99 96 96 88 41 10
40 50 61 61 58 55 32 35 32 31 33 33 27 28 28 29 33 35 36 35 24 37 52 59 67 76 75 79 81 81 84 86 97 99 96 93 95 96 95 86 35 15 8 9
61 67 67 62 57 44 33 33 32 28 27 28 25 25 25 28 29 30 24 19 33 41 48 55 52 43 49 69 75 73 78 89 96 94 95 99 95 93 51 12 8 8 8 9
66 70 69 61 56 67 40 37 32 29 29 33 31 31 30 25 18 22 39 52 60 62 62 53 44 53 61 66 72 80 84 88 96 100 97 95 93 58 22 8 8 10 10 10
53 60 71 66 41 35 31 44 45 42 42 40 42 38 29 23 24 34 45 50 56 51 45 51 57 63 70 78 87 92 95 99 98 94 94 87 40 11 9 10 12 12 11 12
56 54 62 72 64 56 43 49 50 48 44 45 48 37 28 26 34 42 43 48 51 55 55 60 66 73 84 93 96 98 98 96 96 94 63 19 10 10 10 12 14 14 15 16
55 48 43 47 48 52 56 50 44 39 34 34 34 28 31 36 40 42 44 46 50 56 67 78 88 98 100 99 99 97 95 95 68 14 10 11 11 11 13 15 16 16 17 20
55 56 67 67 65 61 60 55 53 46 41 36 34 34 37 48 54 55 52 52 64 84 97 100 99 99 99 98 97 95 62 12 10 11 12 12 13 15 16 17 18 18 18 20
57 63 62 61 58 56 59 59 57 54 50 41 38 43 52 57 58 60 73 89 99 100 100 100 100 100 98 94 77 26 11 11 12 13 13 15 17 19 19 20 20 21 21 29
60 61 60 58 52 51 56 60 57 55 50 46 47 52 60 67 74 90 100 100 100 100 99 97 97 95 90 56 18 12 13 15 15 14 16 19 20 21 22 22 22 24 24 47

GFSCGP_700_rhum_060.txt.gz
RH
46 41 33 36 36 42 43 39 41 34 34 37 33 32 55 56 65 59 71 69 58 51 40 34 33 33 36 40 46 51 58 68 69 68 77 80 84 83 50 47 57 62 60 56
41 41 37 41 45 44 38 43 39 34 32 35 36 31 44 45 56 55 43 40 39 43 52 46 48 38 37 37 42 47 59 63 65 71 73 81 89 62 53 62 62 64 64 67
35 38 43 38 38 41 42 40 36 33 28 28 30 38 50 54 58 59 52 48 53 60 58 58 64 61 52 47 50 55 58 60 67 78 80 86 64 55 65 60 60 66 69 67
39 39 45 44 40 43 39 36 34 29 22 21 28 35 40 47 52 50 52 54 53 47 63 67 61 62 61 61 54 58 62 65 78 82 85 59 61 64 54 58 64 67 70 71
35 35 38 38 36 38 33 35 32 31 34 35 32 31 28 32 35 34 42 53 53 52 51 61 65 76 81 79 63 62 70 72 76 77 58 65 52 50 61 63 62 73 76 75
34 35 31 30 32 37 36 32 27 29 35 42 27 37 30 29 27 27 34 35 48 51 63 68 76 82 79 72 66 66 62 62 72 61 61 47 46 59 66 71 82 88 93 98
31 37 30 28 32 34 34 33 41 50 58 54 37 40 33 31 31 30 31 37 44 54 60 65 71 77 66 68 78 52 58 63 60 62 53 50 59 69 79 87 86 98 95 93
34 34 32 29 34 38 39 33 38 49 61 46 40 41 29 28 28 29 32 37 51 60 64 72 78 68 78 87 64 59 58 58 62 61 54 62 68 75 86 92 100 99 99 99
30 36 35 36 39 40 36 33 39 45 45 47 33 33 30 30 31 32 38 38 44 55 63 65 62 63 72 68 62 61 60 63 68 65 61 65 76 93 94 93 81 99 99 100
27 35 34 30 35 37 39 36 38 40 40 40 34 32 34 41 40 39 32 45 46 51 60 58 59 75 58 56 60 68 71 75 82 76 70 70 90 98 99 99 82 95 97 88
26 27 35 36 33 28 36 35 33 33 33 54 63 36 29 36 42 21 9 14 14 17 25 29 26 21 30 52 71 77 72 76 84 81 75 84 88 69 99 95 100 81 86 99
27 28 33 31 30 35 32 33 38 37 35 37 39 34 30 31 30 26 22 17 23 28 30 31 28 32 36 50 68 71 80 95 96 100 99 98 99 97 99 100 93 99 98 92
31 37 38 35 31 37 41 36 34 33 32 31 48 35 30 32 33 36 36 26 28 40 49 50 54 61 68 62 78 81 84 94 98 98 98 98 100 98 100 99 100 98 94 74
35 34 34 41 31 36 36 36 35 37 32 30 31 29 31 33 32 34 37 39 33 42 51 56 72 81 80 75 73 80 97 93 95 98 98 99 98 99 96 98 99 95 88 78
34 33 36 40 36 33 31 34 39 42 41 39 35 34 33 33 34 32 33 40 33 36 56 62 65 73 73 80 86 90 86 96 98 95 81 83 92 94 97 97 98 88 95 91
35 35 33 31 36 39 31 36 41 40 38 37 38 36 33 31 31 30 32 37 37 39 40 54 60 74 83 80 81 80 86 68 51 44 56 88 100 93 89 87 98 96 94 73
38 35 35 36 33 32 38 28 39 38 37 30 30 36 34 30 34 32 32 38 40 41 41 51 60 65 70 76 79 84 61 36 47 64 82 100 92 84 94 98 94 94 71 33
43 35 33 47 46 67 36 30 30 34 33 33 34 29 28 30 34 36 37 37 37 30 41 59 68 73 72 72 67 47 56 86 85 91 85 86 96 99 96 92 91 40 16 8
50 47 53 66 63 54 37 35 35 34 32 30 30 27 28 29 31 33 31 23 22 28 34 42 52 58 54 47 50 63 72 78 86 89 94 100 99 95 95 94 52 13 8 9
55 58 57 66 63 68 35 32 32 34 31 33 30 28 30 31 31 24 25 25 26 40 48 57 62 59 45 57 70 78 83 87 97 99 100 97 95 96 84 24 9 9 10 11
62 71 71 68 66 58 46 40 43 31 32 31 32 36 39 38 31 26 25 28 34 47 62 64 53 56 69 83 91 94 99 96 97 99 96 95 96 63 12 10 10 12 12 13
31 51 58 74 70 65 47 38 43 42 42 43 42 44 48 36 30 28 30 33 38 44 50 58 68 85 98 98 97 95 96 98 97 96 95 85 21 11 10 11 13 15 16 17
50 51 39 41 44 47 47 48 48 48 39 34 36 43 36 30 32 35 38 46 52 58 68 86 97 100 99 99 97 98 96 95 96 83 20 10 11 11 12 14 15 17 19 20
49 52 50 47 51 54 56 55 53 50 49 41 41 44 38 36 39 46 54 60 66 74 88 100 100 100 98 98 96 97 97 85 33 14 12 12 13 14 15 16 18 19 21 22
30 44 54 56 62 64 62 57 56 56 55 53 54 47 42 44 52 60 64 74 92 99 98 99 99 99 98 99 98 95 74 44 23 13 12 13 14 15 16 18 20 22 21 28
36 35 48 52 57 59 57 54 54 56 59 59 58 50 45 49 59 67 96 100 100 100 99 99 100 98 98 94 87 61 24 13 13 14 14 14 15 16 18 18 16 14 16 27

GFSCGP_700_rhum_063.txt.gz
RH
41 40 38 35 32 37 39 42 40 34 35 38 36 45 57 52 55 66 52 36 33 38 53 50 42 39 44 48 55 67 73 71 73 78 76 77 83 91 86 69 48 52 62 63
41 38 38 40 42 39 36 44 39 36 32 32 32 38 50 58 48 52 49 40 35 31 31 36 39 38 43 50 56 69 66 75 76 73 74 75 83 90 81 52 54 63 62 62
35 37 39 42 45 41 42 40 35 38 37 29 32 32 41 48 47 58 63 59 52 44 38 36 32 33 38 42 47 62 68 75 66 72 72 75 85 82 58 56 64 60 67 68
35 35 41 42 38 38 39 39 34 38 35 32 33 34 34 37 46 48 51 48 43 48 43 46 45 58 61 56 53 59 57 65 70 67 70 78 75 60 59 64 61 67 73 77
32 37 38 35 31 37 40 42 39 34 35 31 34 32 30 45 55 45 43 42 42 40 45 50 51 61 77 62 62 85 77 68 72 68 77 78 62 68 62 63 66 74 83 75
33 32 35 33 35 36 39 37 36 36 36 41 33 36 32 32 30 31 40 40 39 42 38 45 50 58 84 82 79 80 76 74 71 68 83 64 64 56 60 68 76 83 78 81
31 30 32 34 34 38 36 38 37 47 54 49 39 41 31 27 34 33 33 36 41 48 44 51 59 59 79 78 74 69 73 70 65 75 67 66 56 54 64 73 75 86 84 100
29 31 34 34 33 34 35 37 36 44 55 46 40 41 28 26 25 33 30 33 39 42 54 64 69 80 92 81 77 78 78 54 63 63 71 65 55 59 72 81 89 99 91 99
31 33 33 34 35 36 35 36 39 43 53 54 36 34 27 21 24 28 29 32 34 40 44 60 69 80 90 73 87 83 56 61 62 67 72 71 66 78 95 97 100 97 98 99
28 31 33 37 38 37 38 38 37 41 47 43 35 33 29 28 30 34 33 32 37 40 39 49 66 78 72 71 74 53 57 64 65 69 73 88 100 100 94 98 100 100 97 98
28 28 28 29 29 33 35 38 39 37 40 54 61 35 28 27 36 35 18 19 20 19 18 33 54 68 51 45 30 37 52 59 52 42 48 77 98 85 82 78 88 99 99 99
25 25 26 26 28 31 34 38 36 38 38 38 41 35 30 28 28 29 29 24 18 19 20 22 29 25 30 37 41 42 46 52 70 80 75 73 85 90 77 98 100 96 98 79
27 32 33 34 32 36 45 40 38 39 39 41 50 35 31 32 30 29 33 34 36 25 26 31 35 37 50 64 70 66 56 61 78 87 100 97 95 92 98 100 99 94 81 93
29 30 34 36 33 30 30 33 39 39 38 35 34 31 28 28 32 34 34 32 31 36 30 42 52 61 77 75 72 76 77 82 97 98 93 96 98 99 100 90 90 95 83 96
33 32 34 35 34 33 35 37 31 35 40 40 40 39 34 33 33 34 33 33 38 39 34 37 52 61 63 66 69 84 95 96 94 89 88 89 77 89 73 83 100 100 100 98
37 38 36 40 42 41 37 34 33 36 40 42 40 40 38 36 34 31 31 30 30 39 38 37 50 60 64 72 75 90 96 94 89 90 78 87 86 78 98 100 100 100 99 93
38 38 36 36 36 35 41 32 37 38 33 36 41 37 35 32 31 34 29 31 38 44 38 40 42 58 65 72 80 81 86 89 74 66 76 84 95 100 100 100 100 98 92 96
38 38 39 34 35 65 24 20 21 21 23 24 30 28 28 30 32 32 32 33 40 41 42 37 31 59 73 78 79 77 59 48 55 75 87 92 100 97 100 100 97 95 94 86
44 41 39 45 50 36 38 35 37 36 36 34 33 32 31 29 37 38 36 35 33 25 21 26 44 63 63 64 59 48 51 70 84 92 93 97 100 100 99 96 96 94 66 17
52 49 45 55 65 76 43 41 35 42 37 33 31 30 31 32 31 32 29 26 26 24 26 39 51 65 74 63 56 66 82 96 100 100 99 100 100 97 97 95 90 36 10 9
61 61 55 50 61 54 47 48 42 37 33 33 34 33 32 38 36 35 32 29 27 31 44 61 76 75 67 71 80 95 100 100 100 92 99 98 97 96 92 48 12 10 10 10
51 61 62 69 74 71 46 55 50 41 36 38 41 38 41 43 46 38 32 30 34 42 47 51 54 60 72 87 99 100 98 100 100 99 97 96 94 71 18 12 12 11 11 12
54 49 47 42 35 31 27 31 37 38 39 44 43 46 48 50 39 35 33 37 46 52 56 62 74 95 99 99 99 98 96 100 98 95 94 91 40 14 15 12 12 12 14 15
44 41 35 39 37 36 36 37 40 40 41 42 44 44 42 46 40 36 38 46 56 63 70 83 100 99 99 97 98 98 98 95 95 94 65 25 16 13 13 13 15 16 18 19
48 44 45 41 36 31 40 47 51 45 43 43 47 51 54 50 42 42 45 56 65 77 96 99 97 98 98 97 97 97 98 96 83 40 17 13 13 13 13 14 16 18 17 14
55 41 36 25 22 30 42 50 52 50 51 56 57 59 60 58 55 51 60 68 83 100 99 99 98 98 97 96 97 96 78 35 18 15 14 15 15 15 16 18 18 15 10 9

GFSCGP_700_rhum_066.txt.gz
RH
44 42 41 36 38 37 36 39 38 38 38 35 35 36 46 57 52 61 57 41 40 40 33 45 49 43 37 43 44 60 69 75 78 80 85 84 80 76 72 70 70 55 57 66
42 38 39 37 37 43 41 39 37 34 37 36 34 33 40 45 50 47 49 41 41 35 31 30 33 36 40 48 56 60 64 72 84 83 88 82 76 81 82 85 72 52 70 70
34 34 38 40 40 44 42 40 41 40 39 36 34 33 33 37 42 57 53 56 50 37 33 34 35 38 43 46 49 53 60 67 74 83 75 70 78 82 88 76 54 71 68 68
35 33 40 41 39 39 39 40 42 39 38 34 35 34 28 28 35 40 44 46 45 48 44 41 42 40 54 55 49 53 56 60 70 74 71 74 84 88 77 58 64 64 64 66
32 36 39 39 34 37 37 39 41 38 36 37 37 34 27 25 27 30 33 37 44 50 49 49 45 53 61 58 63 68 83 78 76 72 76 78 85 87 65 65 60 63 67 72
32 31 37 37 36 38 38 40 40 40 40 45 35 38 33 29 26 28 27 31 37 46 46 48 50 54 53 61 62 61 63 74 92 89 76 79 87 70 58 58 62 66 71 83
31 30 33 32 36 37 39 40 39 47 54 50 39 46 30 29 33 34 36 32 34 40 47 48 49 54 59 57 64 60 67 72 76 74 72 79 80 65 54 60 66 71 84 98
31 29 30 32 35 35 38 38 39 43 53 44 37 41 28 29 26 24 27 30 30 32 37 42 50 60 66 75 72 72 78 90 85 65 70 76 68 68 71 64 69 70 76 82
30 30 28 35 35 35 36 35 38 43 55 60 37 33 29 22 26 28 29 31 30 29 35 42 50 60 69 76 75 70 90 95 66 60 67 65 71 78 79 70 57 75 86 96
29 30 31 32 38 41 40 38 40 40 50 48 38 33 27 22 26 28 36 37 37 32 33 38 42 62 72 85 75 78 94 75 56 62 64 68 71 74 46 71 68 77 91 99
29 30 31 31 37 39 30 38 41 41 42 53 63 33 28 27 28 33 17 14 18 22 32 33 38 54 67 88 72 75 47 44 51 68 70 63 56 66 78 90 86 98 81 100
29 28 29 29 28 26 26 38 35 41 43 42 45 40 32 30 28 29 28 28 24 22 20 17 27 35 48 69 55 46 53 50 54 57 59 65 78 87 94 68 99 99 99 98
30 30 29 29 28 29 32 30 36 41 39 42 53 40 35 35 33 31 30 28 29 29 28 24 24 23 27 42 54 59 69 74 69 72 77 89 82 99 99 93 99 93 100 79
31 29 28 30 27 28 31 32 36 41 44 41 38 36 37 35 30 30 33 34 32 33 34 32 29 29 36 53 62 69 73 81 86 87 93 99 98 92 87 97 100 91 99 100
32 33 32 29 30 31 33 33 31 37 35 37 37 38 40 35 38 33 34 34 32 29 37 38 34 34 44 71 77 70 71 78 84 91 99 100 99 86 94 100 99 100 100 100
31 35 34 34 34 35 36 34 32 32 34 34 34 41 42 36 38 37 35 34 31 29 29 39 41 38 52 65 70 66 68 80 83 95 99 95 82 94 99 100 97 99 100 100
32 36 36 40 41 42 41 37 36 35 35 33 37 32 33 32 33 33 28 28 32 30 31 47 49 41 49 56 62 74 83 80 90 94 62 72 100 100 100 99 98 98 98 95
36 36 41 39 41 58 35 34 31 23 25 28 30 30 23 22 25 28 33 35 34 34 42 46 43 43 39 61 74 85 84 74 54 61 74 98 100 96 99 90 98 98 95 95
45 40 42 40 41 39 36 32 26 24 26 32 30 32 33 33 31 31 37 39 40 39 36 30 24 21 28 68 74 69 61 59 58 72 96 99 96 99 100 100 97 96 96 70
48 45 42 46 47 68 37 28 28 36 45 38 36 34 31 29 28 35 35 31 30 28 28 25 25 28 34 49 66 69 68 74 99 99 98 99 99 87 98 96 96 83 31 16
53 49 46 45 48 45 40 37 37 40 20 23 31 35 33 33 32 34 35 38 35 32 29 31 37 50 72 78 77 82 98 98 99 99 97 99 98 96 96 91 57 24 17 16
45 52 56 55 58 60 45 46 40 27 40 41 34 36 36 34 39 42 45 39 35 30 31 35 42 51 59 69 84 100 100 99 96 97 97 97 97 93 77 48 25 16 13 13
56 46 50 50 51 47 41 26 21 27 48 48 40 43 44 44 45 48 42 39 32 33 36 43 53 60 70 84 92 93 94 99 99 98 98 95 89 72 41 20 14 14 14 15
53 50 55 52 49 48 40 31 26 27 31 41 44 43 44 48 50 44 43 34 34 37 43 52 58 69 91 94 89 100 99 97 96 93 92 82 48 19 14 14 14 14 15 18
53 53 53 52 49 40 40 29 27 34 39 43 43 42 46 47 49 50 41 39 40 43 50 60 74 86 84 94 99 98 97 92 92 80 42 20 16 15 14 14 15 18 22 18
57 53 51 49 48 46 40 28 33 39 44 43 44 46 50 55 59 60 55 51 47 49 63 77 90 98 99 98 98 91 92 80 46 28 20 17 15 14 15 19 24 21 12 8

GFSCGP_700_rhum_069.txt.gz
RH
44 43 38 32 36 38 39 39 39 37 39 41 37 35 34 39 47 49 55 52 32 49 46 53 50 42 39 41 44 50 62 70 76 81 84 87 86 81 83 90 86 74 59 56
43 40 39 39 39 39 42 43 39 38 40 37 34 33 34 36 39 47 52 44 40 30 26 29 37 44 44 46 54 64 69 73 80 85 90 89 82 81 86 88 75 69 54 64
40 37 37 38 41 41 43 42 39 43 37 34 30 30 31 32 36 39 50 53 44 35 30 29 31 38 44 48 52 57 63 68 74 72 73 78 76 79 85 89 74 60 59 65
36 34 34 38 41 42 41 38 41 43 39 34 31 32 28 30 31 34 36 46 50 43 37 35 35 36 40 46 53 58 63 64 66 64 67 76 82 85 96 89 63 62 62 61
34 35 37 38 39 42 40 39 41 42 39 40 36 36 28 24 25 22 28 32 40 43 41 38 38 38 45 51 52 53 57 61 65 64 67 74 80 88 96 95 65 58 57 61
36 34 34 39 42 39 38 41 42 40 41 45 38 37 31 27 26 29 30 28 33 40 44 47 49 51 57 60 70 74 77 79 84 74 68 75 80 91 98 78 60 54 56 65
37 34 33 34 35 37 40 40 42 44 48 42 40 44 30 26 30 31 28 33 35 38 41 46 50 53 55 55 61 71 74 68 71 73 73 73 82 94 96 74 55 55 64 72
38 36 31 31 34 36 39 40 37 39 44 37 41 42 26 27 26 24 20 23 32 33 37 44 49 52 54 59 66 71 73 69 66 76 80 90 89 97 92 71 64 62 70 75
33 33 29 31 33 37 38 42 38 39 49 55 39 32 29 27 25 26 26 31 32 32 31 34 39 48 55 64 65 81 68 71 85 97 69 69 81 80 76 81 74 80 69 72
32 30 28 31 35 37 40 41 43 40 50 47 39 34 29 26 29 35 27 32 36 30 32 36 40 49 58 67 75 79 67 77 100 76 56 60 69 71 79 72 66 74 82 86
35 33 32 38 39 32 40 44 39 42 41 46 47 36 27 28 29 28 30 27 20 19 20 19 29 39 53 67 69 75 74 69 54 44 50 59 65 69 66 71 87 88 84 91
34 33 31 30 33 34 40 36 32 42 43 43 45 41 33 30 31 34 31 30 27 28 26 23 18 13 14 41 58 56 65 56 57 55 52 56 50 53 79 90 89 89 92 99
33 32 32 32 32 30 30 28 28 30 34 42 53 40 34 32 36 35 32 31 31 31 32 30 25 24 24 17 23 43 52 60 70 77 78 84 85 94 99 94 99 86 96 75
32 30 31 33 29 27 27 25 25 28 42 42 42 39 37 34 35 32 29 31 32 32 28 33 33 28 28 30 40 50 62 68 73 93 93 93 98 100 99 94 99 77 98 98
34 34 32 31 31 28 28 28 32 34 31 43 36 36 34 36 35 36 31 34 34 34 32 29 35 37 33 44 60 63 79 78 77 77 78 86 93 100 99 98 80 88 99 83
30 32 32 33 34 33 33 33 35 34 33 37 36 35 34 33 33 39 36 33 35 34 33 32 30 42 44 50 65 69 74 71 73 82 89 88 99 99 99 87 100 99 77 84
35 31 32 38 36 37 42 34 36 35 34 34 35 32 35 36 37 36 34 31 27 26 27 32 31 38 50 51 58 62 65 71 78 80 76 88 75 98 80 77 99 80 96 97
50 41 38 40 44 68 35 34 35 34 34 31 23 22 28 29 29 24 22 31 34 35 34 32 33 43 49 45 48 54 62 80 84 77 60 95 100 100 98 99 85 98 95 98
52 44 47 45 46 41 38 38 38 36 35 27 20 26 30 31 33 34 33 34 37 38 36 36 39 40 35 27 24 50 79 80 64 63 92 100 93 87 93 98 99 87 87 87
49 48 52 47 46 61 39 38 40 32 29 25 27 28 35 34 32 30 35 40 40 34 31 29 28 27 25 24 27 40 54 61 69 76 77 90 100 98 89 91 88 89 80 56
53 54 53 50 46 42 41 41 41 39 31 29 28 26 41 37 33 38 37 34 33 36 36 31 28 26 27 29 35 46 60 64 93 98 100 91 86 98 91 86 90 72 38 19
47 47 53 52 51 53 44 45 44 32 35 21 32 35 35 38 37 36 36 38 42 39 36 30 30 32 36 43 51 60 82 97 97 91 95 100 98 91 88 81 51 21 16 14
63 47 42 43 45 42 42 40 40 34 33 20 29 40 39 39 39 39 43 45 44 40 33 32 34 39 49 61 75 72 78 89 100 100 100 96 92 84 62 28 19 16 14 14
52 57 51 48 44 43 43 43 43 45 37 27 24 46 44 44 44 45 47 47 43 37 34 35 38 48 62 74 77 76 98 100 98 98 96 89 71 39 24 18 16 15 17 23
57 52 49 42 52 49 50 49 46 44 38 27 29 39 46 45 45 49 50 48 46 42 42 44 53 66 76 81 92 100 99 97 96 94 78 51 34 22 18 16 15 20 26 24
59 55 46 51 46 46 53 59 62 51 34 28 37 44 45 45 48 50 53 57 61 63 58 58 72 88 98 97 100 100 98 96 88 63 43 28 22 18 15 17 25 28 20 10

GFSCGP_700_rhum_072.txt.gz
RH
39 47 43 34 33 34 35 35 35 34 40 39 37 37 47 36 40 49 54 41 57 64 68 71 72 57 54 50 47 46 48 45 44 55 70 78 82 84 87 94 96 96 88 70
44 43 41 39 38 40 38 38 36 38 40 38 36 35 38 31 37 49 57 45 40 44 43 38 35 40 52 51 51 54 58 69 67 75 80 85 86 82 85 87 96 98 74 56
36 40 41 39 42 42 40 40 40 36 43 35 35 32 31 30 33 36 47 56 43 30 26 32 36 41 50 55 58 63 68 73 76 80 84 85 81 82 83 90 99 97 64 57
38 40 38 41 40 44 40 42 42 42 41 29 31 22 26 33 28 30 35 48 44 33 28 29 36 40 42 48 52 59 64 69 73 77 82 86 90 94 93 100 99 83 61 61
37 38 34 42 43 43 42 40 44 45 39 36 34 24 23 24 26 28 25 31 40 44 33 32 32 34 39 44 50 54 57 61 66 73 78 81 80 86 92 98 99 99 63 58
35 35 36 43 39 41 43 43 49 48 40 32 32 30 21 24 28 33 35 29 30 38 40 34 34 36 38 44 49 53 58 64 67 73 76 80 80 81 88 95 91 91 64 56
38 39 42 35 44 39 40 45 37 40 36 32 41 35 26 26 31 29 29 28 34 34 39 43 44 42 43 53 57 59 63 66 71 78 86 96 85 79 84 91 94 84 64 59
36 35 40 37 38 35 40 40 34 36 35 28 36 29 25 26 27 24 20 21 26 30 34 38 46 49 52 52 58 61 68 80 82 84 80 84 84 84 84 92 93 81 70 68
33 30 33 33 31 39 47 42 40 42 36 38 28 30 24 27 27 26 27 27 32 32 33 34 42 51 56 57 60 64 72 78 77 64 75 75 81 86 82 91 100 84 75 75
33 30 33 33 32 36 39 40 41 41 40 37 25 27 24 26 29 31 33 30 36 32 31 30 32 39 52 60 65 69 74 77 67 72 88 93 73 82 91 89 90 83 81 69
34 34 46 33 46 38 44 43 41 40 39 35 34 27 28 26 29 33 34 24 24 20 20 32 35 37 40 50 62 70 74 79 78 78 73 61 63 62 74 78 79 83 80 94
35 36 34 36 42 38 41 38 43 36 36 43 43 34 31 32 32 31 32 32 31 28 27 27 22 16 29 48 57 64 73 80 79 56 51 50 54 57 65 74 84 91 99 99
39 38 36 36 40 35 42 43 45 42 34 36 44 36 32 32 35 32 32 29 30 32 31 31 30 25 20 21 38 49 61 73 71 56 68 74 79 84 94 98 94 99 100 98
27 34 35 32 27 27 36 34 37 36 36 33 31 31 29 35 37 36 35 28 26 31 32 28 30 33 24 26 20 22 28 44 56 63 80 87 89 83 89 87 99 100 99 98
35 34 37 32 29 28 30 28 33 36 33 28 32 30 28 34 36 37 39 33 26 30 33 34 32 32 36 28 27 30 42 49 60 71 78 78 81 83 98 98 100 98 94 79
35 38 40 38 35 34 34 34 34 38 37 37 38 32 32 33 36 33 37 39 35 32 30 34 34 31 32 38 39 51 55 62 65 76 76 74 81 91 97 98 100 89 96 99
41 38 41 40 41 45 44 32 39 38 35 38 34 31 34 35 36 34 38 38 37 35 34 32 29 29 32 36 51 60 61 59 59 68 71 75 83 76 89 88 94 88 98 94
68 48 48 40 40 74 35 35 37 38 36 37 34 36 39 33 26 25 28 32 28 23 28 31 32 32 34 40 54 59 58 58 59 63 75 84 82 67 90 99 78 96 97 87
61 69 52 51 51 38 37 37 34 34 35 36 38 34 33 27 26 27 27 28 33 35 36 36 36 36 38 44 46 44 45 49 59 74 87 74 66 93 91 88 100 97 88 80
54 60 69 52 57 75 36 34 32 38 39 38 33 30 16 28 34 42 32 33 36 38 39 38 35 32 30 29 27 25 30 51 74 69 63 75 81 84 100 92 78 94 84 86
62 62 71 68 62 48 39 37 40 43 34 38 36 27 18 23 36 39 32 32 36 40 35 32 35 32 28 26 26 27 31 40 46 56 60 98 99 98 86 93 95 89 82 57
71 67 60 72 69 68 41 41 42 34 40 39 39 28 18 26 36 38 35 38 38 34 36 40 35 30 29 30 33 38 46 52 62 73 92 94 93 96 99 96 89 72 41 29
59 60 64 50 50 44 39 37 41 43 42 41 37 36 23 24 34 38 39 38 37 40 44 40 34 32 33 39 46 54 60 72 75 84 90 92 99 97 95 87 54 37 26 21
38 44 58 59 55 46 44 43 43 43 44 44 46 38 28 30 38 40 41 40 42 46 45 39 35 35 36 45 57 69 76 78 92 99 100 99 96 93 72 45 32 25 18 14
48 57 45 48 50 47 39 43 45 51 47 47 50 39 34 31 41 43 44 45 47 49 47 43 44 45 48 58 68 76 84 90 97 98 98 96 81 53 38 28 24 16 16 24
49 54 52 50 46 49 48 46 52 57 53 55 48 45 39 36 44 47 47 48 52 50 55 61 64 60 63 81 94 98 95 99 99 98 91 67 47 33 28 22 16 20 28 31

GFSCGP_700_rhum_075.txt.gz
RH
44 41 37 31 30 27 28 27 26 28 33 32 28 30 32 54 62 67 68 92 76 49 45 36 36 40 54 48 51 64 85 70 60 42 25 32 64 74 76 82 78 80 83 84
39 37 34 34 29 29 31 30 28 29 29 34 31 30 34 42 52 64 77 77 88 93 35 42 30 33 41 45 44 59 77 78 66 49 48 60 76 82 84 88 90 96 97 98
35 32 34 38 32 33 33 32 33 34 33 34 31 28 27 33 49 59 74 73 84 87 27 26 30 40 46 48 50 64 72 78 76 54 65 76 81 82 81 84 87 91 94 90
34 30 37 36 35 36 33 33 36 35 32 40 30 28 37 27 38 51 63 68 72 78 26 30 33 42 46 52 56 57 59 74 77 79 78 82 82 85 86 88 88 95 98 86
31 31 35 37 36 35 34 40 37 36 33 28 25 19 22 22 25 32 46 62 68 74 52 26 31 36 41 49 51 57 61 65 68 72 75 80 84 88 84 85 91 94 94 99
29 30 33 34 35 38 39 42 39 38 35 33 25 24 23 21 19 29 29 45 59 68 72 67 31 31 37 42 46 49 53 54 59 60 69 73 80 84 83 91 90 95 86 80
32 32 36 39 40 40 41 39 37 39 34 34 35 26 20 28 23 28 28 33 43 60 73 75 73 46 33 35 39 43 47 51 55 57 64 70 77 86 89 87 87 95 90 89
31 28 34 39 37 38 37 35 34 46 39 30 37 24 21 24 27 26 29 32 36 43 60 74 80 78 40 36 38 48 50 52 57 62 69 78 84 90 81 76 88 89 96 100
27 26 29 33 37 36 33 34 32 36 34 32 28 23 24 23 23 26 29 35 39 46 45 56 72 85 69 46 45 47 54 57 62 71 80 80 77 91 89 97 97 93 95 100
26 26 27 33 35 35 38 40 37 34 37 48 24 22 20 23 23 30 28 30 44 40 33 39 60 76 90 67 51 54 58 62 73 75 78 68 71 81 100 94 96 92 98 100
28 29 28 32 38 33 37 38 37 32 38 38 35 23 35 23 24 27 30 32 34 42 24 31 35 55 80 88 46 55 62 67 73 75 76 66 77 89 88 75 81 88 99 100
31 31 29 33 33 31 30 34 32 33 30 31 30 30 28 27 27 30 31 31 34 36 40 25 24 28 34 38 44 48 59 71 76 76 77 78 76 58 58 61 62 86 100 100
34 32 31 30 31 38 36 35 35 35 33 33 50 41 27 28 32 32 33 31 32 38 42 32 29 26 25 20 36 47 57 67 80 78 66 76 62 60 66 69 79 90 92 99
38 32 33 32 28 31 33 30 30 31 36 39 33 28 24 24 29 36 33 32 33 31 38 49 37 26 31 26 23 43 53 63 67 57 71 69 63 62 77 80 84 98 92 94
43 36 33 29 26 25 24 26 28 29 31 32 31 28 22 24 27 28 31 34 36 36 35 41 50 54 31 31 31 26 32 46 46 45 49 63 66 73 76 85 93 99 100 100
47 43 36 30 30 27 24 24 25 24 24 26 25 25 25 28 27 28 31 36 40 42 36 30 28 52 35 33 33 34 29 26 30 42 50 61 62 63 71 82 92 100 100 100
52 48 37 38 33 31 31 30 28 27 26 28 30 28 28 28 28 31 31 33 44 41 37 36 35 33 32 31 31 35 37 36 48 57 60 59 60 66 77 92 100 100 97 85
69 57 46 49 42 58 38 37 32 31 28 30 31 31 30 30 30 33 32 24 29 34 39 37 29 25 26 27 28 25 43 51 56 60 60 62 64 72 91 92 93 79 93 91
65 75 60 57 54 43 34 35 35 33 31 30 31 33 33 32 31 25 22 22 25 22 21 25 34 36 39 41 44 47 50 54 56 60 60 66 80 92 87 75 90 89 86 96
53 71 76 63 58 60 37 38 39 34 34 32 33 34 36 35 22 27 33 34 30 31 33 36 37 38 36 34 31 30 29 27 29 40 66 87 85 74 69 73 82 99 94 82
74 84 84 78 64 46 37 37 37 43 30 34 36 36 38 37 36 18 29 41 33 32 36 38 38 34 31 33 32 27 24 24 28 39 53 56 58 58 79 94 94 82 84 92
87 81 78 74 73 75 42 41 42 32 41 46 43 42 36 35 37 18 24 39 35 33 38 39 34 34 38 33 28 27 27 28 34 43 48 50 56 85 97 88 90 95 93 86
57 76 71 63 62 57 49 41 42 42 40 50 43 42 42 42 38 23 27 38 37 38 39 35 36 42 38 32 29 30 33 40 47 52 60 62 74 83 87 96 98 96 83 48
39 40 44 47 55 61 61 48 45 43 43 44 44 50 50 48 42 31 30 35 38 39 38 38 43 44 40 34 34 36 40 49 60 67 68 81 92 100 99 96 94 65 41 30
44 44 49 47 46 47 58 56 47 43 45 51 53 50 50 50 46 35 37 40 42 42 42 43 47 46 42 40 41 44 51 64 76 83 87 94 100 98 97 83 54 39 32 25
50 47 52 65 29 43 50 52 44 44 44 46 51 55 53 57 47 41 39 45 46 46 47 47 50 51 54 56 58 64 76 88 97 98 96 98 100 95 70 49 35 31 25 18

GFSCGP_700_rhum_078.txt.gz
RH
46 45 39 36 33 32 27 27 25 25 30 33 32 23 28 49 53 59 57 28 32 33 35 41 46 59 79 91 96 86 71 60 60 66 47 67 55 43 42 59 76 86 62 65
43 41 38 34 32 30 26 25 26 26 26 32 29 26 31 38 51 53 59 32 27 26 21 27 31 28 33 57 73 63 53 58 49 44 25 24 52 52 73 86 86 89 79 85
40 34 36 32 32 30 28 29 30 32 29 33 31 28 28 36 50 53 63 69 47 22 21 22 26 35 36 42 51 64 61 66 73 72 38 44 64 76 73 78 80 77 86 94
32 33 32 33 34 31 31 29 31 30 31 29 34 34 28 32 43 47 61 71 77 50 24 26 30 37 43 49 55 58 61 69 67 66 66 70 71 69 70 74 77 85 89 93
31 30 31 31 32 32 32 32 38 34 32 31 36 37 22 31 36 38 50 64 72 62 29 25 28 31 37 44 46 55 61 64 69 68 70 72 72 77 77 76 73 84 85 87
29 28 29 28 32 33 33 34 39 35 35 35 29 28 29 29 28 25 37 51 64 69 60 34 27 30 34 38 43 48 46 53 57 66 69 68 70 76 71 68 77 88 83 83
28 27 27 28 30 32 34 37 38 53 46 40 32 32 28 24 26 25 27 35 43 62 68 61 47 28 29 33 37 40 46 49 49 44 58 62 64 72 71 73 81 91 88 87
30 27 27 30 35 36 36 36 37 54 86 55 44 32 20 26 27 28 27 28 35 46 53 66 74 66 46 30 31 36 40 44 48 46 51 58 63 69 72 76 84 80 77 84
27 27 28 29 34 36 36 36 34 33 39 53 46 36 28 23 23 23 25 28 30 35 42 54 66 75 76 67 41 34 35 44 46 50 56 61 68 78 78 83 84 84 88 94
29 29 28 26 31 34 35 41 36 31 47 46 26 24 41 32 27 25 28 30 38 46 48 48 56 64 74 74 79 58 44 40 46 50 56 61 72 80 78 75 80 88 97 98
31 30 28 24 29 30 32 33 42 36 32 44 51 31 30 38 34 31 27 30 32 35 48 35 44 54 64 72 78 87 75 55 52 56 59 69 74 79 79 68 76 87 75 73
31 31 31 29 29 31 29 32 36 36 33 41 44 42 28 30 27 27 28 29 30 35 37 40 20 47 64 74 79 92 86 79 65 64 66 67 76 79 74 76 83 62 65 63
33 32 36 30 30 31 32 29 31 31 30 33 47 40 35 29 26 31 31 31 31 31 36 42 50 29 26 45 83 91 44 32 65 91 89 63 77 81 82 83 62 60 75 82
35 35 34 37 34 31 30 28 28 34 37 40 40 34 29 27 24 28 31 34 41 31 31 37 48 56 29 24 29 47 76 70 78 85 70 64 78 63 77 80 67 74 88 86
44 48 36 31 30 28 29 31 31 29 28 28 31 31 30 26 22 27 33 34 39 34 34 34 36 52 64 44 30 30 57 40 43 49 59 57 59 58 75 74 76 96 93 100
39 47 44 38 31 31 29 28 26 27 26 25 26 26 24 23 22 28 30 28 29 36 40 38 37 40 60 79 51 36 34 41 49 48 48 50 61 52 64 85 79 78 100 100
59 48 44 45 37 31 29 26 26 22 24 24 24 25 26 27 29 28 28 31 31 31 38 42 36 37 63 58 35 37 38 41 40 41 42 48 47 60 68 66 72 86 99 100
66 63 53 51 43 54 36 31 29 28 28 29 28 26 28 29 28 28 30 32 30 30 34 36 34 41 41 39 39 32 31 27 29 40 45 47 56 64 68 70 86 100 100 100
82 74 91 65 53 46 38 37 36 34 33 32 30 29 30 30 30 32 33 30 25 20 22 22 21 20 21 23 35 40 44 47 48 51 56 60 61 66 75 91 100 100 91 99
61 74 75 72 64 70 50 38 36 34 36 32 32 31 30 33 36 36 31 20 28 33 29 27 27 26 34 36 36 33 30 29 30 30 28 28 35 71 96 99 85 84 82 86
83 86 85 68 72 55 45 41 36 41 39 25 36 35 35 37 37 37 36 19 18 29 36 31 32 34 34 36 33 30 34 34 28 23 26 36 62 76 73 71 75 89 100 100
51 95 81 85 73 68 48 40 37 38 34 34 43 44 40 40 38 36 39 37 18 28 37 33 36 36 37 36 33 38 37 29 25 27 32 44 53 58 66 73 99 100 100 92
63 46 78 68 61 61 51 51 46 44 40 44 53 50 50 43 43 46 45 43 25 27 39 37 38 39 36 35 40 41 35 30 30 34 41 51 60 60 65 78 94 96 99 100
31 53 63 61 61 66 76 66 56 54 45 46 44 43 47 48 49 48 48 45 31 28 38 41 41 39 36 40 44 43 37 35 36 41 49 61 73 76 86 94 96 100 99 98
41 36 47 53 54 48 47 48 61 58 56 50 48 47 48 50 51 51 49 49 36 36 40 42 42 38 39 43 46 46 42 41 43 47 61 76 85 88 96 98 100 100 95 91
43 42 44 50 52 46 43 28 65 60 50 43 48 50 50 56 56 52 53 58 44 41 44 46 45 42 43 45 49 50 48 51 58 66 69 93 100 100 100 100 97 96 88 84

GFSCGP_700_rhum_081.txt.gz
RH
45 47 40 15 32 36 37 36 33 27 31 36 33 33 31 37 51 55 64 46 26 23 28 39 72 89 99 100 96 93 82 78 79 81 85 79 76 83 94 93 89 85 79 83
51 48 31 26 38 37 36 33 27 26 30 36 32 32 27 40 44 52 52 51 27 16 20 26 25 62 71 67 60 56 56 56 56 54 60 64 66 68 74 62 68 76 79 84
49 23 36 40 38 34 33 30 28 28 31 30 31 34 33 36 48 53 52 48 31 23 22 21 26 29 43 53 52 51 42 34 34 20 25 47 42 42 43 54 64 73 90 88
43 39 39 40 40 35 33 31 30 33 33 31 34 37 33 36 47 49 52 50 29 27 24 26 28 32 39 41 47 49 45 53 55 51 43 50 59 60 68 74 79 81 79 82
31 38 38 35 33 33 34 31 33 37 36 34 34 38 34 30 38 48 47 49 41 32 26 24 26 31 36 33 39 44 50 49 47 54 59 60 64 70 75 77 74 76 84 89
32 33 30 32 31 31 31 33 33 38 39 43 35 38 40 34 31 36 40 43 42 39 40 30 26 28 32 34 34 38 44 49 50 53 60 66 68 75 72 69 64 72 83 88
36 35 34 31 30 29 32 33 43 58 60 64 48 51 40 30 29 29 31 38 36 42 43 43 43 26 26 28 32 34 34 34 38 42 44 45 54 63 66 67 69 79 85 85
43 39 31 30 29 28 29 32 42 64 85 82 52 57 34 28 29 32 30 33 37 46 49 50 46 46 44 28 29 32 35 39 44 45 49 51 54 56 60 62 65 77 89 93
35 37 31 28 28 28 34 36 36 41 56 66 56 40 34 36 32 26 24 25 28 40 46 50 53 53 53 51 44 32 31 34 39 42 45 48 57 65 62 67 73 86 89 87
38 35 27 29 27 31 30 37 38 38 74 82 45 46 36 35 31 27 26 28 30 39 50 55 55 54 56 57 52 52 51 48 39 39 44 50 54 59 70 72 79 82 86 80
36 37 32 35 29 30 33 34 43 47 46 59 60 39 30 33 31 30 29 30 30 32 36 39 51 55 62 59 57 56 54 48 52 65 55 44 51 62 72 73 84 84 81 82
35 38 40 35 35 33 29 32 34 41 46 40 41 42 33 40 32 28 28 28 30 32 31 34 28 47 60 58 63 60 59 47 47 58 67 78 59 61 76 81 82 76 80 79
38 40 50 43 39 37 29 32 31 31 36 42 59 43 32 35 37 28 27 30 31 30 32 32 31 33 42 52 58 58 60 55 63 70 82 80 79 68 77 99 94 90 83 77
44 53 54 50 45 38 37 30 30 33 35 33 36 36 38 36 31 27 27 27 31 35 36 32 35 41 41 40 33 48 52 61 65 68 69 40 50 65 95 72 78 91 83 81
46 49 47 43 40 41 43 34 31 29 29 35 40 43 35 32 31 28 27 30 31 35 38 37 35 39 40 47 47 34 34 39 44 49 56 54 57 71 84 74 77 76 84 81
52 53 51 48 41 40 37 45 32 30 30 27 31 30 30 29 29 24 24 28 29 34 36 36 36 35 40 44 46 50 31 38 49 54 54 50 58 63 65 67 74 74 74 74
52 62 53 55 46 48 45 37 38 37 33 28 26 25 25 25 25 27 28 30 30 31 30 30 32 35 38 38 37 41 53 51 44 46 49 50 51 58 62 63 65 71 77 84
62 68 59 73 65 68 45 36 32 33 32 29 28 26 26 28 26 27 28 28 30 30 30 30 31 33 39 40 40 44 47 47 36 34 37 38 47 56 57 60 66 76 99 100
71 93 72 92 60 64 47 39 35 33 34 30 29 27 28 28 29 31 32 33 33 32 31 22 17 21 26 24 25 36 30 35 44 48 47 47 54 59 64 67 71 88 100 99
57 72 80 88 94 89 52 40 38 37 36 33 29 27 31 30 30 32 35 36 36 34 18 11 22 28 27 27 28 36 39 38 32 28 30 31 32 31 31 39 81 100 98 99
80 89 91 91 99 64 56 42 43 42 39 31 28 34 39 34 33 35 37 36 33 32 24 11 18 31 31 34 36 38 36 32 31 36 34 26 22 22 27 52 96 100 92 82
71 73 66 67 98 94 55 48 44 41 37 29 34 36 38 43 38 36 36 34 36 41 38 18 23 32 32 35 36 37 36 33 37 40 32 25 26 30 46 64 74 72 77 99
50 33 38 49 68 62 54 47 51 51 49 47 46 42 48 50 47 43 41 43 45 46 45 32 21 32 36 37 38 38 36 37 42 41 34 32 33 42 62 68 62 81 100 100
57 49 41 44 50 63 57 61 48 60 52 48 45 42 47 50 47 49 47 48 49 47 46 39 28 33 39 40 40 38 37 41 45 44 41 41 45 52 59 70 84 94 97 100
34 38 41 43 51 56 63 55 56 64 65 58 58 55 52 49 49 52 53 54 52 50 49 40 38 40 44 44 43 39 38 43 46 48 49 53 60 72 92 100 100 100 100 98
33 40 59 62 59 60 52 49 52 54 64 53 55 53 54 50 50 55 56 56 55 57 60 57 47 45 46 47 46 43 42 44 49 53 63 83 96 100 100 98 98 97 96 96

GFSCGP_700_rhum_084.txt.gz
RH
31 37 21 13 20 16 26 40 41 39 31 36 37 35 36 44 41 39 43 43 55 17 19 19 25 61 96 86 91 98 99 100 100 100 100 100 100 97 87 99 100 100 82 87
44 32 15 14 17 23 36 41 39 36 27 32 34 34 35 35 31 34 43 46 54 21 20 21 24 36 39 66 68 74 78 70 93 96 100 100 96 78 84 98 99 76 74 71
32 19 22 25 25 36 39 42 39 31 28 32 33 35 35 34 34 38 45 50 45 23 21 24 28 30 41 44 40 27 18 26 45 52 58 62 66 74 83 84 78 72 73 76
29 19 33 44 35 41 45 39 34 32 38 36 34 39 33 35 39 38 42 42 45 37 20 21 23 23 34 46 46 27 28 24 27 39 36 40 44 46 52 61 66 74 78 76
27 22 28 35 33 38 41 39 33 32 34 37 36 39 34 38 40 38 39 38 42 47 33 23 24 26 27 34 46 43 49 51 43 43 49 52 53 53 59 62 69 73 77 83
32 24 33 31 32 37 38 34 32 34 40 47 47 47 34 35 34 36 41 39 38 39 47 35 28 32 29 30 32 42 48 49 47 50 54 57 61 66 68 69 67 72 79 82
40 30 25 32 34 33 32 33 40 50 53 61 48 51 42 34 32 31 33 33 34 38 43 47 43 29 26 25 28 31 32 34 44 50 51 58 67 72 70 67 70 73 76 80
43 41 28 30 36 34 33 32 39 58 76 68 50 47 38 37 36 35 31 32 33 38 41 44 46 50 47 30 27 28 31 34 35 38 39 43 49 58 65 61 65 71 77 86
41 43 27 27 33 34 31 33 32 34 62 66 51 44 40 33 33 30 32 27 34 37 39 41 47 52 54 54 52 44 30 31 34 38 41 42 46 50 56 59 61 63 71 80
38 42 33 29 30 31 32 30 36 41 77 74 56 52 42 36 32 28 25 25 26 29 33 38 49 53 52 53 53 53 54 50 39 38 38 40 44 48 60 64 64 69 74 91
40 41 39 34 30 31 31 32 38 38 40 74 67 43 34 31 30 30 27 27 28 30 34 40 36 36 54 53 54 53 51 51 54 55 58 55 50 44 50 63 66 68 77 89
40 38 43 33 32 33 31 31 31 41 51 48 46 47 31 36 35 31 29 30 30 28 29 31 31 32 30 36 51 54 53 56 56 56 52 47 60 72 85 65 71 80 94 96
41 38 44 38 34 32 37 38 35 34 38 47 64 48 36 33 37 31 30 28 29 31 30 30 34 33 32 30 32 48 45 49 53 53 52 49 46 55 75 82 81 92 98 74
46 39 37 43 37 35 36 38 37 34 40 42 44 44 39 37 36 36 36 32 28 27 31 32 35 33 35 37 31 25 21 22 32 43 45 41 35 46 55 58 91 100 86 87
79 46 39 42 39 42 44 41 42 37 33 37 34 33 33 34 38 38 32 29 28 30 32 33 35 35 36 38 45 41 34 30 25 27 33 42 55 61 67 79 92 80 73 77
88 65 51 43 45 49 60 60 43 43 35 32 32 32 30 33 30 29 31 28 26 30 30 33 36 37 36 36 38 37 44 48 40 37 41 43 51 58 61 65 60 62 65 72
96 86 59 53 51 53 58 56 50 44 40 38 35 32 28 31 28 28 26 28 30 30 32 32 34 33 32 33 37 37 39 42 54 60 54 52 50 50 52 52 55 64 72 80
98 99 66 59 53 70 71 57 49 44 43 37 36 31 29 28 27 28 28 27 29 30 31 31 32 32 32 34 38 41 43 44 60 63 55 49 52 56 54 54 58 64 67 72
96 98 97 81 72 58 61 49 42 44 40 35 39 31 28 29 28 28 28 31 32 33 33 32 33 34 26 18 23 43 38 37 40 45 38 45 49 49 46 45 53 62 65 72
98 99 95 97 100 88 58 49 41 42 42 34 38 31 30 29 31 30 30 32 33 33 35 36 35 23 11 16 27 30 32 35 37 40 45 37 31 32 33 34 38 47 46 80
98 90 89 87 98 84 62 56 45 52 43 37 38 37 36 32 32 32 32 37 37 36 33 28 27 31 12 26 32 31 33 38 42 37 32 35 38 36 28 23 23 26 51 97
97 89 94 88 96 92 58 60 57 53 46 40 42 43 38 39 42 38 38 38 36 36 36 36 39 40 24 25 32 35 37 38 36 35 36 40 42 38 31 29 31 49 87 99
57 80 59 57 52 51 53 67 67 59 50 44 40 39 35 35 44 45 48 46 42 43 46 45 44 42 40 29 35 37 38 37 36 37 38 40 44 43 40 39 54 93 100 100
50 49 59 52 39 46 53 64 73 70 60 46 42 48 49 52 51 53 52 49 49 49 51 50 46 42 43 35 35 41 41 39 38 37 38 42 46 48 50 69 100 100 100 100
50 44 48 54 44 41 58 59 63 63 58 57 56 52 56 55 53 51 51 53 53 52 51 50 46 48 52 50 44 39 42 44 43 41 42 46 53 64 84 99 100 100 99 98
48 43 42 32 34 44 48 57 58 44 41 50 59 73 67 60 59 58 54 53 55 54 56 56 56 54 54 57 59 56 51 54 55 57 59 66 82 97 99 97 98 98 98 99

GFSCGP_700_rhum_087.txt.gz
RH
18 28 18 17 27 25 30 34 38 39 35 40 33 35 34 34 36 31 33 39 41 47 20 24 40 82 100 88 90 100 100 100 100 100 96 92 98 97 98 100 100 97 99 99
22 28 19 23 30 35 36 36 24 36 35 38 31 32 32 34 34 33 35 40 48 43 21 24 30 36 80 95 98 88 86 99 96 100 100 100 100 100 100 100 100 100 98 88
18 20 22 24 26 36 28 29 34 36 35 38 36 36 34 33 33 33 33 36 37 40 22 21 24 35 31 31 54 55 77 97 89 99 99 99 100 100 99 99 100 92 100 89
26 17 27 36 40 28 31 32 36 40 41 38 38 42 36 34 33 34 36 37 38 43 31 20 21 21 29 32 14 13 24 41 59 89 98 98 98 97 81 90 97 100 91 82
28 22 20 32 23 40 35 37 41 40 42 38 37 40 36 36 34 33 35 36 37 45 41 23 23 23 22 30 34 36 35 34 35 40 48 53 57 62 65 65 68 66 70 68
36 30 28 22 22 35 38 41 41 42 40 51 40 43 37 34 25 31 32 35 38 42 49 45 24 23 22 21 20 27 36 36 38 42 43 47 51 53 56 60 63 69 70 69
32 41 33 32 33 30 37 42 50 54 52 61 38 56 37 29 30 34 30 32 33 37 41 48 41 39 28 23 24 24 26 30 39 44 45 51 52 53 57 60 63 67 72 73
21 29 36 32 30 32 36 38 45 57 73 55 51 58 38 33 34 33 30 31 32 35 36 42 43 44 49 38 26 26 28 31 31 34 40 49 54 52 59 63 64 68 69 72
39 41 32 26 26 26 31 39 35 36 59 70 50 46 37 35 34 32 30 32 30 33 35 40 44 46 50 50 48 46 32 29 33 36 37 40 44 46 50 52 56 62 74 80
34 36 40 36 34 28 30 34 37 44 73 80 61 50 39 36 34 32 31 30 27 26 32 34 38 44 49 52 53 51 56 36 36 37 39 41 43 46 49 53 57 61 66 72
67 52 41 40 38 37 34 36 37 36 38 54 70 49 36 35 31 32 29 26 26 28 29 30 32 40 38 51 52 53 50 56 54 48 46 44 44 43 45 46 49 62 70 74
92 82 49 43 38 40 36 32 33 42 54 45 43 45 33 33 32 31 33 29 29 30 29 27 31 30 31 32 33 48 55 52 54 63 62 60 64 65 68 73 77 76 67 70
98 77 60 50 41 33 39 40 39 38 37 41 58 48 38 38 36 35 33 32 33 31 29 29 30 31 33 33 32 29 43 52 50 54 56 60 61 65 61 68 75 69 80 99
83 98 98 58 44 37 37 35 38 38 41 43 47 41 39 38 35 34 34 32 31 30 31 29 32 32 34 34 35 29 28 25 24 28 38 52 54 53 55 50 57 70 91 92
79 98 89 64 50 38 39 36 38 40 42 41 41 39 35 35 38 37 35 37 32 31 31 32 32 33 36 36 36 38 41 38 37 33 34 30 35 46 56 68 74 79 82 86
93 94 98 79 53 42 37 37 42 43 45 46 44 36 34 31 33 33 34 35 34 33 32 30 33 31 34 36 35 37 38 38 38 38 41 42 41 48 52 55 59 66 64 65
95 94 99 86 61 51 53 43 44 42 43 52 41 40 36 33 31 32 32 30 31 29 28 31 31 31 33 35 36 36 37 36 45 49 53 56 54 52 51 48 48 52 61 59
89 95 97 95 66 77 56 49 43 41 40 51 52 41 35 33 31 29 29 28 27 28 29 31 30 32 34 33 32 32 37 47 66 72 66 58 56 48 44 48 59 72 70 68
60 79 98 97 74 59 56 53 47 57 61 54 46 47 41 32 31 29 29 28 28 28 30 31 32 33 33 34 30 24 20 40 67 73 55 52 54 53 55 59 66 64 61 58
52 85 90 91 98 87 60 48 54 75 72 56 49 48 39 33 30 29 29 28 29 32 33 34 34 36 35 30 24 12 16 27 53 45 52 56 50 48 52 38 34 36 33 33
100 100 99 99 98 77 62 64 71 88 61 44 52 54 44 40 36 32 30 29 32 34 35 37 34 31 28 30 31 17 27 32 37 43 43 48 50 37 33 38 40 36 28 25
71 98 100 99 98 90 49 70 71 62 51 59 58 57 45 43 43 40 34 35 36 37 36 36 37 36 36 38 38 33 26 33 38 43 43 40 35 36 37 41 43 42 37 37
72 52 58 66 62 46 60 60 66 88 65 66 58 64 49 44 42 40 40 39 39 41 43 44 41 38 43 44 41 41 35 35 38 39 38 36 36 38 40 43 45 47 48 57
57 50 64 50 42 46 42 46 61 76 82 74 81 65 56 49 45 44 47 47 47 48 49 48 48 47 46 44 44 49 44 38 41 44 42 39 39 43 48 51 60 71 92 100
78 56 57 49 40 49 40 47 58 61 77 90 83 78 62 69 60 58 54 56 55 54 52 51 50 52 52 53 52 54 58 59 57 58 58 55 55 64 78 86 94 98 98 99
59 52 58 46 42 49 45 58 60 85 78 84 90 90 92 73 59 63 62 64 62 58 55 55 56 59 60 61 62 67 69 73 78 84 87 89 94 96 92 91 98 99 98 98

GFSCGP_700_rhum_090.txt.gz
RH
13 21 27 21 20 21 26 26 32 29 35 37 36 31 28 32 33 34 35 37 47 47 36 24 34 52 100 94 94 94 92 100 98 95 99 100 98 94 72 58 49 73 98 86
19 21 20 21 23 29 31 34 24 22 33 34 37 34 30 33 34 33 34 34 44 41 34 23 28 31 79 88 77 80 98 100 99 100 100 100 100 95 50 83 98 88 100 98
26 24 19 22 26 33 34 35 25 21 28 35 37 37 34 34 35 34 32 34 35 43 45 24 21 36 22 69 79 83 90 98 100 98 98 100 100 99 82 99 100 98 98 98
36 31 27 38 35 29 36 24 25 18 31 44 43 49 39 35 34 32 32 30 35 39 45 28 23 26 28 14 23 47 67 88 98 100 98 100 100 100 97 98 98 100 100 100
27 31 26 29 32 42 32 31 27 27 46 50 46 48 41 35 36 28 32 34 34 39 43 34 23 21 26 30 27 26 31 41 60 68 78 89 95 100 99 100 100 100 100 100
41 36 32 28 23 38 39 43 41 49 50 64 46 44 39 35 31 29 32 32 33 37 44 49 36 26 22 25 30 32 33 33 33 41 46 52 59 69 78 81 88 87 87 89
43 46 40 38 31 35 27 41 53 58 66 69 40 51 37 33 27 28 31 33 32 34 40 49 43 42 33 24 24 29 33 36 35 33 33 39 44 50 56 60 63 60 59 61
13 14 20 37 39 34 34 31 50 62 67 52 47 62 34 29 32 29 35 31 32 32 36 41 40 43 48 45 28 26 28 31 32 36 36 37 37 38 43 50 57 56 59 63
42 26 24 17 14 26 33 45 39 42 62 65 44 45 35 32 29 33 34 31 28 31 30 36 43 43 46 48 50 44 30 31 32 37 40 40 42 43 43 46 50 56 62 67
46 46 39 41 38 36 34 28 38 48 71 77 61 56 38 34 35 36 33 32 29 30 28 34 38 39 43 48 50 51 50 41 35 36 38 42 47 49 52 57 57 60 69 74
67 79 52 38 40 41 41 39 34 40 41 59 62 50 36 31 27 35 33 30 29 27 26 27 29 32 36 44 50 54 51 53 51 41 39 44 45 48 52 55 59 62 65 68
45 88 96 58 35 44 45 38 35 41 48 51 45 42 34 32 34 33 34 30 26 27 29 30 28 30 36 35 32 32 43 58 53 57 57 57 59 52 50 50 51 54 54 66
61 97 94 62 53 40 39 40 45 42 39 42 54 45 35 32 33 36 33 34 30 30 30 28 28 30 31 33 33 33 31 37 51 54 64 71 75 58 59 59 61 63 69 76
44 70 88 95 88 81 76 44 34 38 47 47 44 46 39 34 33 35 36 35 33 32 31 30 30 30 31 34 34 33 31 31 29 31 29 48 57 60 62 63 69 72 67 77
88 78 68 72 77 90 68 69 44 30 32 44 43 42 37 36 34 35 36 36 33 34 32 31 30 30 30 33 36 35 35 37 37 37 36 33 36 34 35 47 56 59 68 73
98 97 77 74 57 91 84 50 47 38 37 44 45 46 41 36 34 34 39 37 35 36 36 32 30 32 31 32 37 35 35 38 38 38 39 39 40 45 47 51 57 60 56 57
94 99 89 87 68 94 91 49 40 42 42 44 48 46 41 38 34 36 34 33 32 34 36 32 29 30 33 30 32 34 37 41 45 50 51 51 50 63 60 60 60 58 56 56
80 94 96 93 69 97 63 49 39 37 39 39 39 42 44 43 39 37 35 32 29 31 32 31 28 33 31 32 34 38 37 34 42 49 53 63 68 70 62 70 56 58 60 66
56 79 96 83 97 83 81 58 49 49 42 39 38 39 42 46 46 37 35 32 30 29 28 28 29 34 32 33 34 33 35 30 40 55 58 72 78 75 60 64 64 60 59 62
61 69 99 95 96 86 58 78 64 59 57 34 39 47 40 46 47 33 32 31 29 28 28 29 32 34 32 34 34 34 28 21 16 22 51 75 79 60 61 60 61 57 57 37
78 88 99 97 94 79 48 60 94 82 59 57 57 57 55 53 51 39 35 31 31 30 30 31 33 33 34 35 32 30 33 30 21 23 30 46 51 50 49 58 56 39 37 40
76 88 98 99 99 90 59 55 92 88 67 60 63 57 57 54 52 54 43 36 35 35 34 34 35 35 34 33 38 40 39 38 36 33 36 42 45 48 49 42 37 38 41 44
64 69 67 75 92 50 46 69 64 75 86 68 72 74 60 70 67 68 53 52 42 37 40 37 36 36 38 44 47 46 44 44 43 38 40 43 43 42 39 39 42 47 53 57
48 59 69 78 47 41 42 46 62 61 67 88 90 89 81 70 67 59 51 48 43 38 39 45 47 49 51 49 48 48 50 50 53 55 55 55 54 54 54 54 58 66 80 89
53 46 53 64 49 60 47 48 49 57 63 68 76 100 94 89 80 66 54 52 46 51 62 66 56 53 53 54 56 58 60 58 56 55 59 63 68 73 77 80 85 89 92 97
42 37 59 78 82 77 48 36 59 68 72 63 86 94 84 98 97 90 84 69 69 93 76 83 76 60 60 63 66 66 64 65 68 70 73 77 79 80 84 86 87 94 97 96

GFSCGP_700_rhum_093.txt.gz
RH
24 14 27 22 22 25 33 30 28 20 29 23 21 35 34 29 30 33 33 33 35 46 44 30 21 34 83 96 92 82 82 100 99 99 100 100 99 100 100 100 100 100 99 92
33 24 18 17 16 27 28 30 25 21 22 28 27 33 34 33 29 32 34 34 35 37 40 37 19 28 69 98 89 82 81 81 97 100 100 99 99 99 98 99 99 100 100 98
26 26 24 19 18 31 27 30 24 25 27 32 22 27 36 33 35 35 33 32 32 35 41 38 20 23 26 73 79 76 79 91 98 100 99 100 99 100 98 98 99 98 98 99
44 38 33 28 27 24 24 20 26 27 47 42 31 39 41 33 29 30 30 30 33 34 40 40 22 19 24 24 51 66 75 89 98 98 100 100 100 99 99 93 80 84 87 97
18 24 29 33 32 33 30 36 36 36 43 47 47 50 43 40 33 27 30 32 34 35 36 41 26 21 21 27 26 35 43 51 81 99 98 100 98 99 98 98 90 97 99 93
23 24 30 33 30 32 45 49 52 54 56 58 54 48 42 35 30 27 36 31 31 35 39 43 42 26 22 22 30 30 29 32 43 71 93 93 98 100 99 98 95 97 99 98
27 36 38 38 35 37 41 52 46 58 62 51 43 47 39 35 30 29 24 32 36 34 37 41 39 42 28 23 24 31 31 29 28 35 48 63 72 88 94 98 100 98 100 99
22 20 24 31 33 36 34 38 42 47 53 43 49 56 38 34 28 29 30 29 35 34 33 33 35 40 45 34 25 26 29 32 32 32 32 40 46 55 66 77 84 83 69 71
50 41 23 18 26 27 40 52 36 36 45 56 49 47 37 34 28 30 31 32 33 33 31 33 36 41 42 44 47 33 28 30 32 35 38 38 38 38 40 50 57 61 63 66
62 63 37 37 33 27 39 34 49 53 48 44 46 50 38 33 30 35 31 34 32 32 30 33 39 42 40 47 50 49 48 33 32 34 37 40 43 44 44 45 46 49 53 58
62 66 55 37 40 38 41 42 40 42 44 43 42 44 37 34 32 29 32 33 34 31 31 32 36 38 37 40 44 54 52 52 48 33 36 39 41 45 49 50 51 53 58 60
46 49 80 64 38 44 49 46 42 43 43 54 46 39 35 32 33 32 32 32 29 28 27 27 29 30 32 34 40 40 38 50 54 56 52 41 44 47 49 50 54 58 63 68
50 83 89 63 55 56 54 48 50 48 44 42 52 44 38 36 34 33 32 33 31 26 28 30 28 29 31 32 33 33 34 41 53 62 60 62 59 63 63 69 65 57 63 66
62 52 64 57 72 62 68 63 67 80 78 50 49 44 41 33 32 33 30 37 34 30 30 30 28 29 30 32 32 34 28 27 35 46 42 44 54 66 63 62 70 78 72 64
55 76 68 81 49 43 65 66 56 60 58 66 46 46 43 39 34 33 36 35 36 34 33 32 31 31 29 30 32 35 33 32 32 35 35 34 36 44 53 69 71 68 69 71
98 93 97 96 80 61 44 48 56 55 60 60 58 47 38 42 38 35 34 37 33 44 37 33 31 32 29 29 32 36 36 34 38 39 38 38 36 35 38 40 41 53 58 62
88 94 93 93 83 91 88 49 73 62 48 53 55 42 43 40 40 38 35 37 35 38 43 36 35 32 32 31 32 32 37 37 38 43 48 50 47 44 42 49 57 58 58 59
71 88 88 97 86 87 54 59 77 75 54 47 45 49 45 44 42 41 38 36 32 34 33 34 38 36 32 32 32 30 32 34 39 40 41 52 56 58 59 62 65 65 64 68
49 64 92 85 88 65 42 56 72 88 52 57 50 43 39 40 41 42 42 41 36 33 32 31 33 34 34 33 32 31 33 35 38 35 35 41 55 59 65 70 78 72 56 58
67 67 86 81 98 74 34 47 46 51 79 70 62 56 46 41 39 39 41 43 37 36 34 32 29 31 30 33 32 33 34 35 34 30 23 18 23 42 71 77 76 60 65 70
92 100 97 93 96 81 53 48 56 56 85 92 90 78 53 52 46 40 41 49 36 33 32 30 30 30 31 36 36 35 34 33 30 31 26 26 29 39 50 61 61 65 69 79
72 95 98 98 95 90 91 79 84 82 94 99 100 86 73 60 61 56 55 48 38 38 34 35 34 35 38 40 36 33 32 36 38 38 38 37 37 40 45 49 52 53 51 45
68 50 67 98 88 77 93 85 82 80 86 91 94 97 80 69 67 63 58 53 56 55 41 45 41 40 38 42 46 40 41 43 44 44 44 43 41 42 45 46 46 46 46 49
51 60 59 68 59 89 81 73 91 88 66 75 77 97 77 74 72 72 76 80 70 69 43 43 42 40 41 44 48 49 48 45 48 53 54 57 59 59 61 64 66 66 67 71
58 56 47 41 43 48 60 81 74 67 63 71 78 81 93 85 84 81 80 86 85 89 80 65 54 47 52 56 59 54 56 56 60 62 61 64 68 70 73 76 80 82 88 95
63 56 60 40 31 48 55 70 65 56 58 65 72 81 89 93 90 88 86 84 81 96 78 63 65 70 70 69 67 69 67 67 69 72 76 79 77 75 76 77 78 80 84 88

GFSCGP_700_rhum_096.txt.gz
RH
19 20 44 40 43 38 32 34 31 28 34 37 31 25 26 30 33 32 30 33 33 34 34 31 23 16 24 77 87 83 86 89 88 98 98 100 100 100 98 98 100 100 100 91
45 33 25 40 42 42 40 38 31 31 32 37 32 27 28 31 32 34 34 32 32 33 34 30 24 16 20 66 79 87 85 90 80 100 98 100 100 100 100 100 100 100 98 60
19 35 34 30 42 46 40 36 34 34 33 37 36 30 22 24 36 32 29 32 31 30 32 32 25 18 20 52 75 78 90 86 86 99 99 100 99 99 99 100 100 100 99 69
45 37 39 34 37 38 38 36 39 37 34 32 34 24 20 27 32 31 32 29 29 30 33 30 26 22 21 24 51 72 77 83 88 89 98 99 100 100 100 100 100 99 99 98
42 47 28 39 37 42 41 42 36 43 38 36 34 34 25 28 35 32 30 34 28 34 34 29 32 26 19 25 27 38 55 72 83 97 99 99 97 100 99 100 99 100 100 100
43 44 35 37 38 46 49 50 52 51 46 42 40 32 23 24 33 29 33 35 32 33 35 32 35 27 23 22 26 26 27 38 60 85 99 99 100 98 99 98 100 98 100 99
29 30 36 38 33 35 54 52 44 48 47 41 32 37 27 34 35 34 34 35 32 32 32 35 36 32 26 23 25 26 24 25 32 47 71 98 100 96 99 99 100 96 91 97
29 25 30 37 34 35 35 52 39 38 36 32 40 36 32 37 35 34 29 35 35 36 34 35 31 33 32 25 25 26 28 28 29 27 36 53 70 75 98 100 99 96 91 93
56 41 28 32 36 34 38 49 43 36 34 41 36 41 42 36 31 33 32 32 32 35 34 34 29 33 35 36 27 26 28 31 33 34 32 31 38 46 51 61 73 88 93 98
62 63 54 46 39 37 32 36 46 44 44 39 27 28 32 33 34 32 37 35 34 32 33 33 32 34 38 41 47 45 33 29 32 35 38 39 38 38 40 42 46 50 55 65
78 73 58 46 43 32 33 40 41 37 37 36 35 26 34 34 33 33 36 34 34 33 32 32 34 37 40 40 47 50 50 48 33 31 35 38 42 44 46 45 46 47 51 54
74 68 68 63 59 48 54 44 35 33 32 39 37 33 36 37 39 38 34 34 32 34 32 32 34 36 39 37 38 42 52 56 54 52 35 35 38 40 43 47 51 56 58 60
68 72 60 56 55 54 63 66 63 64 56 44 43 38 38 38 32 32 31 36 34 27 30 29 29 36 29 32 34 36 43 35 51 61 59 53 40 40 41 45 47 56 59 63
88 72 55 38 53 62 65 72 70 74 73 51 44 40 37 36 37 36 36 34 36 33 27 28 28 28 30 31 33 33 33 34 41 46 58 58 60 60 47 54 58 62 72 70
86 72 62 62 53 44 47 49 51 63 64 66 61 55 42 44 35 38 36 39 36 37 33 30 30 28 28 29 32 32 34 28 25 35 49 38 37 49 60 66 66 68 69 76
100 73 87 78 69 62 46 36 42 48 55 57 55 57 60 51 43 39 39 33 35 39 37 36 32 32 32 29 28 30 34 34 30 30 32 34 33 31 32 34 42 64 68 79
100 98 92 67 71 79 72 54 42 35 40 61 64 54 52 47 42 40 41 38 37 35 38 36 39 36 34 32 30 30 33 36 36 37 40 39 38 37 36 35 37 39 43 50
100 100 100 81 76 80 49 61 56 46 59 66 74 70 59 50 45 42 38 41 41 37 34 35 39 39 37 35 33 32 31 34 38 38 40 44 48 49 48 46 43 44 49 57
100 96 93 74 51 45 51 52 73 74 61 69 89 72 56 50 48 47 48 46 43 39 36 34 38 40 38 37 36 36 33 32 31 34 38 42 44 46 50 58 62 66 70 75
98 100 94 72 65 52 32 75 69 68 59 70 84 97 100 74 57 46 45 44 43 44 40 36 35 34 34 35 38 36 34 32 31 33 36 40 38 35 27 36 55 62 74 85
98 98 99 93 85 58 56 76 86 73 74 69 85 87 86 95 78 60 51 43 40 41 45 38 36 33 32 33 33 36 35 32 33 35 37 34 30 27 21 26 45 77 84 80
91 98 99 98 96 80 73 75 96 97 84 91 88 92 97 98 66 62 56 47 42 40 48 42 37 35 32 32 38 42 37 37 37 33 32 30 32 35 35 35 35 42 51 54
63 63 64 90 85 67 78 93 98 100 98 89 83 97 99 100 77 68 63 60 54 49 50 41 34 34 35 34 39 41 38 34 34 35 37 35 39 44 48 43 43 44 47 49
65 74 79 90 69 69 89 95 95 96 96 93 90 99 97 99 98 82 72 67 66 59 51 47 47 55 46 46 39 36 39 42 43 48 44 44 52 55 57 58 59 62 68 72
78 77 74 74 76 74 61 85 91 90 82 95 90 98 86 82 98 100 99 96 96 88 81 62 54 47 45 44 46 46 47 48 49 49 53 60 63 64 69 73 72 72 72 76
87 80 74 74 78 81 80 44 51 79 57 67 98 91 81 86 90 100 100 100 99 100 99 90 70 76 76 66 59 58 56 55 57 62 74 77 84 77 76 73 73 75 77 80

GFSCGP_700_rhum_099.txt.gz
RH
32 24 19 23 33 36 35 29 26 26 27 26 27 28 25 23 22 25 27 28 34 48 70 34 35 26 19 16 48 73 80 77 80 78 87 97 97 98 99 98 98 100 99 100
39 31 28 21 25 38 39 36 33 30 29 28 31 30 28 24 22 22 27 27 30 39 65 32 33 26 20 16 46 64 76 81 86 89 87 96 95 100 100 99 98 98 100 100
39 35 33 34 31 26 34 38 37 34 33 28 28 31 30 27 24 22 24 31 31 36 59 32 33 26 22 17 30 60 76 82 86 96 94 100 98 100 100 100 100 100 100 100
31 32 40 36 33 26 26 33 36 36 33 30 28 26 25 22 18 20 28 31 33 38 50 42 34 27 24 17 21 37 73 80 85 91 96 96 100 98 97 98 98 100 100 100
29 38 44 40 36 34 28 31 34 33 34 34 32 28 26 26 24 20 24 27 27 39 52 32 33 30 25 18 19 22 38 66 80 92 98 97 98 98 99 100 100 100 100 100
24 29 48 46 42 42 38 36 37 39 35 35 33 31 27 25 23 27 27 26 32 39 56 33 32 33 26 23 20 21 22 34 58 80 96 98 98 98 99 100 99 100 100 99
34 28 26 43 43 44 42 38 40 38 41 40 32 30 30 26 23 28 27 29 40 47 40 34 33 35 28 26 23 21 21 22 28 50 90 96 98 98 100 100 99 100 98 98
31 24 25 27 34 34 41 44 45 41 36 37 32 27 27 27 28 28 31 34 36 48 31 31 33 37 34 27 27 25 26 26 26 33 53 69 95 95 98 98 99 100 100 100
44 37 38 26 29 36 27 43 35 42 40 45 50 34 31 36 36 32 30 31 32 46 34 33 35 35 29 31 26 29 30 31 29 29 29 41 55 73 78 94 100 100 99 94
62 52 40 39 31 35 36 29 36 38 49 43 27 26 30 32 34 31 30 32 31 36 43 33 35 30 32 33 33 28 29 31 33 32 31 32 31 43 52 53 56 66 76 84
46 61 45 50 45 32 34 35 35 31 29 36 41 33 33 26 33 34 30 35 32 37 49 33 34 34 32 36 35 41 42 36 31 33 36 37 36 35 35 38 44 50 55 60
43 67 61 46 43 52 52 29 32 37 33 29 32 35 36 32 33 34 39 36 40 40 47 34 33 34 34 37 35 42 47 48 50 43 33 35 40 43 44 45 45 46 49 52
81 49 44 41 38 44 54 49 41 34 33 30 36 36 32 35 35 36 39 38 39 36 42 35 33 32 34 37 39 36 41 47 55 58 55 43 34 38 41 44 47 49 52 56
79 56 46 38 42 76 56 58 60 55 52 43 35 28 29 34 33 34 37 38 37 40 45 36 32 32 34 38 29 33 36 40 44 43 52 58 56 46 41 44 48 51 52 60
80 66 48 41 38 40 51 45 44 46 47 51 48 41 39 38 36 37 38 38 39 41 44 40 29 28 28 29 29 33 32 33 34 32 38 43 58 61 61 60 50 50 56 60
56 74 57 46 41 40 41 37 34 33 36 39 41 41 40 41 44 46 44 40 38 35 38 41 36 30 28 28 29 32 31 32 33 24 24 40 52 56 56 54 66 64 68 70
86 84 64 66 44 39 42 37 29 24 22 26 33 36 37 45 43 43 19 36 37 39 38 41 44 44 33 32 29 31 31 33 34 32 26 29 30 31 32 32 35 38 49 64
95 91 93 67 66 64 40 38 42 45 39 28 23 22 38 46 50 42 39 39 38 40 42 43 47 49 42 37 34 31 32 34 35 35 35 37 37 38 39 38 36 36 36 39
96 93 92 71 49 39 38 40 43 48 51 47 46 58 61 83 58 48 40 38 38 44 48 48 40 37 36 38 40 39 38 34 34 37 37 37 39 41 43 49 54 56 58 59
94 98 92 81 62 52 34 68 60 78 80 93 100 91 88 96 85 55 45 43 45 46 46 44 40 38 38 39 36 41 40 39 36 34 35 38 40 43 47 49 50 48 44 60
92 98 92 82 79 62 48 45 57 79 78 87 95 100 92 98 95 75 82 54 45 46 45 44 43 41 36 33 39 35 36 36 37 36 36 36 37 38 45 36 28 25 26 42
94 97 94 85 95 82 67 69 77 82 85 90 99 100 98 80 99 99 61 61 53 49 46 44 42 42 41 37 36 35 34 37 38 39 40 43 40 39 33 30 30 33 37 46
92 78 87 90 72 74 70 88 80 78 87 77 94 99 100 99 99 95 73 68 58 51 47 39 37 37 37 41 38 36 34 39 43 45 48 40 31 32 32 37 40 44 47 47
82 75 71 69 67 76 86 88 76 92 94 86 99 87 93 98 99 100 83 78 67 63 62 56 48 48 48 42 43 44 45 52 49 48 39 40 39 42 43 48 52 56 58 60
84 87 85 80 78 73 73 88 81 85 93 98 87 91 91 96 98 91 98 98 93 77 80 84 62 58 52 62 64 69 50 44 38 44 46 52 49 56 68 82 64 70 72 68
80 76 81 74 88 90 82 78 85 82 64 94 59 83 94 97 90 100 89 100 99 100 97 98 100 97 81 74 70 71 60 64 62 56 66 69 75 87 82 86 92 79 66 68

GFSCGP_700_rhum_102.txt.gz
RH
28 25 22 21 20 22 26 29 38 49 38 42 30 25 26 27 24 23 24 24 27 28 34 51 55 35 32 25 15 35 51 65 74 77 85 80 77 80 92 93 100 95 100 100
43 38 31 26 24 21 20 30 38 42 45 43 42 32 26 28 27 24 22 21 24 27 33 50 52 39 32 26 15 28 58 61 65 68 77 79 83 87 92 98 100 97 100 100
32 26 25 30 31 30 25 22 36 46 51 56 43 33 29 26 27 27 24 22 24 27 32 44 46 44 31 26 16 18 42 63 70 71 74 74 94 100 100 99 98 98 100 100
23 26 27 27 34 34 33 30 29 30 36 44 41 32 30 27 26 25 25 23 21 28 30 40 45 42 32 26 17 18 25 53 70 73 76 67 83 96 97 98 99 99 98 100
17 22 23 26 27 34 34 32 31 36 37 37 35 31 31 27 25 25 21 20 26 30 33 37 45 39 32 27 19 18 20 28 51 69 87 80 96 98 91 100 100 98 100 100
27 22 22 29 33 37 35 36 38 34 33 38 36 32 30 28 26 24 23 21 24 26 31 42 49 33 32 28 23 19 18 19 29 55 86 88 96 99 99 99 100 100 100 100
31 28 26 21 28 40 43 41 42 44 46 42 33 32 30 28 27 26 23 26 27 29 38 44 44 29 32 31 26 21 21 21 20 40 69 97 93 99 98 99 100 100 100 100
31 23 26 28 22 28 36 42 49 67 54 48 58 66 35 28 28 25 27 28 30 38 41 49 37 32 34 35 27 25 25 24 24 23 45 78 89 93 99 99 94 95 98 100
41 28 35 29 25 26 31 40 41 48 48 52 62 50 41 34 28 27 28 28 31 39 48 53 44 31 34 35 28 28 28 29 23 21 24 46 71 83 89 96 89 92 96 97
46 50 40 36 29 26 28 30 33 44 61 67 43 41 54 45 42 34 31 29 31 32 42 53 62 34 35 30 31 28 29 31 32 27 24 28 42 58 73 86 88 94 95 98
38 46 41 40 44 34 30 33 36 41 48 55 55 40 42 43 40 34 36 40 38 31 37 46 54 35 36 29 34 32 32 31 31 34 34 30 28 32 40 51 60 70 84 89
28 36 48 37 44 54 69 39 34 37 40 43 45 40 37 63 49 40 38 40 41 39 40 46 56 42 35 31 35 32 38 42 44 38 33 37 38 34 33 36 42 49 52 59
57 51 43 34 27 31 40 47 47 33 34 37 50 49 39 53 59 48 46 40 43 45 41 48 56 59 35 34 34 37 39 45 48 52 50 39 35 41 43 44 44 45 48 50
54 66 68 50 32 54 66 56 51 45 82 43 35 31 30 36 53 61 37 35 36 38 44 52 62 73 46 34 34 38 40 42 46 52 55 56 54 39 38 43 46 49 52 55
60 59 53 50 42 38 40 48 54 52 51 72 60 50 48 56 70 49 47 40 39 37 45 48 59 71 59 41 36 38 37 38 42 46 42 43 57 63 55 44 43 48 52 57
59 54 48 49 42 36 33 36 42 44 40 37 37 36 36 42 39 37 36 38 43 40 39 48 48 58 72 48 34 38 30 34 36 34 33 36 43 54 65 66 66 66 57 54
64 58 47 52 51 40 33 31 33 36 34 32 31 29 29 32 33 35 41 42 41 34 38 37 41 55 56 51 30 29 30 32 32 33 32 24 29 48 56 59 59 60 58 43
87 89 78 78 62 69 42 33 34 34 32 27 30 26 22 24 26 30 40 43 42 39 36 41 40 45 57 64 43 33 30 32 30 33 33 29 25 29 29 32 35 35 35 36
84 89 95 79 54 49 38 36 52 60 58 70 59 67 64 55 70 49 46 51 54 44 39 40 42 41 52 61 56 40 37 34 33 34 34 32 32 35 37 38 38 38 39 40
88 86 84 91 68 54 36 65 56 55 64 94 96 75 91 97 72 55 68 63 66 53 45 46 44 48 49 49 63 45 47 42 39 36 35 34 34 36 37 39 41 46 54 61
83 91 90 94 94 68 46 60 61 59 69 85 98 98 93 70 95 47 45 64 64 64 56 48 45 44 46 44 46 42 40 41 44 41 40 38 37 37 42 44 55 65 67 71
97 96 98 90 84 77 64 70 78 81 92 94 79 81 78 84 71 47 47 58 64 57 60 53 46 45 46 44 44 46 41 40 41 41 42 41 46 54 55 64 76 76 92 80
96 83 91 78 73 76 75 90 64 59 49 58 86 91 84 66 60 61 76 96 64 54 57 62 55 49 48 47 43 39 40 42 40 41 44 47 50 54 54 54 92 68 82 99
92 89 93 98 80 97 88 77 77 78 74 93 84 95 88 83 96 99 98 97 82 71 60 58 55 48 42 38 40 39 40 44 42 44 49 53 53 68 71 59 57 66 86 97
98 90 86 83 84 68 96 83 84 94 90 82 86 95 97 97 98 94 98 100 99 96 87 78 67 60 56 50 45 49 50 49 46 47 61 87 97 100 99 61 72 76 82 97
79 80 79 91 97 87 93 96 82 77 69 96 92 87 79 94 92 80 91 99 100 100 98 97 81 76 70 68 70 78 88 98 97 99 100 100 100 80 98 89 75 92 96 97

GFSCGP_700_rhum_105.txt.gz
RH
7 17 16 12 17 17 17 18 22 23 24 32 36 42 40 36 36 29 23 24 23 29 28 28 29 35 37 43 32 22 27 50 56 68 71 73 79 80 90 83 88 88 92 99
24 39 7 27 27 23 22 21 21 20 25 30 32 38 41 44 40 41 27 27 24 22 26 28 29 33 38 43 32 23 20 55 60 68 75 84 88 83 89 94 88 87 92 100
21 13 28 34 33 28 26 27 27 25 23 28 35 44 42 43 40 36 27 27 24 22 24 29 30 33 39 43 32 23 16 44 67 66 73 78 80 77 84 98 99 98 97 97
42 32 34 30 29 29 30 33 32 31 29 33 34 46 48 45 38 36 28 26 26 25 23 26 30 32 33 38 32 22 16 22 55 74 72 73 76 79 94 98 99 97 100 100
12 14 19 22 27 26 27 28 35 33 31 32 36 38 44 42 36 33 30 26 25 26 24 23 28 28 32 37 32 23 17 17 28 52 70 72 80 84 95 100 99 100 98 100
22 18 22 19 22 26 26 27 31 36 35 43 36 38 37 37 33 30 29 25 22 22 22 23 28 33 36 34 31 25 19 17 20 42 68 86 84 80 91 99 98 100 99 98
25 20 27 22 17 23 31 38 52 54 54 50 36 39 38 34 33 27 27 24 26 25 24 28 32 33 32 29 31 27 21 20 20 28 56 80 94 90 83 99 99 99 98 100
38 38 29 26 29 26 22 32 52 66 68 48 42 64 50 41 48 46 30 29 29 26 28 29 34 34 33 31 33 27 24 21 20 21 43 70 97 93 94 94 100 100 100 99
45 40 36 34 41 29 22 33 30 46 44 55 54 53 41 49 60 46 31 30 34 31 31 32 35 37 30 33 34 27 27 26 21 20 28 56 82 95 96 99 98 100 100 100
51 49 43 43 49 37 25 24 31 37 72 80 49 45 47 48 63 48 44 39 41 32 38 43 39 32 30 34 33 28 29 29 29 25 21 34 61 77 81 90 90 93 98 98
37 45 47 42 37 46 46 27 28 32 61 71 73 51 59 61 96 81 57 48 45 47 33 36 35 34 32 36 29 31 28 29 31 32 31 24 27 40 55 76 80 87 95 96
24 27 32 36 28 42 44 59 62 32 40 50 50 51 54 54 76 84 65 61 55 51 56 40 43 43 34 35 31 33 32 33 36 35 36 35 32 27 30 38 56 63 70 77
27 49 67 47 20 17 43 48 86 88 46 40 54 51 48 54 58 78 72 76 74 61 67 77 52 49 40 35 33 34 31 40 43 47 45 41 38 38 35 33 36 41 44 48
37 37 37 72 66 61 57 47 48 85 73 88 74 54 42 67 64 80 73 57 67 72 46 69 67 57 52 45 37 35 37 39 46 49 52 55 52 41 42 44 44 44 46 49
44 45 35 29 25 46 50 46 40 39 48 71 71 64 57 60 60 80 79 66 48 52 43 51 74 79 49 64 49 39 39 40 42 49 50 52 49 55 46 40 43 47 50 54
48 55 58 58 46 30 45 42 41 38 35 38 41 42 45 38 43 50 41 46 45 41 44 42 56 81 98 48 42 40 40 41 42 45 42 48 50 53 61 63 51 46 48 53
67 78 78 74 62 53 51 41 40 34 30 32 31 33 31 28 27 32 38 42 38 38 38 38 42 55 63 82 47 33 37 41 41 39 36 35 39 43 52 68 72 66 64 59
54 62 67 74 72 80 38 29 32 32 25 36 50 49 50 53 49 28 32 32 41 39 39 33 40 44 52 63 78 62 44 40 38 38 34 34 30 27 44 46 41 44 40 42
46 50 88 93 80 76 54 56 69 57 48 80 79 59 62 59 46 42 51 52 49 45 47 48 44 47 54 57 56 97 67 46 43 42 36 34 32 30 29 27 30 35 38 42
60 71 79 90 88 78 44 58 64 64 60 80 77 73 59 71 60 56 66 58 61 69 64 56 45 48 62 62 61 44 75 58 44 37 35 34 34 33 30 31 33 35 40 50
86 86 89 98 94 75 52 66 60 64 84 82 82 82 78 79 87 71 67 63 60 63 70 68 60 55 57 55 67 72 63 47 53 52 47 43 37 36 34 35 38 39 44 60
97 91 95 98 92 83 44 73 68 68 69 63 60 65 66 62 65 70 62 52 46 43 40 54 63 55 50 50 53 60 64 61 58 61 61 54 54 54 59 59 80 64 71 82
96 80 82 74 63 64 71 75 80 76 64 57 53 79 78 51 54 56 49 45 41 42 37 38 58 63 58 52 50 53 54 55 56 60 63 63 66 64 70 72 71 92 70 94
96 95 95 83 66 80 72 82 70 91 72 72 96 92 81 76 95 94 80 76 63 62 74 79 56 51 55 61 56 52 50 47 44 46 51 59 69 72 83 95 100 100 100 100
93 94 94 95 98 96 97 98 87 83 79 77 90 93 93 100 95 71 71 85 92 98 72 95 84 73 62 55 52 48 44 46 47 53 61 84 93 99 100 100 100 100 100 100
96 98 97 98 97 96 87 78 78 82 85 89 85 94 93 76 76 97 92 78 87 99 99 100 100 94 80 68 63 61 61 64 68 87 100 100 100 100 100 97 97 100 100 99

GFSCGP_700_rhum_108.txt.gz
RH
5 16 14 6 8 11 16 20 21 20 20 21 20 21 24 29 28 32 32 35 29 28 27 31 30 29 32 40 42 41 32 24 37 55 63 75 82 80 81 86 82 95 99 94
9 10 4 8 15 21 21 20 22 22 21 23 22 23 22 23 26 28 26 36 31 29 29 29 30 30 32 42 43 44 30 23 24 52 60 68 81 91 82 84 89 91 98 91
5 16 14 22 25 30 29 29 29 28 26 31 31 29 27 22 29 28 28 36 31 29 30 26 23 22 34 43 44 36 29 23 17 51 60 64 76 88 95 94 91 93 90 90
15 16 11 21 36 45 42 35 34 32 32 35 33 36 31 27 27 30 33 38 31 30 32 27 27 24 35 41 40 32 28 24 16 34 62 65 72 85 88 89 91 91 92 99
18 23 15 19 16 31 34 32 27 28 34 35 36 36 30 31 28 22 41 35 30 29 29 28 26 26 32 38 31 34 29 23 16 18 45 68 79 85 92 97 98 100 98 99
20 19 22 17 20 21 21 22 26 25 32 45 38 38 36 36 29 27 33 33 31 29 31 29 27 26 32 31 31 36 29 23 17 17 26 52 78 85 92 99 99 99 100 100
26 23 20 24 26 22 20 23 49 53 55 48 34 38 38 36 28 36 41 29 28 29 32 29 27 26 29 29 35 31 30 22 18 17 23 50 77 87 93 97 99 99 100 99
40 45 30 27 34 39 37 23 38 61 61 47 41 45 39 47 43 42 50 38 31 33 33 29 25 25 24 33 36 28 30 22 20 14 20 48 75 86 86 90 96 99 100 100
35 34 29 42 38 35 38 32 28 32 37 56 49 46 42 31 40 58 52 50 42 32 30 27 23 24 32 37 39 31 27 24 23 14 17 39 66 82 75 88 97 100 100 100
39 44 28 37 42 43 43 41 34 40 64 56 55 52 47 50 55 58 57 64 61 52 44 30 29 33 38 45 35 34 26 27 26 21 17 25 47 72 81 85 86 99 100 100
40 47 47 45 43 48 52 51 53 46 35 55 74 55 56 66 59 71 84 97 88 62 58 47 41 36 42 34 33 34 28 28 29 29 26 20 27 44 68 80 83 87 98 100
33 26 30 38 41 36 38 58 88 88 69 72 59 54 40 49 66 70 99 100 98 86 70 73 54 44 38 33 34 30 30 29 31 34 36 33 28 25 36 57 70 85 90 94
36 38 41 30 27 31 44 70 58 65 96 94 83 54 52 58 68 76 87 100 97 98 65 75 66 55 51 41 36 31 30 30 34 40 43 44 40 34 30 30 42 56 70 83
39 40 36 46 42 41 38 36 35 54 72 88 74 83 60 46 59 63 80 96 97 73 68 63 81 65 65 60 43 32 33 32 38 43 50 50 46 42 38 37 35 39 46 49
41 42 40 38 40 34 30 20 20 40 50 73 49 50 49 44 61 82 94 88 95 75 80 74 72 77 78 68 69 51 36 34 36 43 50 54 53 44 41 41 44 44 45 49
60 59 54 48 45 45 53 44 53 53 32 38 42 40 45 56 50 53 74 82 88 88 85 69 63 71 78 73 69 70 50 38 40 43 49 53 56 54 48 43 43 46 48 51
48 55 64 68 65 71 68 37 41 29 22 32 33 32 28 44 54 59 50 54 83 71 68 61 61 51 51 64 66 67 64 54 43 44 48 50 52 54 60 56 50 48 46 47
52 58 57 73 74 77 41 37 52 67 34 24 48 61 58 47 57 58 50 38 56 46 47 45 56 44 46 50 58 65 68 69 60 48 47 51 51 52 61 60 60 63 61 59
40 48 74 71 68 58 50 51 74 90 62 71 76 68 66 62 72 70 68 78 68 59 46 31 52 51 40 50 59 63 65 80 74 62 53 54 53 41 34 37 41 47 53 51
93 71 62 73 85 87 58 67 94 95 85 92 95 86 85 84 84 80 72 67 64 80 76 70 65 61 55 52 65 64 67 66 78 73 61 54 47 41 37 33 40 44 43 42
96 100 95 92 84 61 42 47 69 96 92 94 82 68 69 68 68 72 71 65 60 59 61 69 71 64 67 68 70 71 68 69 71 76 76 71 61 50 46 46 43 58 66 66
96 96 97 98 95 87 46 62 68 77 76 67 56 45 38 42 53 57 50 53 56 57 56 50 44 62 60 62 65 67 71 76 80 79 78 82 78 75 67 59 57 54 72 95
95 97 88 78 71 53 68 76 87 83 78 54 63 70 64 64 68 75 69 47 34 38 44 45 42 36 36 50 61 61 66 71 74 76 77 89 90 97 92 95 100 99 100 95
96 99 98 88 77 69 85 87 80 89 79 86 95 90 91 86 96 100 81 67 64 71 58 40 39 37 36 37 57 63 60 65 70 68 61 58 62 73 79 90 89 84 89 85
97 96 96 88 94 98 93 86 92 82 85 87 91 85 87 88 96 95 86 76 65 62 70 64 66 71 66 57 48 53 62 63 61 58 57 52 58 68 86 99 100 100 100 100
97 97 90 95 97 96 96 96 86 81 80 88 91 94 73 70 86 80 59 74 77 75 84 87 98 100 87 76 70 62 60 61 60 57 58 60 64 80 89 100 100 100 100 100

GFSCGP_700_rhum_111.txt.gz
RH
7 12 10 7 8 12 17 19 18 19 17 18 15 18 18 20 20 16 18 20 22 28 30 31 24 26 31 30 31 33 48 46 31 24 27 54 52 75 79 73 99 98 100 100
10 6 9 12 14 14 18 19 16 11 12 24 24 21 19 27 28 19 20 16 22 20 30 34 29 29 32 34 31 34 49 43 30 25 20 54 60 72 87 76 82 100 100 99
12 8 9 7 18 31 29 29 29 23 28 31 31 27 25 31 28 16 14 12 19 30 27 35 30 29 29 30 28 35 47 39 29 25 17 48 59 63 81 88 87 87 96 99
9 7 5 15 27 42 36 31 31 36 39 40 32 38 29 29 27 18 14 18 26 41 40 38 32 29 28 26 29 42 43 37 30 25 18 39 58 65 71 83 86 95 99 97
7 10 10 8 8 18 19 30 35 37 32 29 30 41 28 31 29 16 14 22 29 38 37 38 32 28 28 30 34 44 45 36 31 24 18 29 54 64 75 90 90 92 98 100
20 20 22 23 21 26 27 28 27 26 35 47 32 36 29 28 25 22 23 42 37 41 37 37 34 29 28 35 41 46 45 37 30 22 18 23 45 66 74 82 94 94 97 99
34 28 22 23 24 21 20 27 40 42 60 48 32 35 32 31 29 36 47 35 25 45 39 37 34 29 29 33 45 46 43 36 30 21 19 21 41 65 81 86 84 89 95 97
40 38 33 34 35 37 37 40 39 42 50 40 34 46 36 33 38 39 32 38 50 55 48 37 30 29 28 31 44 52 40 28 28 20 19 20 39 68 90 90 93 94 99 98
53 50 46 36 32 43 40 38 37 36 31 53 37 36 32 28 40 50 56 55 60 60 52 40 32 29 29 28 41 49 36 30 23 22 16 19 40 72 87 90 95 100 100 99
54 58 52 43 33 41 53 52 42 44 60 49 43 49 38 40 61 62 54 45 64 62 44 36 32 30 32 34 52 48 37 32 23 24 18 20 33 68 83 83 96 98 99 100
52 47 46 46 42 41 38 50 61 61 59 65 54 40 55 68 62 71 68 65 69 79 58 63 55 38 34 45 58 51 38 32 23 26 23 19 25 40 61 76 89 99 98 98
34 34 32 38 39 38 36 57 62 85 92 92 90 66 48 48 57 55 57 62 62 84 75 74 78 60 46 52 63 60 36 31 27 30 30 25 21 24 38 55 78 92 100 100
42 39 33 31 38 43 62 69 55 58 82 81 93 69 51 53 52 51 75 69 81 94 81 75 71 58 63 63 64 56 34 29 29 32 37 36 32 28 26 34 43 75 90 95
38 43 35 38 42 33 30 29 27 41 48 52 63 58 44 50 56 70 82 80 63 98 87 72 73 68 76 68 64 56 38 28 30 33 40 40 41 36 33 31 34 42 59 77
52 40 36 38 44 42 35 29 44 40 34 47 19 24 41 40 50 61 67 74 72 99 98 96 75 73 71 67 68 60 48 30 29 32 44 50 46 44 40 37 37 40 49 57
53 58 65 56 57 56 57 47 24 40 41 43 30 26 40 41 47 51 72 92 80 99 99 99 85 81 86 78 76 69 58 40 29 31 38 45 51 48 45 43 42 42 45 48
58 66 66 58 63 69 59 17 34 30 32 35 44 12 41 35 27 74 63 96 79 83 90 98 84 69 79 96 88 81 74 62 43 33 36 39 42 51 50 46 45 44 44 46
47 49 62 62 60 68 37 43 35 41 47 65 74 26 26 35 49 75 56 89 73 86 93 76 70 94 82 88 97 95 97 80 72 58 40 40 42 44 51 55 53 50 47 46
47 50 75 68 58 42 35 31 58 88 75 84 61 54 51 49 62 74 76 93 90 77 80 91 38 41 74 68 75 76 81 96 86 82 79 60 47 50 53 57 60 59 58 54
67 84 83 70 84 73 39 70 85 79 84 94 86 90 81 92 90 77 84 87 82 80 76 77 52 68 52 69 73 65 70 66 72 84 90 88 77 60 60 60 60 62 63 64
90 94 95 97 78 58 27 55 42 70 96 98 93 70 66 73 70 64 60 59 64 60 59 62 63 68 68 69 73 74 77 70 68 73 85 94 90 88 87 75 72 68 66 66
96 96 96 96 94 84 42 48 88 92 88 76 74 69 69 83 79 71 66 53 54 45 39 45 55 45 46 59 70 74 82 88 82 80 87 95 98 99 98 92 91 83 78 76
96 97 95 84 66 56 51 64 86 96 96 93 96 100 96 95 91 85 77 82 78 66 49 31 32 42 48 40 38 59 66 74 82 88 100 100 99 99 98 100 99 100 100 99
96 96 96 90 72 61 52 59 89 98 94 94 90 90 97 96 88 99 97 96 89 75 64 52 44 45 37 39 35 44 60 62 76 83 76 79 79 86 87 82 82 91 99 88
96 95 96 98 97 97 98 90 95 87 91 84 84 94 100 99 68 92 96 86 72 66 68 52 51 50 48 42 42 46 63 64 63 62 66 64 63 66 72 86 98 100 99 97
96 96 96 97 95 97 98 92 93 75 80 91 90 94 82 61 76 96 84 86 85 80 75 79 98 95 98 99 87 69 70 74 68 63 61 62 63 67 81 100 99 100 100 100

GFSCGP_700_rhum_114.txt.gz
RH
14 24 25 10 8 10 26 28 28 26 22 17 11 8 10 9 12 14 13 12 10 11 13 17 20 27 28 24 27 28 29 31 38 47 48 26 20 59 72 81 73 99 97 97
33 18 16 21 17 13 17 22 21 17 14 17 21 17 19 15 15 16 16 15 12 13 12 12 17 28 29 24 28 32 32 34 43 50 44 26 19 52 74 78 68 90 99 98
21 14 19 17 16 16 25 21 17 17 25 26 32 20 13 13 12 17 15 14 14 22 23 14 16 27 29 27 26 28 33 37 50 52 41 26 18 45 68 72 74 79 98 98
20 12 16 14 12 25 20 17 20 26 44 42 37 42 21 17 23 23 15 13 16 22 35 38 37 29 34 29 28 26 31 42 53 52 38 25 18 35 72 74 74 84 88 100
10 9 9 9 6 9 16 19 26 32 44 37 33 39 24 22 19 21 16 11 28 41 29 39 40 38 35 30 28 26 32 47 56 55 37 25 18 30 70 82 80 85 90 92
19 17 21 23 25 27 33 34 33 34 31 51 31 31 18 21 26 26 23 34 44 35 20 31 45 40 37 30 28 27 32 45 60 54 36 25 19 26 52 77 81 83 94 98
27 26 28 26 30 31 30 38 38 32 59 46 26 34 25 24 33 32 29 36 29 46 43 36 51 41 37 33 31 30 33 40 57 52 32 23 20 23 45 72 84 84 89 94
51 44 37 32 29 26 29 29 36 40 43 33 29 40 30 28 30 29 41 52 56 51 56 63 56 48 39 36 33 32 33 44 52 51 28 23 20 22 41 68 79 89 85 88
57 50 44 45 41 41 41 44 41 40 40 47 35 31 31 30 38 40 53 58 55 46 59 69 63 46 41 36 31 32 34 47 56 47 26 23 18 26 49 75 88 89 86 83
46 58 53 53 51 52 51 48 46 44 57 51 42 43 39 54 52 58 55 52 45 40 35 38 66 60 44 36 31 31 36 53 61 36 25 22 19 33 56 84 92 86 87 98
47 37 48 47 47 43 46 54 54 53 70 75 80 45 86 62 58 56 56 55 44 38 37 53 74 65 41 36 32 30 37 57 58 28 26 22 21 36 62 88 88 91 94 99
46 52 46 42 48 38 40 46 45 57 90 77 87 71 55 54 54 52 59 47 42 39 46 86 77 66 51 35 34 33 43 57 49 27 28 26 23 33 53 80 76 80 93 99
58 54 45 49 68 80 63 56 47 49 59 68 88 60 40 40 31 30 59 60 64 61 57 78 80 75 74 56 40 45 54 59 34 29 30 30 28 32 43 60 65 70 81 86
51 50 44 44 43 36 36 35 34 34 45 44 48 24 19 15 8 16 48 59 67 67 65 99 99 98 84 93 64 60 61 65 29 31 33 35 33 32 40 50 54 63 78 85
67 48 43 36 39 40 37 34 36 34 27 43 23 24 18 12 5 18 41 52 69 67 77 95 99 100 88 99 94 64 65 63 29 31 34 39 39 36 36 41 49 52 64 74
48 58 69 57 57 56 57 55 45 26 16 32 17 14 13 9 4 34 36 36 54 67 73 91 96 100 98 99 98 72 66 60 30 31 34 40 41 41 40 40 42 44 48 51
62 55 62 62 56 63 59 28 30 28 21 21 32 10 28 16 10 37 40 62 68 69 69 90 95 99 99 98 99 82 76 68 38 30 32 37 39 42 44 43 43 44 45 47
67 67 69 68 64 72 33 39 41 37 25 41 42 41 48 50 39 46 42 65 69 90 84 84 92 96 98 100 100 100 83 67 63 35 31 34 37 40 43 45 45 46 48 49
53 60 84 72 68 46 39 31 28 39 37 67 74 66 75 63 44 62 47 75 82 81 70 84 88 82 90 97 98 100 96 75 73 75 64 39 37 38 42 45 47 48 48 51
56 81 85 74 89 79 33 43 76 73 55 58 94 83 64 65 89 80 82 90 87 80 76 83 87 80 89 79 95 96 100 88 82 78 84 86 85 55 43 45 47 50 52 53
94 96 94 96 95 69 47 35 47 65 63 89 99 97 95 92 93 83 74 65 65 61 57 49 48 60 62 73 63 87 99 100 98 97 88 80 80 85 78 58 56 54 56 57
97 96 96 97 94 84 48 81 82 81 90 98 97 98 96 92 95 90 85 67 47 44 52 48 43 37 54 50 52 50 89 100 100 100 97 90 83 79 91 90 92 84 76 70
94 97 96 95 82 67 50 68 70 85 97 95 97 100 96 95 92 95 94 82 63 77 75 67 46 33 31 44 46 41 60 97 93 98 100 100 100 100 99 99 99 100 97 98
95 96 97 96 82 69 61 80 83 75 96 92 92 97 94 93 86 72 98 90 88 80 66 59 49 36 34 38 42 45 40 62 77 94 99 100 100 99 99 98 98 99 99 92
96 93 95 96 98 94 99 93 87 94 89 84 94 96 95 74 63 79 98 97 95 78 62 60 48 44 44 47 41 40 38 53 62 79 97 100 99 92 90 98 94 85 80 94
90 96 97 97 96 98 98 97 98 96 97 97 95 91 61 66 76 84 98 94 82 91 82 78 82 93 90 72 68 62 44 42 67 73 82 100 99 94 98 100 98 97 99 100